[[{"header":{"parameterUnit":"m.s-1","parameterCategory":1,"la1":30.6,"la2":29.2853,"lo1":-89.7004,"lo2":-87.6739,"dy":0.0162,"dx":0.0183,"nx":112,"ny":82,"refTime":"2024-06-30T18:00:00:Z","depth":0,"parameterNumber":2,"parameterNumberName":"U-component_of_WINDS"},"data":[0.0,0.0,0.0,0.0,0.0,0.0,0.0,0.0,0.0,0.0,0.0,0.0,0.0,0.0,0.0,0.0,0.0,0.0,0.0,0.0,0.0,0.0,0.0,0.0,0.0,0.0,0.0,0.0,0.0,0.0,0.0,0.0,0.0,0.0,0.0,0.0,0.0,0.0,0.0,0.0,0.0,0.0,0.0,0.0,0.0,0.0,0.0,0.0,0.0,0.0,0.0,0.0,0.0,0.0,0.0,0.0,0.0,0.0,0.0,0.0,0.0,0.0,0.0,0.0,0.0,0.0,0.0,0.0,0.0,0.0,0.0,0.0,0.0,0.0,0.0,0.0,0.0,0.0,0.0,0.0,0.0,0.0,0.0,0.0,0.0,0.0,0.0,0.0,0.0,0.0,-1.1902,-1.2999,-1.3576,-1.3856,-1.3703,-1.265,-1.1636,-1.0755,0.0,0.0,0.0,0.0,0.0,0.0,0.0,0.0,0.0,0.0,0.0,0.0,0.0,0.0,0.0,0.0,0.0,0.0,0.0,0.0,0.0,0.0,0.0,0.0,0.0,0.0,0.0,0.0,0.0,0.0,0.0,0.0,0.0,0.0,0.0,0.0,0.0,0.0,0.0,0.0,0.0,0.0,0.0,0.0,0.0,0.0,0.0,0.0,0.0,0.0,0.0,0.0,0.0,0.0,0.0,0.0,0.0,0.0,0.0,0.0,0.0,0.0,0.0,0.0,0.0,0.0,0.0,0.0,0.0,0.0,0.0,0.0,0.0,0.0,0.0,0.0,0.0,0.0,0.0,0.0,0.0,0.0,0.0,0.0,0.0,0.0,0.0,0.0,0.0,0.0,0.0,0.0,0.0,0.0,0.0,0.0,0.0,0.0,0.0,0.0,0.0,0.0,0.0,0.0,-1.1797,-1.3885,-1.4518,-1.4484,-1.3759,-1.3221,-1.2263,-1.0788,0.0,0.0,0.0,0.0,0.0,0.0,0.0,0.0,0.0,0.0,0.0,0.0,0.0,0.0,0.0,0.0,0.0,0.0,0.0,0.0,0.0,0.0,0.0,0.0,0.0,0.0,0.0,0.0,0.0,0.0,0.0,0.0,0.0,0.0,0.0,0.0,0.0,0.0,0.0,0.0,0.0,0.0,0.0,0.0,0.0,0.0,0.0,0.0,0.0,0.0,0.0,0.0,0.0,0.0,0.0,0.0,0.0,0.0,0.0,0.0,0.0,0.0,0.0,0.0,0.0,0.0,0.0,0.0,0.0,0.0,0.0,0.0,0.0,0.0,0.0,0.0,0.0,0.0,0.0,0.0,0.0,0.0,0.0,0.0,0.0,0.0,0.0,0.0,0.0,0.0,0.0,0.0,0.0,0.0,0.0,0.0,0.0,0.0,0.0,0.0,0.0,0.0,0.0,-1.2172,-1.3238,-1.4546,-1.5107,-1.5222,-1.4821,-1.3765,-1.2617,-1.149,-1.058,0.0,0.0,0.0,0.0,0.0,0.0,0.0,0.0,0.0,0.0,0.0,0.0,0.0,0.0,0.0,0.0,0.0,0.0,0.0,0.0,0.0,0.0,0.0,0.0,0.0,0.0,0.0,0.0,0.0,0.0,0.0,0.0,0.0,0.0,0.0,0.0,0.0,0.0,0.0,0.0,0.0,0.0,0.0,0.0,0.0,0.0,0.0,0.0,0.0,0.0,0.0,0.0,0.0,0.0,0.0,0.0,0.0,0.0,0.0,0.0,0.0,0.0,0.0,0.0,0.0,0.0,0.0,0.0,0.0,0.0,0.0,0.0,0.0,0.0,0.0,0.0,0.0,0.0,0.0,0.0,0.0,0.0,0.0,0.0,0.0,0.0,0.0,0.0,0.0,0.0,0.0,0.0,0.0,0.0,0.0,0.0,0.0,0.0,0.0,0.0,0.0,0.0,-1.3557,-1.4604,-1.4956,-1.551,-1.5737,-1.5432,-1.4076,-1.2805,-1.1756,-1.0612,0.0,0.0,0.0,0.0,0.0,0.0,0.0,0.0,0.0,0.0,0.0,0.0,0.0,0.0,0.0,0.0,0.0,0.0,0.0,0.0,0.0,0.0,0.0,0.0,0.0,0.0,0.0,0.0,0.0,0.0,0.0,0.0,0.0,0.0,0.0,0.0,0.0,0.0,0.0,0.0,0.0,0.0,0.0,0.0,0.0,0.0,0.0,0.0,0.0,0.0,0.0,0.0,0.0,0.0,0.0,0.0,0.0,0.0,0.0,0.0,0.0,0.0,0.0,0.0,0.0,0.0,0.0,0.0,0.0,0.0,0.0,0.0,0.0,0.0,0.0,0.0,0.0,0.0,0.0,0.0,0.0,0.0,0.0,0.0,0.0,0.0,0.0,0.0,0.0,0.0,0.0,0.0,0.0,0.0,0.0,0.0,0.0,0.0,0.0,0.0,0.0,0.0,-1.3794,-1.4956,-1.4997,-1.5797,-1.5854,-1.461,-1.3987,-1.2831,-1.0899,-1.0062,0.0,0.0,0.0,0.0,0.0,0.0,0.0,0.0,0.0,0.0,0.0,0.0,0.0,0.0,0.0,0.0,0.0,0.0,0.0,0.0,0.0,0.0,0.0,0.0,0.0,0.0,0.0,0.0,0.0,0.0,0.0,0.0,0.0,0.0,0.0,0.0,0.0,0.0,0.0,0.0,0.0,0.0,0.0,0.0,0.0,0.0,0.0,0.0,0.0,0.0,0.0,0.0,0.0,0.0,0.0,0.0,0.0,0.0,0.0,0.0,0.0,0.0,0.0,0.0,0.0,0.0,0.0,0.0,0.0,0.0,0.0,0.0,0.0,0.0,0.0,0.0,0.0,0.0,0.0,0.0,0.0,0.0,0.0,0.0,0.0,0.0,0.0,0.0,0.0,0.0,0.0,0.0,0.0,0.0,0.0,0.0,0.0,0.0,0.0,0.0,0.0,0.0,-1.4023,-1.5124,-1.5423,-1.6018,-1.6087,-1.5284,-1.4566,-1.3481,-1.1914,0.0,0.0,0.0,0.0,0.0,0.0,0.0,0.0,0.0,0.0,0.0,0.0,0.0,0.0,0.0,0.0,0.0,0.0,0.0,0.0,0.0,0.0,0.0,0.0,0.0,0.0,0.0,0.0,0.0,0.0,0.0,0.0,0.0,0.0,0.0,0.0,0.0,0.0,0.0,0.0,0.0,0.0,0.0,0.0,0.0,0.0,0.0,0.0,0.0,0.0,0.0,0.0,0.0,0.0,0.0,0.0,0.0,0.0,0.0,0.0,0.0,0.0,0.0,0.0,0.0,0.0,0.0,0.0,0.0,0.0,0.0,0.0,0.0,0.0,0.0,0.0,0.0,0.0,0.0,0.0,0.0,0.0,0.0,0.0,0.0,0.0,0.0,0.0,0.0,0.0,0.0,0.0,0.0,0.0,0.0,0.0,0.0,0.0,0.0,0.0,0.0,0.0,-1.3193,-1.4609,-1.562,-1.5952,-1.624,-1.6237,-1.5801,-1.4763,-1.3606,-1.2353,0.0,0.0,0.0,0.0,0.0,0.0,0.0,0.0,0.0,0.0,0.0,0.0,0.0,0.0,0.0,0.0,0.0,0.0,0.0,0.0,0.0,0.0,0.0,0.0,0.0,0.0,0.0,0.0,0.0,0.0,0.0,0.0,0.0,0.0,0.0,0.0,0.0,0.0,0.0,0.0,0.0,0.0,0.0,0.0,0.0,0.0,0.0,0.0,0.0,0.0,0.0,0.0,0.0,0.0,0.0,0.0,0.0,0.0,0.0,0.0,0.0,0.0,0.0,0.0,0.0,0.0,0.0,0.0,0.0,0.0,0.0,0.0,0.0,0.0,0.0,0.0,0.0,0.0,0.0,0.0,0.0,0.0,0.0,0.0,0.0,0.0,0.0,0.0,0.0,0.0,0.0,0.0,0.0,0.0,0.0,0.0,0.0,0.0,0.0,0.0,0.0,0.0,-1.413,-1.5601,-1.6602,-1.6602,-1.6558,-1.6354,-1.5935,-1.4493,-1.3099,0.0,0.0,0.0,0.0,0.0,0.0,0.0,0.0,0.0,0.0,0.0,0.0,0.0,0.0,0.0,0.0,0.0,0.0,0.0,0.0,0.0,0.0,0.0,0.0,0.0,0.0,0.0,0.0,0.0,0.0,0.0,0.0,0.0,0.0,0.0,0.0,0.0,0.0,0.0,0.0,0.0,0.0,0.0,0.0,0.0,0.0,0.0,0.0,0.0,0.0,0.0,0.0,0.0,0.0,0.0,0.0,0.0,0.0,0.0,0.0,0.0,0.0,0.0,0.0,0.0,0.0,0.0,0.0,0.0,0.0,0.0,0.0,0.0,0.0,0.0,0.0,0.0,0.0,0.0,0.0,0.0,0.0,0.0,0.0,0.0,0.0,0.0,0.0,0.0,0.0,0.0,0.0,0.0,0.0,0.0,0.0,0.0,0.0,0.0,0.0,0.0,0.0,0.0,-1.4559,-1.6099,-1.7083,-1.7083,-1.7074,-1.6882,-1.6434,-1.5288,-1.3889,-1.2272,0.0,0.0,0.0,0.0,0.0,0.0,0.0,0.0,0.0,0.0,0.0,0.0,0.0,0.0,0.0,0.0,0.0,0.0,0.0,0.0,0.0,0.0,0.0,0.0,0.0,0.0,0.0,0.0,0.0,0.0,0.0,0.0,0.0,0.0,0.0,0.0,0.0,0.0,0.0,0.0,0.0,0.0,0.0,0.0,0.0,0.0,0.0,0.0,0.0,0.0,0.0,0.0,0.0,0.0,0.0,0.0,0.0,0.0,0.0,0.0,0.0,0.0,0.0,0.0,0.0,0.0,0.0,0.0,0.0,0.0,0.0,0.0,0.0,0.0,0.0,0.0,0.0,0.0,0.0,0.0,0.0,0.0,0.0,0.0,0.0,0.0,0.0,0.0,0.0,0.0,0.0,0.0,0.0,0.0,0.0,0.0,0.0,0.0,0.0,0.0,0.0,0.0,-1.4745,-1.6512,-1.7666,-1.7666,-1.7503,-1.7275,-1.6984,-1.5778,-1.4338,-1.2683,0.0,0.0,0.0,0.0,0.0,0.0,0.0,0.0,0.0,0.0,0.0,0.0,0.0,0.0,0.0,0.0,0.0,0.0,0.0,0.0,0.0,0.0,0.0,0.0,0.0,0.0,0.0,0.0,0.0,0.0,0.0,0.0,0.0,0.0,0.0,0.0,0.0,0.0,0.0,0.0,0.0,0.0,0.0,0.0,0.0,0.0,0.0,0.0,0.0,0.0,0.0,0.0,0.0,0.0,0.0,0.0,0.0,0.0,0.0,0.0,0.0,0.0,0.0,0.0,0.0,0.0,0.0,0.0,0.0,0.0,0.0,0.0,0.0,0.0,0.0,0.0,0.0,0.0,0.0,0.0,0.0,0.0,0.0,0.0,0.0,0.0,0.0,0.0,0.0,0.0,0.0,0.0,0.0,0.0,0.0,0.0,0.0,0.0,0.0,0.0,0.0,0.0,-1.4821,-1.6848,-1.8229,-1.8279,-1.7896,-1.763,-1.7581,-1.615,-1.4651,-1.3205,0.0,0.0,0.0,0.0,0.0,0.0,0.0,0.0,0.0,0.0,0.0,0.0,0.0,0.0,0.0,0.0,0.0,0.0,0.0,0.0,0.0,0.0,0.0,0.0,0.0,0.0,0.0,0.0,0.0,0.0,0.0,0.0,0.0,0.0,0.0,0.0,0.0,0.0,0.0,0.0,0.0,0.0,0.0,0.0,0.0,0.0,0.0,0.0,0.0,0.0,0.0,0.0,0.0,0.0,0.0,0.0,0.0,0.0,0.0,0.0,-1.4541,-1.3788,0.0,0.0,0.0,0.0,0.0,0.0,0.0,0.0,0.0,0.0,0.0,0.0,0.0,0.0,0.0,0.0,0.0,0.0,0.0,0.0,0.0,0.0,0.0,0.0,0.0,0.0,0.0,0.0,0.0,0.0,0.0,0.0,0.0,0.0,0.0,0.0,0.0,0.0,0.0,0.0,-1.5419,-1.7087,-1.8367,-1.8782,-1.8746,-1.8498,-1.8086,-1.6962,-1.5656,-1.4201,-1.291,0.0,0.0,0.0,0.0,0.0,0.0,0.0,0.0,0.0,0.0,0.0,0.0,0.0,0.0,0.0,0.0,0.0,0.0,0.0,0.0,0.0,0.0,0.0,0.0,0.0,0.0,0.0,0.0,0.0,0.0,0.0,0.0,0.0,0.0,0.0,0.0,0.0,0.0,0.0,0.0,0.0,0.0,0.0,0.0,0.0,0.0,0.0,0.0,0.0,0.0,0.0,0.0,0.0,0.0,0.0,0.0,0.0,0.0,0.0,-1.5964,-1.5246,0.0,0.0,0.0,0.0,0.0,0.0,0.0,0.0,0.0,0.0,0.0,0.0,0.0,0.0,0.0,0.0,0.0,0.0,0.0,0.0,0.0,0.0,0.0,0.0,0.0,0.0,0.0,0.0,0.0,0.0,0.0,0.0,0.0,0.0,0.0,0.0,0.0,0.0,0.0,0.0,-1.6586,-1.7803,-1.8725,-1.9311,-1.9143,-1.8782,-1.8254,-1.7446,-1.634,-1.4825,-1.4022,0.0,0.0,0.0,0.0,0.0,0.0,0.0,0.0,0.0,0.0,0.0,0.0,0.0,0.0,0.0,0.0,0.0,0.0,0.0,0.0,0.0,0.0,0.0,0.0,0.0,0.0,0.0,0.0,0.0,0.0,0.0,0.0,0.0,0.0,0.0,0.0,0.0,0.0,0.0,0.0,0.0,0.0,0.0,0.0,0.0,0.0,0.0,0.0,0.0,0.0,0.0,0.0,0.0,-1.7915,-1.8267,-1.9186,-1.9351,-1.9388,-1.9243,-1.7618,-1.6984,-1.698,-1.5919,0.0,0.0,0.0,0.0,0.0,0.0,0.0,0.0,0.0,0.0,0.0,0.0,0.0,0.0,0.0,0.0,0.0,0.0,0.0,0.0,0.0,0.0,-1.9783,-1.8655,-1.9584,-2.0272,-1.8624,0.0,0.0,0.0,0.0,0.0,0.0,0.0,0.0,0.0,0.0,0.0,-1.7831,-1.853,-1.9089,-1.985,-1.9467,-1.887,-1.8254,-1.779,-1.6903,-1.5444,-1.5252,-1.443,0.0,0.0,0.0,0.0,0.0,0.0,0.0,0.0,0.0,0.0,0.0,0.0,0.0,0.0,0.0,0.0,0.0,0.0,0.0,0.0,0.0,0.0,0.0,0.0,0.0,0.0,0.0,0.0,0.0,0.0,0.0,0.0,-1.2703,-1.3948,0.0,0.0,0.0,0.0,0.0,0.0,0.0,0.0,0.0,0.0,0.0,0.0,0.0,-1.8776,-1.9523,-2.0623,-2.1257,-2.1402,-2.1854,-2.2153,-2.2301,-2.2343,-2.2157,-2.1806,-2.1544,0.0,-1.8416,-1.8268,0.0,0.0,0.0,0.0,0.0,0.0,0.0,0.0,0.0,0.0,0.0,0.0,0.0,0.0,0.0,0.0,0.0,0.0,0.0,0.0,0.0,0.0,-2.138,-2.1216,-2.1361,-2.1446,-2.106,-1.9461,-1.756,-1.5682,-1.5711,-1.5608,0.0,0.0,0.0,0.0,0.0,0.0,-1.8481,-1.876,-1.9246,-2.0363,-2.0003,-1.9296,-1.8292,-1.8141,-1.7591,-1.6386,-1.5894,-1.5178,-1.4155,-1.3161,0.0,0.0,0.0,0.0,0.0,0.0,0.0,0.0,0.0,0.0,0.0,0.0,0.0,0.0,0.0,0.0,0.0,0.0,0.0,0.0,0.0,0.0,0.0,0.0,0.0,0.0,0.0,0.0,0.0,-1.2734,-1.3951,-1.4529,-1.4688,-1.4576,0.0,0.0,0.0,0.0,0.0,0.0,0.0,0.0,0.0,-2.0659,-2.0806,-2.1424,-2.257,-2.2943,-2.3628,-2.4632,-2.4681,-2.5013,-2.5587,-2.5353,-2.5171,-2.5006,-2.5006,-2.4174,-2.2695,-2.0664,-1.9477,-1.8879,0.0,0.0,0.0,0.0,-1.833,-1.8135,-1.9166,-1.9268,-1.8922,-1.8852,0.0,0.0,0.0,0.0,0.0,0.0,0.0,-1.9405,-2.0094,-2.1515,-2.2682,-2.2343,-2.2733,-2.2933,-2.2114,-2.1145,-1.987,-1.7998,-1.7543,-1.7027,-1.5739,-1.5461,0.0,0.0,0.0,-1.8251,-2.033,-2.0346,-2.0502,-2.1397,-2.1017,-2.0257,-1.9188,-1.8827,-1.8185,-1.7071,-1.6471,-1.5844,-1.5154,-1.4213,-1.3156,0.0,0.0,0.0,0.0,0.0,0.0,0.0,0.0,0.0,0.0,0.0,0.0,0.0,0.0,0.0,0.0,0.0,0.0,0.0,0.0,0.0,0.0,0.0,0.0,0.0,0.0,0.0,0.0,-1.3966,-1.5195,-1.5561,-1.6076,-1.6136,0.0,0.0,0.0,0.0,0.0,0.0,-2.0362,-2.0661,-2.1697,-2.3686,-2.3687,-2.4272,-2.5564,-2.5273,-2.5791,-2.713,-2.6823,-2.7114,-2.7874,-2.757,-2.7363,-2.7259,-2.7259,-2.6914,-2.6107,-2.313,-2.1801,-2.1571,-2.0944,-2.0711,-2.0771,-2.1261,-2.1126,-2.0827,-2.1844,-2.1859,-2.1376,-2.1066,-2.0722,-2.0322,-1.948,0.0,0.0,0.0,0.0,-2.1066,-2.157,-2.2906,-2.3999,-2.3556,-2.4045,-2.4354,-2.3363,-2.2966,-2.2199,-2.0138,-1.9301,-1.8579,-1.7534,-1.6934,0.0,-1.8538,-1.8717,-1.9493,-2.1699,-2.1532,-2.1468,-2.2137,-2.1718,-2.1018,-2.0086,-1.9479,-1.8695,-1.7635,-1.6997,-1.6439,-1.5919,-1.5146,-1.43,-1.3355,0.0,0.0,0.0,0.0,0.0,0.0,0.0,0.0,0.0,0.0,0.0,0.0,0.0,0.0,0.0,0.0,0.0,0.0,0.0,0.0,0.0,0.0,0.0,0.0,0.0,0.0,0.0,0.0,0.0,-1.8149,-1.8335,0.0,0.0,0.0,0.0,-1.9323,-2.0081,-2.1154,-2.2642,-2.405,-2.5176,-2.6003,-2.67,-2.7429,-2.8207,-2.8188,-2.8221,-2.8323,-2.8288,-2.8321,-2.8354,-2.8334,-2.8086,-2.7656,-2.7656,-2.7435,-2.6957,-2.5699,-2.4796,-2.4158,-2.3628,-2.34,-2.3415,-2.3445,-2.343,-2.3415,-2.3475,-2.3475,-2.355,-2.4156,-2.355,-2.2643,-2.3146,-2.2458,0.0,0.0,-2.3827,-2.4365,-2.441,-2.4948,-2.5495,-2.5465,-2.5486,-2.5516,-2.5457,-2.5239,-2.4223,-2.1457,-2.0872,-2.0674,-2.0016,0.0,-1.9899,-1.9986,-2.0001,-2.0494,-2.183,-2.1532,-2.1468,-2.2137,-2.1718,-2.1162,-2.0605,-1.9958,-1.915,-1.8135,-1.7499,-1.6955,-1.6484,-1.5923,-1.5359,-1.4821,-1.3447,0.0,0.0,0.0,0.0,0.0,0.0,0.0,0.0,0.0,0.0,0.0,0.0,0.0,0.0,0.0,0.0,0.0,0.0,0.0,0.0,0.0,0.0,0.0,0.0,0.0,0.0,0.0,0.0,-1.9793,-2.0323,0.0,-2.0287,-2.0702,-2.1185,-2.1698,-2.2857,-2.3967,-2.4978,-2.5955,-2.6851,-2.7578,-2.7879,-2.8343,-2.9036,-2.9036,-2.9284,-2.9748,-2.9748,-2.9748,-2.9748,-2.9748,-2.9666,-2.949,-2.949,-2.9407,-2.9223,-2.8522,-2.7396,-2.6115,-2.593,-2.5845,-2.5817,-2.5507,-2.5397,-2.5353,-2.501,-2.4896,-2.4866,-2.4664,-2.4291,-2.3947,-2.4171,-2.3917,-2.3738,-2.4642,-2.5076,-2.5232,-2.5232,-2.5749,-2.6138,-2.5704,-2.5857,-2.5988,-2.5571,-2.5364,-2.4932,-2.3844,-2.2869,-2.1895,-2.0857,-2.0669,-2.0669,-2.0669,-2.1046,-2.1627,-2.2475,-2.2406,-2.2403,-2.2632,-2.2486,-2.2179,-2.1653,-2.0698,-1.9808,-1.9104,-1.8141,-1.7516,-1.7338,-1.714,-1.6798,-1.6254,-1.5755,-1.4599,0.0,0.0,0.0,0.0,0.0,0.0,0.0,0.0,0.0,0.0,0.0,0.0,0.0,0.0,0.0,0.0,0.0,0.0,0.0,0.0,0.0,0.0,0.0,0.0,0.0,-1.8566,-2.0188,-2.0969,-2.2032,-2.2562,-2.221,-2.3164,-2.3863,-2.4,-2.5143,-2.6154,-2.6899,-2.7611,-2.8243,-2.8704,-2.8969,-2.9317,-2.9761,-3.0009,-3.039,-3.087,-3.1101,-3.1255,-3.1255,-3.1255,-3.1255,-3.1255,-3.1255,-3.1255,-3.1234,-3.0915,-3.0065,-2.8914,-2.8086,-2.7765,-2.7737,-2.7442,-2.7307,-2.7262,-2.6903,-2.6787,-2.6711,-2.6268,-2.5978,-2.5825,-2.6054,-2.5962,-2.5932,-2.6589,-2.6787,-2.6787,-2.6787,-2.6981,-2.7049,-2.6611,-2.666,-2.6698,-2.6227,-2.6055,-2.5913,-2.5546,-2.4478,-2.3356,-2.2439,-2.2106,-2.1975,-2.1975,-2.2164,-2.2446,-2.2844,-2.2888,-2.2888,-2.2888,-2.2888,-2.2688,-2.2178,-2.1197,-2.0295,-1.958,-1.8577,-1.7968,-1.7808,-1.7787,-1.7631,-1.7277,-1.6722,-1.5752,-1.4363,0.0,0.0,0.0,0.0,0.0,0.0,0.0,0.0,0.0,0.0,0.0,0.0,0.0,0.0,0.0,0.0,0.0,0.0,0.0,0.0,0.0,0.0,0.0,-1.9747,-2.0307,-2.1083,-2.1827,-2.3495,-2.4162,-2.3152,-2.4672,-2.5865,-2.6256,-2.6969,-2.7699,-2.8412,-2.9069,-2.943,-2.9463,-3.0158,-3.0555,-3.0572,-3.1283,-3.1631,-3.1648,-3.2348,-3.2702,-3.2702,-3.2702,-3.2702,-3.2702,-3.2702,-3.2702,-3.2702,-3.2702,-3.2702,-3.248,-3.0122,-2.9206,-2.9206,-2.9199,-2.9176,-2.916,-2.916,-2.916,-2.916,-2.916,-2.874,-2.8313,-2.897,-2.8709,-2.8297,-2.8955,-2.9113,-2.9097,-2.9097,-2.8709,-2.8312,-2.8312,-2.7978,-2.765,-2.765,-2.7524,-2.7234,-2.6431,-2.5698,-2.5135,-2.4849,-2.4326,-2.392,-2.392,-2.336,0.0,-2.2917,-2.2902,-2.2888,-2.2925,-2.2925,-2.2678,-2.2077,-2.1394,-2.0563,-1.9506,-1.8852,-1.8305,-1.7848,-1.7828,-1.7828,-1.7828,-1.6218,-1.5356,-1.5315,0.0,0.0,0.0,0.0,0.0,0.0,0.0,0.0,0.0,0.0,0.0,0.0,0.0,0.0,0.0,0.0,0.0,0.0,0.0,0.0,0.0,-2.0123,-2.1178,-2.0746,-2.2036,-2.3402,-2.4419,-2.5506,-2.6234,-2.6421,-2.7657,-2.8357,-2.8175,-2.8846,-2.9349,-2.9551,-2.9976,-3.0439,-3.0986,-3.1184,-3.1548,-3.2083,-3.2299,-3.2398,-3.2398,-3.2597,-3.2702,-3.2702,-3.2702,-3.2702,-3.2702,-3.2702,-3.2702,-3.2702,-3.2702,-3.2702,-3.2646,-3.1966,-3.1712,-3.1667,-3.1341,-3.0974,-3.0608,-3.0608,-3.0608,-3.0608,-3.0608,-3.0505,-3.0378,-3.0568,-3.0157,-2.9666,-2.9848,-2.9516,-2.9097,-2.9097,-2.8982,-2.8873,-2.8873,-2.8772,-2.8677,-2.8677,-2.8654,-2.8512,-2.8097,-2.7864,-2.7087,-2.5126,-2.4665,-2.4563,-2.4617,-2.4051,-2.363,-2.363,-2.32,-2.2947,-2.3037,-2.306,-2.2965,-2.2812,-2.1783,-2.0991,-2.0577,-1.9541,-1.8879,-1.8745,-1.8745,-1.8745,-1.8745,-1.7565,-1.6599,0.0,0.0,0.0,0.0,0.0,0.0,0.0,0.0,0.0,0.0,0.0,0.0,0.0,0.0,0.0,0.0,0.0,0.0,0.0,0.0,0.0,0.0,-2.2647,-2.3953,-2.3871,-2.4715,-2.5558,-2.6223,-2.7392,-2.825,-2.8493,-2.9523,-3.0023,-2.9639,-3.061,-3.1208,-3.1208,-3.1726,-3.2113,-3.2352,-3.2352,-3.2484,-3.2702,-3.3017,-3.3166,-3.3143,-3.3458,-3.3607,-3.3607,-3.3607,-3.3607,-3.3607,-3.3607,-3.3607,-3.3607,-3.3607,-3.3607,-3.3557,0.0,0.0,0.0,0.0,-3.2094,-3.1828,-3.1828,-3.1828,-3.1828,-3.1828,-3.1828,-3.1828,-3.1828,-3.1553,-3.1246,-3.1246,-3.0706,-3.0135,-3.0135,-2.9775,-2.9393,-2.9393,-2.9234,-2.9097,-2.9097,-2.9097,-2.9028,-2.8818,-2.8748,0.0,-2.6609,-2.5903,-2.5521,-2.5393,-2.4728,-2.4196,-2.392,-2.3572,-2.3238,-2.3044,-2.3015,-2.2898,-2.2659,-2.1966,0.0,0.0,0.0,-1.9391,-1.9116,-1.9101,0.0,0.0,0.0,0.0,0.0,-1.7245,0.0,0.0,-1.5972,-1.5719,0.0,0.0,0.0,0.0,0.0,0.0,0.0,0.0,0.0,0.0,0.0,0.0,0.0,0.0,0.0,0.0,-2.5324,-2.7561,-2.7959,-2.7899,-2.7747,-2.7613,-2.9103,-3.0009,-2.9711,-3.0658,-3.1198,-3.0958,-3.2186,-3.3017,-3.3104,-3.3742,0.0,0.0,0.0,-3.344,-3.309,-3.3739,-3.4066,-3.4014,-3.4662,-3.4954,-3.4899,-3.4899,-3.4899,-3.4899,-3.4899,-3.4899,-3.4899,-3.4899,-3.4899,-3.4767,-3.3464,-3.2967,-3.2967,-3.2967,-3.2967,-3.2967,-3.2967,0.0,0.0,-3.2967,-3.2967,-3.2967,-3.2967,-3.2901,-3.2834,-3.2834,-3.2299,-3.1714,-3.1714,-3.0937,-3.0124,-3.0124,-2.9749,-2.9384,-2.9384,-2.9321,-2.9212,-2.909,-2.8982,-2.8826,-2.8654,-2.7573,-2.6637,-2.6322,-2.5565,-2.4863,-2.4388,-2.4197,-2.3844,-2.3206,-2.3067,0.0,-2.2171,-2.2055,-2.1532,-2.0378,-2.0175,-1.9827,-1.9232,-1.9145,-1.9101,-1.912,-1.9101,-1.9101,-1.912,-1.9101,-1.9101,-1.9043,-1.6601,-1.6202,0.0,0.0,0.0,0.0,0.0,0.0,0.0,0.0,0.0,0.0,0.0,0.0,0.0,0.0,0.0,-2.5398,-2.7065,-2.8482,-2.9784,-3.048,-3.0517,-2.9583,-3.0369,-3.0914,-3.0796,-3.1848,-3.2657,-3.2932,-3.3212,-3.3667,-3.4334,-3.4173,-3.4323,-3.484,-3.484,-3.5053,-3.5531,-3.5647,-3.5577,-3.5256,-3.5408,0.0,-3.4899,-3.4899,-3.4899,-3.4899,-3.4899,-3.4899,-3.4899,-3.4899,-3.4899,-3.4866,-3.4584,-3.4468,-3.4468,-3.4468,-3.4468,-3.4468,-3.4468,-3.4468,-3.4468,-3.4468,-3.4468,-3.4468,-3.4468,-3.4054,0.0,-3.3597,-3.3044,-3.2481,-3.2481,-3.2321,-3.2139,-3.2139,-3.1622,-3.1106,-3.1106,-3.0647,-3.0215,-3.0146,-3.0087,-2.9935,-2.9461,-2.8324,-2.7608,-2.795,-2.7178,-2.6669,-2.6933,-2.5918,-2.5037,-2.4647,-2.4011,-2.3428,-2.2929,-2.2425,-2.201,-2.1641,-2.0669,-2.0045,-1.9914,-1.9391,-1.9139,-1.9265,-1.9157,-1.9139,-1.9265,-1.9139,-1.9101,-1.9087,-1.8542,-1.8473,0.0,0.0,0.0,0.0,0.0,0.0,0.0,0.0,0.0,0.0,0.0,-2.0761,-2.3239,0.0,-2.578,-2.7737,-2.9119,-3.0225,-3.0993,-3.1778,-3.1945,-3.0973,-3.1558,-3.2196,-3.257,-3.3143,-3.3746,-3.4305,-3.473,-3.5119,-3.5545,-3.5752,-3.5913,-3.6046,-3.6043,-3.6096,-3.6194,-3.6194,-3.6105,-3.5907,-3.5705,-3.5476,-3.5241,-3.5001,-3.4899,-3.4899,-3.4899,-3.4899,-3.4899,-3.4899,-3.4899,-3.4899,-3.4899,-3.4899,-3.4899,-3.4899,-3.4899,-3.4899,-3.4899,-3.4899,-3.4899,-3.4899,-3.4899,-3.4899,-3.4899,-3.4634,-3.4336,-3.4336,-3.3806,-3.3265,-3.3265,-3.2984,-3.2702,-3.2702,-3.2415,-3.2067,-3.1681,-3.1317,-3.0915,-3.053,-3.0422,-3.0316,-3.0044,-2.9241,-2.8662,-2.8716,-2.8217,-2.7798,-2.7701,-2.7076,-2.6259,-2.5355,-2.4879,-2.4408,-2.3803,-2.2975,-2.2471,-2.2393,-2.124,-2.0653,-2.0892,-2.0611,-2.059,-2.0909,-2.0666,-2.0552,-2.0552,-2.0279,-2.0118,-2.0045,-2.0045,-1.9885,0.0,0.0,0.0,0.0,0.0,0.0,0.0,-1.988,-2.062,-2.159,-2.2412,-2.3649,-2.5852,-2.7446,-2.8731,-2.969,-3.0886,-3.1742,-3.1903,-3.2489,-3.2668,-3.2025,-3.2507,-3.3221,-3.4026,-3.4115,-3.4455,-3.5382,-3.6024,-3.647,-3.6613,-3.7256,-3.743,-3.7054,-3.7034,-3.686,-3.6481,-3.6481,-3.644,-3.6336,-3.6015,-3.5798,-3.5705,-3.5241,-3.5048,-3.5024,-3.4947,-3.4899,-3.4899,-3.4899,-3.4899,-3.4899,-3.4899,-3.4899,-3.4899,-3.4899,-3.4899,-3.4899,-3.4899,-3.4899,-3.4899,-3.4899,-3.4899,-3.4899,-3.4899,-3.4899,-3.4899,-3.4899,-3.4468,-3.4005,-3.4005,-3.3557,-3.3133,-3.3133,-3.3033,-3.2746,-3.2166,-3.1797,-3.1416,-3.0837,-3.0563,-3.0422,-3.0422,-3.0065,-2.9655,-2.925,-2.9028,-2.8761,-2.8297,-2.8107,-2.7513,-2.6219,-2.5926,-2.5498,-2.4673,-2.3708,-2.3143,-2.3102,-2.2097,-2.1674,-2.2028,-2.1994,-2.2148,-2.2561,-2.2262,-2.2053,-2.1941,-2.162,-2.1395,-2.1274,-2.1274,-2.0909,-1.9087,-1.9628,-2.031,-2.1048,-2.1475,-2.1966,0.0,-2.3484,-2.3962,-2.4739,-2.5539,-2.6466,-2.7709,-2.8659,-2.9744,-3.1207,-3.1581,-3.1954,-3.2668,-3.2846,-3.2864,-3.2775,-3.2846,-3.3221,-3.4026,-3.4115,-3.4704,-3.6167,-3.6345,-3.6702,-3.7434,-3.7559,-3.7577,-3.7522,-3.7522,-3.7503,-3.743,-3.743,-3.7243,-3.6821,-3.6781,-3.6542,-3.6126,-3.5727,-3.5521,-3.5498,-3.5095,-3.4899,-3.4899,-3.4899,-3.4899,-3.4899,-3.4899,-3.4899,-3.4899,-3.4899,-3.4899,-3.4899,-3.4899,-3.4899,-3.4899,-3.4899,-3.4899,-3.4899,-3.4899,-3.4899,-3.4899,-3.4899,-3.4833,-3.4767,-3.4767,-3.4717,-3.4651,-3.4651,-3.4137,-3.364,-3.3557,-3.2508,-3.1581,-3.1499,-3.0952,-3.0506,-3.0506,-3.0426,-3.0363,-3.0253,-2.9919,-2.9783,-3.0147,-2.9568,-2.8865,-2.8223,-2.7461,-2.6572,-2.546,-2.4782,-2.4357,-2.424,-2.365,-2.3313,-2.3301,-2.2779,-2.2601,-2.2762,-2.2619,-2.253,-2.2511,-2.2397,-2.2334,-2.224,-2.224,-2.1767,-2.0872,-2.1708,-2.2435,-2.3217,-2.3814,-2.4329,-2.4852,-2.5428,-2.6091,-2.6872,-2.767,-2.8635,-2.9997,-3.0511,-3.11,-3.2222,-3.2795,-3.3045,-3.2918,-3.3311,-3.3419,-3.2953,-3.29,-3.3382,-3.4633,-3.4723,-3.54,-3.6988,-3.7113,-3.7256,-3.7577,-3.7595,-3.7595,-3.7595,-3.7595,-3.7595,-3.7595,-3.7595,-3.7503,-3.73,-3.7034,-3.6801,-3.6583,-3.6147,-3.5933,-3.5933,-3.5754,-3.5666,-3.5666,-3.5666,-3.5666,-3.5666,-3.5666,-3.5666,-3.5599,-3.5078,-3.4899,-3.4899,-3.4899,-3.4899,-3.4899,-3.4899,-3.4899,-3.4899,-3.4899,-3.4899,-3.4899,-3.4899,-3.4899,-3.4899,-3.4899,-3.4899,-3.4899,-3.4899,-3.4651,-3.4319,-3.3889,-3.2978,-3.2116,-3.1681,-3.1002,-3.0506,-3.0506,-3.0506,-3.0506,-3.0464,-3.0321,-3.0279,-3.0468,-3.022,-2.9733,-2.9041,-2.8274,-2.7421,-2.651,-2.5995,-2.5489,-2.5001,-2.4481,-2.4284,-2.4476,-2.4309,-2.4372,-2.4662,-2.4429,-2.4265,-2.4225,-2.3884,-2.3666,-2.3568,-2.3524,-2.33,-2.2268,-2.3231,-2.4022,-2.4819,-2.5569,-2.6139,-2.6139,-2.6925,-2.7835,-2.841,-2.9319,-3.0386,-3.1492,-3.1867,-3.2222,-3.2811,-3.358,-3.383,-3.3007,-3.358,-3.3794,-3.3007,-3.29,-3.3507,-3.5044,-3.5186,-3.5882,-3.7488,-3.7595,-3.7595,-3.7595,-3.7595,-3.7595,-3.7595,-3.7595,-3.772,-3.7934,-3.7916,-3.8023,-3.8219,-3.79,-3.7727,-3.7708,-3.7268,-3.698,-3.6853,-3.6853,-3.6732,-3.6542,-3.6542,-3.6383,-3.6194,-3.6194,-3.6194,-3.6109,-3.5504,-3.5247,-3.5247,-3.5247,-3.5195,-3.5078,-3.5078,-3.5001,-3.4899,-3.4899,-3.4899,-3.4899,-3.4899,-3.4899,-3.4899,-3.4899,-3.4899,-3.4899,-3.4899,-3.4899,-3.475,-3.422,-3.3531,-3.2779,-3.2067,-3.13,-3.0737,-3.0539,-3.0506,-3.0506,-3.0506,-3.0506,-3.0506,-3.0506,-3.0468,-3.0265,-2.9675,-2.8946,-2.8201,-2.7457,-2.6983,-2.6389,-2.5621,-2.525,-2.5173,-2.5403,-2.5551,-2.5772,-2.6045,-2.5811,-2.5647,-2.5551,-2.5157,-2.4906,-2.4752,-2.4739,-2.4735,-2.3238,-2.404,-2.4837,-2.5586,-2.6371,-2.6955,-2.6955,-2.8191,-2.9333,-2.9369,-3.0564,-3.1635,-3.1689,-3.2347,-3.2864,-3.29,-3.358,-3.383,-3.3007,-3.358,-3.3794,-3.3007,-3.29,-3.3507,-3.5044,-3.5186,-3.5882,-3.7488,-3.7595,-3.7595,-3.7595,-3.7595,-3.7595,-3.7595,-3.7595,-3.7969,-3.8772,-3.8772,-3.9129,-3.9823,-3.9823,-3.9804,-3.9804,-3.9385,-3.8953,-3.8528,-3.8528,-3.8074,-3.7361,-3.7361,-3.6908,-3.6194,-3.6194,-3.6194,-3.6211,-3.6151,-3.6169,-3.6169,-3.6169,-3.5907,-3.5571,-3.5571,-3.5287,-3.4899,-3.4899,-3.4899,-3.4899,-3.4899,-3.4899,-3.4899,-3.4899,-3.4899,-3.4899,-3.4899,-3.4899,-3.4883,-3.4866,-3.4286,-3.3541,-3.2818,-3.2083,-3.1333,-3.0621,-3.0506,-3.0506,-3.0506,-3.0506,-3.0506,-3.0506,-3.0443,-3.0401,-3.0363,-2.97,-2.8971,-2.8231,-2.7621,-2.691,-2.6041,-2.6097,-2.6097,-2.5974,-2.6097,-2.6168,-2.6185,-2.6168,-2.6079,-2.5881,-2.5919,-2.5864,-2.5647,-2.5791,-2.5844,-2.423,-2.5247,-2.6407,-2.7197,-2.8013,-2.8727,-2.9208,-3.0154,-3.0779,-3.0243,-3.0975,-3.1528,-3.1011,-3.1564,-3.2114,-3.2114,-3.3633,-3.4544,-3.3794,-3.4811,-3.515,-3.3847,-3.4133,-3.4633,-3.5151,-3.5186,-3.5882,-3.7488,-3.7595,-3.7595,-3.7595,-3.7595,-3.7845,-3.838,-3.8397,-3.8772,-3.952,-3.952,-3.9645,-3.9895,-3.9895,-3.9895,-3.9895,-3.9757,-3.962,-3.9444,-3.9444,-3.9302,-3.9055,-3.9055,-3.8896,-3.8649,-3.8649,-3.8649,-3.8649,-3.8649,-3.8649,-3.8428,-3.6766,-3.6105,-3.5998,-3.5998,-3.571,-3.5362,-3.5362,-3.5148,-3.4899,-3.4899,-3.4899,-3.4899,-3.4899,-3.4899,-3.4899,-3.4899,-3.4899,-3.4899,-3.4899,-3.4319,-3.3746,-3.3475,-3.2448,-3.1515,-3.1267,-3.082,-3.0506,-3.0506,-3.0506,-3.0506,-3.0506,-3.0485,-3.0464,-3.0464,-3.0249,-2.9782,-2.9075,-2.8817,-2.8174,-2.6945,-2.6899,-2.6682,-2.6148,-2.6168,-2.6202,-2.6202,-2.6202,-2.6168,-2.6096,-2.6026,-2.5956,-2.5901,-2.5899,-2.5844,-2.5788,-2.6889,-2.8049,-2.882,-2.9408,-2.9851,-3.0065,-3.0707,-3.0975,-2.989,-3.0332,-3.0636,-2.9833,-3.0101,-3.0636,-3.1171,-3.3027,-3.4311,-3.4133,-3.5435,-3.5935,-3.465,-3.4901,-3.5311,-3.5614,-3.5632,-3.6185,-3.7506,-3.7595,-3.7738,-3.8005,-3.8023,-3.8397,-3.9163,-3.9181,-3.9556,-4.0305,-4.0342,-4.0485,-4.077,-4.077,-4.077,-4.077,-4.077,-4.077,-4.077,-4.077,-4.0592,-4.0342,-4.0342,-4.0144,-3.9895,-3.9895,-3.9895,-3.9895,-3.9895,-3.9895,-3.9621,-3.776,-3.7021,-3.6846,-3.6547,-3.6169,-3.582,-3.582,-3.5599,-3.5345,-3.5345,-3.5345,-3.5345,-3.5345,-3.5247,-3.5148,-3.5148,-3.5024,-3.4899,-3.4899,-3.4518,-3.4104,-3.3839,-3.3027,-3.221,-3.1697,-3.0986,-3.0506,-3.0506,-3.0506,-3.0506,-3.0506,-3.0506,-3.0506,-3.0506,-3.0506,-3.0191,-2.9446,-2.9397,-2.892,-2.7763,-2.7466,-2.7083,-2.6617,-2.6334,-2.6202,-2.6202,-2.6202,-2.6168,-2.6115,-2.6097,-2.6045,-2.5992,-2.599,-2.6102,-2.7839,-2.8838,-2.9637,-3.0386,-3.055,-3.0386,-2.969,-3.0029,-3.005,-2.8517,-2.8766,-2.903,-2.8231,-2.8178,-2.8731,-3.0225,-3.1885,-3.3293,-3.4062,-3.5489,-3.6167,-3.5347,-3.5329,-3.5685,-3.6381,-3.6524,-3.6899,-3.7666,-3.7684,-3.8005,-3.8826,-3.886,-3.9199,-3.993,-3.9948,-4.036,-4.1145,-4.1163,-4.1538,-4.2308,-4.2308,-4.2308,-4.2308,-4.2308,-4.2308,-4.2308,-4.2308,-4.1859,-4.1163,-4.1163,-4.0717,-4.0019,-4.0019,-4.0019,-4.0019,-4.0019,-4.0019,-3.9912,-3.9163,-3.8594,-3.8066,-3.7255,-3.6693,-3.6305,-3.6253,-3.6215,-3.6194,-3.6194,-3.6194,-3.6194,-3.6194,-3.5929,-3.5616,-3.5594,-3.5264,-3.4923,-3.4899,-3.4899,-3.4684,-3.3988,-3.3822,-3.3326,-3.1846,-3.1019,-3.0539,-3.0506,-3.0506,-3.0506,-3.0506,-3.0506,-3.0506,-3.0506,-3.0506,-3.0208,-2.9512,-2.9446,-2.9168,-2.8492,-2.7796,-2.7381,-2.7348,-2.6684,-2.6301,-2.6301,-2.6301,-2.6232,-2.6076,-2.6232,-2.6232,-2.6076,-2.6232,-2.6684,-2.8834,-2.964,-3.0422,-3.1207,-3.1385,-3.1332,-3.1153,-3.0796,-3.005,-2.8517,-2.7888,-2.7371,-2.6568,-2.7888,-2.9212,-2.9619,-3.2456,-3.4704,-3.4883,-3.6292,-3.6988,-3.6185,-3.7148,-3.7737,-3.7345,-3.8326,-3.9074,-3.9307,-3.8808,-3.8826,-3.9574,-3.9609,-3.9966,-4.077,-4.0788,-4.1181,-4.1984,-4.1984,-4.2091,-4.2308,-4.2308,-4.2308,-4.2308,-4.2308,-4.2308,-4.2308,-4.2308,-4.2183,-4.1984,-4.1984,-4.1859,-4.168,-4.168,-4.168,-4.168,-4.168,-4.168,-4.1573,-4.0788,-4.0032,-3.9313,-3.8567,-3.7994,-3.7513,-3.6898,-3.6481,-3.6194,-3.6194,-3.6194,-3.6194,-3.6194,-3.6109,-3.5955,-3.5683,-3.5521,-3.5333,-3.4994,-3.4899,-3.4833,-3.4651,-3.417,-3.3326,-3.1846,-3.1449,-3.1135,-3.0572,-3.0506,-3.0506,-3.0506,-3.0506,-3.0506,-3.0506,-3.0506,-3.0423,-3.0241,-3.0208,-2.991,-2.9201,-2.8969,-2.8638,-2.8144,-2.7945,-2.7845,-2.7845,-2.7845,-2.7545,-2.698,-2.7545,-2.7545,-2.698,-2.7561,-2.789,-3.019,-3.0975,-3.1653,-3.2114,-3.1956,-3.151,-3.0832,-3.0083,-2.8855,-2.6608,-2.6055,-2.5533,-2.4016,-2.5711,-2.7567,-2.8245,-3.135,-3.4026,-3.5061,-3.6577,-3.7559,-3.7452,-3.8255,-3.8754,-3.8611,-3.9397,-4.0037,-4.0414,-3.9736,-3.9609,-4.0396,-4.0431,-4.0806,-4.1591,-4.1627,-4.1841,-4.2308,-4.2308,-4.2308,-4.2308,-4.2308,-4.2308,-4.2308,-4.2308,-4.2308,-4.2308,-4.2308,-4.2308,-4.2308,-4.2308,-4.2308,-4.2308,-4.2308,-4.2308,-4.2308,-4.2308,-4.2308,-4.2254,-4.177,-4.1324,-4.077,-3.9645,-3.91,-3.8746,-3.7966,-3.7563,-3.7276,-3.6908,-3.6821,-3.6821,-3.6821,-3.6664,-3.646,-3.6211,-3.5885,-3.5543,-3.5247,-3.5048,-3.4899,-3.4899,-3.4286,-3.3524,-3.2713,-3.2028,-3.1466,-3.1052,-3.0704,-3.0506,-3.0506,-3.0506,-3.0506,-3.0506,-3.0506,-3.0506,-3.0506,-3.0506,-3.0323,-2.991,-2.9579,-2.9234,-2.8853,-2.8558,-2.8392,-2.8392,-2.8392,-2.8194,-2.7779,-2.8194,-2.8177,-2.7779,-2.821,-2.8519,-3.1599,-3.2382,-3.29,-3.29,-3.2222,-3.1153,-2.9726,-2.8534,-2.6929,-2.4094,-2.3891,-2.3624,-2.1625,-2.3142,-2.5247,-2.6889,-2.9708,-3.2509,-3.4865,-3.6488,-3.7773,-3.8701,-3.8897,-3.9235,-4.0003,-4.0144,-4.0521,-4.1199,-4.061,-4.0521,-4.1217,-4.1252,-4.1573,-4.229,-4.2308,-4.2308,-4.2308,-4.2308,-4.2308,-4.2308,-4.2308,-4.2308,-4.2308,-4.2308,-4.2308,-4.2308,-4.2308,-4.2308,-4.2308,-4.2308,-4.2308,-4.2308,-4.2308,-4.2308,-4.2308,-4.2308,-4.2308,-4.2308,-4.2308,-4.2308,-4.2037,-4.0556,-4.0055,-3.9912,-3.9163,-3.8878,-3.8665,-3.7951,-3.7684,-3.7595,-3.7595,-3.73,-3.6995,-3.6919,-3.6316,-3.5749,-3.5616,-3.5241,-3.4899,-3.4899,-3.4369,-3.3905,-3.3806,-3.2746,-3.183,-3.1631,-3.1052,-3.0605,-3.0506,-3.0506,-3.0506,-3.0506,-3.0506,-3.0506,-3.0506,-3.0506,-3.0506,-3.0506,-2.9893,-2.9546,-2.9546,-2.8986,-2.8691,-2.8691,-2.8691,-2.8641,-2.8525,-2.8641,-2.8624,-2.8542,-2.8641,-2.8986,-3.2293,-3.2793,-3.29,-3.29,-3.1796,-3.0475,-2.9601,-2.7281,-2.495,-2.3755,-2.2542,-2.1804,-2.2046,-2.3517,-2.5426,-2.7625,-3.0083,-3.2509,-3.4865,-3.6006,-3.7148,-3.8629,-3.9343,-4.0021,-4.0806,-4.1484,-4.193,-4.2073,-4.1948,-4.193,-4.2073,-4.2093,-4.2165,-4.2308,-4.2308,-4.2308,-4.2308,-4.2308,-4.2308,-4.2308,-4.2308,-4.2308,-4.2308,-4.2308,-4.2308,-4.2308,-4.2308,-4.2308,-4.2308,-4.2308,-4.2308,-4.2308,-4.2308,-4.2308,-4.2308,-4.2308,-4.2308,-4.2308,-4.2308,-4.2308,-4.2126,-4.1199,-4.0895,-4.0753,-3.995,-3.927,-3.8753,-3.8629,-3.8112,-3.7595,-3.7595,-3.754,-3.7374,-3.6978,-3.6781,-3.6481,-3.5771,-3.5241,-3.4899,-3.4899,-3.48,-3.4518,-3.3905,-3.3574,-3.3011,-3.178,-3.1499,-3.1184,-3.0572,-3.0506,-3.0506,-3.0506,-3.0506,-3.0506,-3.0506,-3.0506,-3.0506,-3.0506,-3.0373,-3.0307,-3.0307,-3.0191,-3.0125,-3.0125,-3.0125,-2.9827,-2.9234,-2.9827,-2.981,-2.9251,-2.9843,-3.0191,-3.2579,-3.29,-3.2793,-3.2382,-3.1082,-2.9619,-2.8423,-2.605,-2.3719,-2.2489,-2.1643,-2.0965,-2.0555,-2.2464,-2.4433,-2.5574,-2.8071,-3.085,-3.3616,-3.4704,-3.6238,-3.9039,-3.9681,-4.0396,-4.1609,-4.2055,-4.2308,-4.2308,-4.2308,-4.2308,-4.2308,-4.2308,-4.2308,-4.2308,-4.2308,-4.2308,-4.2308,-4.2308,-4.2308,-4.2308,-4.2308,-4.2308,-4.2308,-4.2308,-4.2308,-4.2308,-4.2308,-4.2308,-4.2308,-4.2308,-4.2308,-4.2308,-4.2308,-4.2308,-4.2308,-4.2308,-4.2308,-4.2308,-4.2308,-4.2308,-4.2254,-4.1841,-4.1716,-4.1573,-4.077,-4.0003,-3.9288,-3.8896,-3.8219,-3.7595,-3.7595,-3.7595,-3.754,-3.7319,-3.7073,-3.6721,-3.6062,-3.5732,-3.5509,-3.5293,-3.5247,-3.5078,-3.4466,-3.4038,-3.3557,-3.2862,-3.2078,-3.1466,-3.1118,-3.0737,-3.0506,-3.0506,-3.0506,-3.0506,-3.0506,-3.0506,-3.0506,-3.0506,-3.0506,-3.0506,-3.0506,-3.0506,-3.0506,-3.0506,-3.0506,-3.0323,-2.9959,-3.0323,-3.0307,-2.9976,-3.034,-3.0506,-3.2483,-3.2807,-3.2704,-3.19,-3.0404,-2.878,-2.733,-2.4926,-2.2631,-2.1386,-2.084,-2.0287,-1.9262,-2.109,-2.297,-2.3648,-2.5966,-2.8852,-3.2186,-3.3473,-3.5472,-3.9217,-3.9788,-4.0538,-4.2147,-4.2308,-4.2308,-4.2308,-4.2308,-4.2308,-4.2308,-4.2308,-4.2308,-4.2308,-4.2308,-4.2308,-4.2308,-4.2308,-4.2308,-4.2308,-4.2308,-4.2308,-4.2308,-4.2308,-4.2308,-4.2308,-4.2308,-4.2308,-4.2308,-4.2308,-4.2308,-4.2308,-4.2308,-4.2308,-4.2308,-4.2308,-4.2308,-4.2308,-4.2308,-4.2308,-4.2308,-4.2308,-4.2308,-4.2183,-4.1538,-4.0681,-3.977,-3.9199,-3.8344,-3.7595,-3.7595,-3.7595,-3.7595,-3.7595,-3.7243,-3.6801,-3.644,-3.6256,-3.6105,-3.5798,-3.5749,-3.5571,-3.5125,-3.4565,-3.4093,-3.3846,-3.2812,-3.2012,-3.1846,-3.1317,-3.0903,-3.0754,-3.0588,-3.0506,-3.0506,-3.0506,-3.0506,-3.0506,-3.0506,-3.0506,-3.0506,-3.0506,-3.0506,-3.0506,-3.0506,-3.0506,-3.0506,-3.0506,-3.0506,-3.0506,-3.0506,-3.0506,-3.1807,-3.2486,-3.2704,-3.19,-2.9993,-2.8071,-2.7192,0.0,-2.1297,-2.1202,-2.0039,-1.919,-1.9773,-2.012,-2.1268,-2.4123,-2.539,-2.7388,-3.126,-3.3134,-3.5293,-3.8522,-3.9484,-4.0538,-4.2147,-4.2308,-4.2308,-4.2308,-4.2308,-4.2308,-4.2308,-4.2308,-4.2308,-4.2308,-4.2308,-4.2308,-4.2308,-4.2308,-4.2308,-4.2308,-4.2308,-4.2308,-4.2308,-4.2308,-4.2308,-4.2308,-4.2308,-4.2308,-4.2308,-4.2308,-4.2308,-4.2308,-4.2308,-4.2308,-4.2308,-4.2308,-4.2308,-4.2308,-4.2308,-4.2308,-4.2308,-4.2308,-4.2308,-4.229,-4.2218,-4.1127,-3.9877,-3.9805,-3.8736,-3.7595,-3.7595,-3.7595,-3.7595,-3.7595,-3.7243,-3.688,-3.6841,-3.6501,-3.6172,-3.6147,-3.613,-3.602,-3.5616,-3.5476,-3.5048,-3.3958,-3.3673,-3.3359,-3.2702,-3.2531,-3.2232,-3.1565,-3.0903,-3.0506,-3.0506,-3.0506,-3.0506,-3.0506,-3.0506,-3.0506,-3.0506,-3.0506,-3.0506,-3.0506,-3.0506,-3.0506,-3.0506,-3.0506,-3.0506,-3.0506,-3.0506,-3.0506,-3.1455,-3.2355,-3.2596,-3.1296,-2.9569,-2.7857,-2.6568,-2.3588,-2.1118,-2.1184,-1.9943,-1.8968,-1.9273,-1.9702,-2.072,-2.2903,-2.3909,-2.5627,-2.9087,-3.0564,-3.2777,-3.6863,-3.8041,-3.9504,-4.2058,-4.2308,-4.2308,-4.2308,-4.2308,-4.2308,-4.2308,-4.2308,-4.2308,-4.2308,-4.2308,-4.2308,-4.2308,-4.2308,-4.2308,-4.2308,-4.2308,-4.2308,-4.2308,-4.2308,-4.2308,-4.2308,-4.2308,-4.2308,-4.2308,-4.2308,-4.2308,-4.2308,-4.2308,-4.2308,-4.2308,-4.2308,-4.2308,-4.2308,-4.2308,-4.2308,-4.2308,-4.2308,-4.1966,-4.1573,-4.1573,-4.0788,-3.9805,-3.936,-3.8451,-3.7595,-3.7595,-3.7595,-3.7595,-3.7595,-3.7466,-3.7319,-3.7319,-3.7169,-3.6958,-3.6681,-3.6623,-3.6481,-3.6041,-3.5754,-3.5442,-3.4959,-3.4262,-3.3673,-3.3392,-3.2984,-3.258,-3.2299,-3.1598,-3.0986,-3.0539,-3.0506,-3.0506,-3.0506,-3.0506,-3.0506,-3.0506,-3.0506,-3.0506,-3.0506,-3.0506,-3.0506,-3.0506,-3.0506,-3.0506,-3.0506,-3.0506,-3.0506,-3.0496,-3.1509,-3.1916,-3.0511,-2.9026,-2.7509,-2.6122,-2.3356,-2.1118,-2.1215,-1.998,-1.8887,-1.8905,-1.9505,-2.0434,0.0,-2.2821,-2.4522,-2.7429,-2.8744,-3.0886,-3.4882,-3.6309,-3.8095,-4.0967,-4.1877,-4.2308,-4.2308,-4.2308,-4.2308,-4.2308,-4.2308,-4.2308,-4.2308,-4.2308,-4.2308,-4.2308,-4.2308,-4.2308,-4.2308,-4.2308,-4.2308,-4.2308,-4.2308,-4.2308,-4.2308,-4.2308,-4.2308,-4.2308,-4.2308,-4.2308,-4.2308,-4.2308,-4.2308,-4.2308,-4.2308,-4.2308,-4.2308,-4.2308,-4.2308,-4.2308,-4.2308,-4.1912,-4.1413,-4.1163,-4.0396,-3.9502,-3.9199,-3.8397,-3.7595,-3.7595,-3.7595,-3.7595,-3.7595,-3.7595,-3.7595,-3.7595,-3.7595,-3.7503,-3.7169,-3.7111,-3.6958,-3.6481,-3.6169,-3.5885,-3.5638,-3.488,-3.4289,-3.4127,-3.3657,-3.3282,-3.305,-3.2564,-3.1863,-3.0903,-3.0621,-3.0506,-3.0506,-3.0506,-3.0506,-3.0506,-3.0506,-3.0506,-3.0506,-3.0506,-3.0506,-3.0506,-3.0506,-3.0506,-3.0506,-3.0506,-3.0506,-2.865,-2.9701,-3.051,-2.9633,-2.825,-2.6877,-2.6009,-2.3356,-2.1138,-2.1265,-1.997,-1.8816,-1.8887,-1.9496,-2.0234,-2.0983,-2.2453,-2.4308,-2.6688,-2.8388,-3.0279,-3.265,-3.4412,-3.6325,-3.8611,-4.0931,-4.2308,-4.2308,-4.2308,-4.2308,-4.2308,-4.2308,-4.2308,-4.2308,-4.2308,-4.2308,-4.2308,-4.2308,-4.2308,-4.2308,-4.2308,-4.2308,-4.2308,-4.2308,-4.2308,-4.2308,-4.2308,-4.2308,-4.2308,-4.2308,-4.2308,-4.2308,-4.2308,-4.2308,-4.2308,-4.2308,-4.2308,-4.2308,-4.2308,-4.2308,-4.2308,-4.2308,-4.2308,-4.2147,-4.1341,-4.0039,-3.8968,-3.9681,-3.879,-3.7595,-3.7595,-3.7595,-3.7595,-3.7595,-3.7595,-3.7595,-3.7595,-3.7595,-3.7595,-3.7595,-3.7595,-3.743,-3.6958,-3.688,-3.6583,-3.5727,-3.5594,-3.5413,-3.4954,-3.4883,-3.4601,-3.3856,-3.3773,-3.3176,-3.1714,-3.0919,-3.0506,-3.0506,-3.0506,-3.0506,-3.0506,-3.0506,-3.0506,-3.0506,-3.0506,-3.0506,-3.0506,-3.0506,-3.0506,-3.0506,-3.0506,-3.0506,-2.6584,-2.7908,-2.8779,-2.7321,-2.6581,-2.5861,-2.4522,-2.2607,-2.0985,-2.0565,-1.9614,-1.886,-1.8895,-1.9551,-2.0839,-2.3189,-2.4409,0.0,-2.7553,-2.9637,-3.1666,-3.3552,-3.7649,-4.0591,-4.1264,-4.1996,-4.2405,-4.2308,-4.2308,-4.2308,-4.2308,-4.2308,-4.2308,-4.2308,-4.2308,-4.2308,-4.2308,-4.2308,-4.2308,-4.2308,-4.2308,-4.2308,-4.2308,-4.2308,-4.2308,-4.2308,-4.2308,-4.2308,-4.2308,-4.2308,-4.2308,-4.2308,-4.2308,-4.2308,-4.2308,-4.2308,-4.2308,-4.2308,-4.2308,-4.2308,-4.2308,-4.2308,-4.1933,-4.152,-4.1823,-4.1199,-4.0199,-3.9377,-3.8397,-3.7595,-3.7595,-3.7595,-3.7595,-3.7595,-3.7595,-3.7595,-3.7595,-3.7595,-3.7595,-3.7595,-3.7595,-3.7558,-3.7411,-3.7111,-3.6701,-3.6105,-3.5776,-3.543,-3.4954,-3.4899,-3.48,-3.4568,-3.4087,-3.321,-3.173,-3.1383,-3.1035,-3.0522,-3.0506,-3.0506,-3.0506,-3.0506,-3.0506,-3.0506,-3.0506,-3.0506,-3.0506,-3.0506,-3.0506,-3.0506,-3.0506,-3.0506,-2.4417,-2.59,-2.6802,-2.5296,-2.4956,-2.4641,-2.3379,-2.1843,-2.0569,-2.0217,-1.948,-1.8994,-1.9336,-2.001,-2.1243,-2.3473,-2.448,-2.5617,-2.7496,-2.929,-3.1476,-3.4347,-3.8582,-4.1367,-4.1613,-4.2165,-4.2445,-4.2308,-4.2308,-4.2308,-4.2308,-4.2308,-4.2308,-4.2308,-4.2308,-4.2308,-4.2308,-4.2308,-4.2308,-4.2308,-4.2308,-4.2308,-4.2308,-4.2308,-4.2308,-4.2308,-4.2308,-4.2308,0.0,-4.2308,-4.2308,-4.2308,-4.2308,-4.2308,-4.2308,-4.2308,-4.2308,-4.2308,-4.2308,-4.2308,-4.2308,-4.2308,-4.1948,-4.1591,-4.1787,-4.1288,-4.0396,-3.9165,-3.8219,-3.7595,-3.7595,-3.7595,-3.7595,-3.7595,-3.7595,-3.7595,-3.7595,-3.7595,-3.7595,-3.7595,-3.7595,-3.7595,-3.7595,-3.7355,-3.6939,-3.6316,-3.5977,-3.5616,-3.4977,-3.4899,-3.4899,-3.4899,-3.4485,-3.3723,-3.2547,-3.1912,-3.1515,-3.1355,-3.0803,-3.0621,-3.0903,-3.0638,-3.0506,-3.0506,-3.0506,-3.0506,-3.0506,-3.0506,-3.0506,-3.0506,-3.0506,-3.0638,0.0,-2.3678,-2.4585,-2.3513,-2.3341,-2.3224,-2.2414,-2.1072,0.0,-2.011,-1.9471,-1.9192,-2.0119,-2.079,-2.1537,-2.2507,-2.3338,-2.4629,-2.6866,-2.8183,-3.0632,-3.5289,-3.7933,-3.9643,-4.0308,-4.1686,-4.2465,-4.2308,-4.2308,-4.2308,-4.2308,-4.2308,-4.2308,-4.2308,-4.2308,-4.2308,-4.2308,-4.2308,-4.2308,-4.2308,-4.2308,-4.2308,-4.2308,-4.2308,-4.2308,-4.2308,-4.2308,-4.2308,-4.2308,-4.2308,-4.2308,-4.2308,-4.2308,-4.2308,-4.2308,-4.2308,-4.2308,-4.2308,-4.2308,-4.2308,-4.2308,-4.2308,-4.2308,-4.2144,-4.1341,-4.0556,-3.9734,-3.9022,-3.8219,-3.7595,-3.7595,-3.7595,-3.7595,-3.7595,-3.7595,-3.7595,-3.7595,-3.7595,-3.7595,-3.7595,-3.7595,-3.7595,-3.7595,-3.7595,-3.7281,-3.6399,-3.6215,-3.589,-3.5071,-3.4923,-3.4899,-3.4899,-3.4899,-3.4618,-3.3938,-3.2558,-3.2012,-3.2669,-3.1421,-3.0952,-3.1648,-3.0969,-3.0572,-3.0572,-3.0522,-3.0522,-3.0572,-3.0522,-3.0555,-3.0654,-3.0605,-3.0969,-1.9166,0.0,-2.2111,-2.1076,-2.1294,-2.1545,0.0,-2.0313,-1.9938,-1.9389,-1.9128,-1.9416,-2.0851,-2.1198,-2.2134,-2.4729,-2.5792,-2.6877,-2.8598,-3.2235,-3.5846,-3.8904,-4.089,-4.2046,-4.2187,-4.2509,-4.2645,-4.2483,-4.2445,-4.2405,-4.2308,-4.2308,-4.2308,-4.2308,-4.2308,-4.2308,-4.2308,-4.2308,-4.2308,-4.2308,-4.2308,-4.2308,-4.2308,-4.2308,-4.2308,-4.2308,-4.2308,-4.2308,-4.2308,-4.2308,-4.2308,-4.2308,-4.2308,-4.2308,-4.2308,-4.2308,-4.2308,-4.2308,-4.2308,-4.2308,-4.2308,-4.2308,-4.2308,-4.2144,-4.1341,-4.0556,-3.9734,-3.9022,-3.8219,-3.7595,-3.7595,-3.7595,-3.7595,-3.7595,-3.7595,-3.7595,-3.7595,-3.7595,-3.7595,-3.7595,-3.7595,-3.7595,-3.7595,-3.7595,-3.7393,-3.6821,-3.644,-3.602,-3.5498,-3.5125,-3.4899,-3.4899,-3.4899,-3.4833,-3.4651,-3.3806,-3.311,-3.2735,-3.2365,-3.2249,-3.2431,-3.173,-3.135,-3.135,-3.0787,-3.0787,-3.1333,-3.0787,-3.109,-3.2166,-3.1598,-3.173,-1.7943,-1.9772,-2.1298,-2.0299,-2.0645,-2.104,-2.0261,-1.983,-1.948,-1.9126,-1.9334,-1.9966,-2.1176,-2.1976,-2.3124,-2.5153,-2.644,-2.8115,-3.0739,-3.4988,-3.8473,-4.0148,-4.1848,-4.2862,-4.2803,-4.2745,-4.2647,-4.2503,-4.2445,-4.2366,-4.2308,-4.2308,-4.2308,-4.2308,-4.2308,-4.2308,-4.2308,-4.2308,-4.2308,-4.2308,-4.2308,-4.2308,-4.2308,-4.2308,-4.2308,-4.2308,-4.2308,-4.2308,-4.2308,-4.2308,-4.2308,-4.2308,-4.2308,-4.2308,-4.2308,-4.2308,-4.2308,-4.2308,-4.2308,-4.2308,-4.2308,-4.2308,-4.2308,-4.2144,-4.1341,-4.0556,-3.9734,-3.9022,-3.8219,-3.7595,-3.7595,-3.7595,-3.7595,-3.7595,-3.7595,-3.7595,-3.7595,-3.7595,-3.7595,-3.7595,-3.7595,-3.7595,-3.7595,-3.7595,-3.743,-3.6958,-3.6684,-3.6295,-3.5683,-3.5385,-3.5125,-3.4923,-3.4899,-3.4899,-3.4899,-3.4535,-3.4121,-3.3723,-3.3061,-3.2868,-3.3199,-3.2497,-3.1946,-3.1615,-3.1553,-3.1553,-3.1598,-3.1553,-3.1918,-3.2702,-3.2299,-3.2497,-1.7677,-1.9615,-2.118,-2.0327,-2.0712,-2.1146,-2.0525,0.0,0.0,0.0,0.0,-2.0753,-2.1599,-2.2971,-2.4241,-2.5115,-2.6814,-2.93,-3.2991,-3.6797,-3.9463,-4.0238,-4.1848,-4.2881,-4.2822,-4.2707,-4.2627,-4.2564,-4.2427,-4.2348,-4.2328,-4.2308,-4.2308,-4.2308,-4.2308,-4.2308,-4.2308,-4.2308,-4.2308,-4.2308,-4.2308,-4.2308,-4.2308,-4.2308,-4.2308,-4.2308,-4.2308,-4.2308,-4.2308,-4.2308,-4.2308,-4.2308,-4.2308,-4.2308,-4.2308,-4.2308,-4.2308,-4.2308,-4.2308,-4.2308,-4.2308,-4.2308,-4.2308,-4.2144,-4.1341,-4.0628,-3.993,-3.9163,-3.8308,-3.7595,-3.7595,-3.7595,-3.7595,-3.7595,-3.7595,-3.7595,-3.7595,-3.7595,-3.7595,-3.7595,-3.7595,-3.7595,-3.7595,-3.7595,-3.7485,-3.7073,-3.6939,-3.6623,-3.5885,-3.5749,-3.5521,-3.5071,-3.5001,-3.4994,-3.4899,-3.4899,-3.4899,-3.4899,-3.3746,-3.3282,-3.3773,-3.3216,-3.2514,-3.178,-3.2381,-3.2448,-3.1929,-3.2448,-3.2818,-3.3033,-3.2934,-3.3243,-1.7636,-1.9216,-2.0373,-2.0219,-2.0778,-2.1356,-2.1239,-2.1168,0.0,0.0,0.0,-2.1748,-2.3172,-2.41,-2.5152,-2.6669,-2.9382,-3.2238,-3.4997,-3.7584,-3.9517,-4.0366,-4.1904,-4.29,-4.2881,-4.2881,-4.2824,-4.2745,-4.2629,-4.2528,-4.2465,-4.2366,-4.2308,-4.2308,-4.2308,-4.2308,-4.2308,-4.2308,-4.2308,-4.2308,-4.2308,-4.2308,-4.2308,-4.2308,-4.2308,-4.2308,-4.2308,-4.2308,-4.2308,-4.2308,-4.2308,-4.2308,-4.2308,-4.2308,-4.2308,-4.2308,-4.2308,-4.2308,-4.2308,-4.2308,-4.2308,-4.2308,-4.2308,-4.2144,-4.1341,-4.1002,-4.0753,-3.9948,-3.8701,-3.7595,-3.7595,-3.7595,-3.7595,-3.7595,-3.7595,-3.7595,-3.7595,-3.7595,-3.7595,-3.7595,-3.7595,-3.7595,-3.7595,-3.7595,-3.7594,-3.7503,-3.715,-3.686,-3.6721,-3.6357,-3.5933,-3.5526,-3.5498,-3.5316,-3.4947,-3.4899,-3.4899,-3.4899,-3.4684,-3.4319,-3.3806,-3.3673,-3.3276,-3.2547,-3.2652,-3.2945,-3.3458,-3.2967,-3.3326,-3.4551,-3.3905,-3.4021,-1.6893,-1.8457,-1.9803,-2.0643,-2.1426,-2.2118,-2.2551,-2.2327,-2.2157,0.0,-2.2975,-2.3487,-2.4163,-2.5632,-2.7579,-3.0129,-3.2516,-3.4586,-3.6121,-3.8052,-3.9443,-3.9769,-4.0872,-4.1596,-4.1596,-4.1976,-4.2173,-4.2153,-4.2393,-4.2526,-4.2503,-4.2366,-4.2308,-4.2308,-4.2308,-4.2308,-4.2308,-4.2308,-4.2308,-4.2308,-4.2308,-4.2308,-4.2308,-4.2308,-4.2308,-4.2308,-4.2308,-4.2308,-4.2308,-4.2308,-4.2308,-4.2308,-4.2308,-4.2308,-4.2308,-4.2308,-4.2308,-4.2308,-4.2308,-4.2308,-4.2308,-4.2308,-4.2308,-4.2236,-4.1859,-4.1431,-4.102,-4.0646,-3.945,-3.8255,-3.8255,-3.7934,-3.7595,-3.7595,-3.7595,-3.7595,-3.7595,-3.7595,-3.7595,-3.7595,-3.7595,-3.7595,-3.7595,-3.7595,-3.7595,-3.7595,-3.7411,-3.7186,-3.6919,-3.6704,-3.6419,-3.5955,-3.5912,-3.5842,-3.5621,-3.5391,-3.5171,-3.4923,-3.4899,-3.475,-3.4402,-3.4386,-3.4038,-3.3292,-3.3673,-3.3856,-3.3789,-3.3856,-3.4237,-3.4883,-3.4551,-3.4568,-1.6722,-1.8145,-1.9496,-2.1238,-2.2244,-2.3005,-2.3775,-2.362,-2.353,-2.4284,-2.5075,-2.5572,-2.5309,-2.7294,-3.002,-3.3298,-3.5087,-3.6331,-3.7025,-3.8431,-3.937,-3.9264,-3.9986,-4.0492,-4.0492,-4.0998,-4.1341,-4.1341,-4.1766,-4.2008,-4.2008,-4.187,-4.1774,-4.1774,-4.1754,-4.1734,-4.1734,-4.1912,-4.2111,-4.2308,-4.2308,-4.2308,-4.2308,-4.2308,-4.2308,-4.2308,-4.2308,-4.2308,-4.2308,-4.2308,-4.2308,-4.2308,-4.2308,-4.2308,-4.2308,-4.2308,-4.2308,-4.2308,-4.2308,-4.2308,-4.2308,-4.2308,-4.2308,-4.2308,-4.2308,-4.1859,-4.1377,-4.1377,-4.0253,-3.9056,-3.9056,-3.8326,-3.7648,-3.7845,-3.7738,-3.7595,-3.7595,-3.7595,-3.7595,-3.7595,-3.7595,-3.7595,-3.7595,-3.7595,-3.7595,-3.7595,-3.7595,-3.7467,-3.7111,-3.7073,-3.688,-3.6402,-3.6361,-3.6336,-3.6194,-3.5912,-3.5549,-3.5078,-3.4954,-3.4899,-3.4899,-3.4899,-3.4618,-3.4054,-3.4718,-3.4788,-3.4222,-3.4887,-3.5148,-3.5071,-3.5071,-3.5001,-1.8073,-1.8963,-1.9569,-2.1932,-2.3115,-2.388,-2.4565,-2.5254,-2.5973,-2.6781,-2.7584,-2.7882,-2.7082,-2.8941,-3.1672,-3.4839,-3.6246,-3.7194,-3.7993,-3.8844,-3.9405,-3.9387,-4.0057,-4.0492,-4.0492,-4.0546,-4.0583,-4.0583,-4.0564,-4.0563,-4.0563,-4.0359,-4.0244,-4.0244,-4.0149,-4.0055,-4.0055,-4.0806,-4.1556,-4.2308,-4.2308,-4.2308,-4.2308,-4.2308,-4.2308,-4.2308,-4.2308,-4.2308,-4.2308,-4.2308,-4.2308,-4.2308,-4.2308,-4.2308,-4.2308,-4.2308,-4.2308,-4.2308,-4.2308,-4.2308,-4.2308,-4.2308,-4.2308,-4.2308,-4.2308,-4.2272,-4.2218,-4.2218,-4.1056,-3.9805,-3.9805,-3.8719,-3.7791,-3.854,-3.813,-3.7595,-3.7595,-3.7595,-3.7595,-3.7595,-3.7595,-3.7595,-3.7595,-3.7595,-3.7595,-3.7595,-3.7595,-3.7577,-3.7558,-3.7558,-3.7374,-3.69,-3.686,-3.6664,-3.6253,-3.6172,-3.5977,-3.5571,-3.5125,-3.4899,-3.4899,-3.4899,-3.4866,-3.4816,-3.5299,-3.5532,-3.5481,-3.5895,-3.5912,-3.5549,-3.5549,-3.5333,-1.7012,-1.8655,-2.0092,-2.1499,-2.3484,-2.5296,-2.605,-2.6462,-2.7166,-2.8885,-2.9494,-2.9776,-2.9983,-3.1297,-3.3079,-3.5279,-3.6405,-3.7285,-3.81,-3.8462,-3.8662,-3.8662,-3.8898,-3.9061,-3.9061,-3.9514,-3.9822,-3.9822,-4.0185,-4.0401,-4.0401,-4.0254,-4.0141,-4.0102,-4.0046,-3.9971,-3.9895,-4.0198,-4.0521,-4.0806,-4.1306,-4.1288,-4.0806,-4.0806,-4.1074,-4.1538,-4.1538,-4.1841,-4.2308,-4.2308,-4.2308,-4.2308,-4.2308,-4.2308,-4.2308,-4.2308,-4.2308,-4.2308,-4.2308,-4.2308,-4.2308,-4.2308,-4.2308,-4.2308,-4.2308,-4.1948,-4.1645,-4.2165,-4.1145,-4.0019,-4.0521,-3.9504,-3.854,-3.9288,-3.8915,-3.8344,-3.8344,-3.7951,-3.7595,-3.7595,-3.7595,-3.7595,-3.7595,-3.7595,-3.7595,-3.7595,-3.7595,-3.7595,-3.7595,-3.7595,-3.754,-3.7338,-3.7337,-3.715,-3.6681,-3.6643,-3.644,-3.5998,-3.582,-3.5481,-3.4923,-3.5413,-3.5577,-3.5339,-3.5754,-3.5977,-3.5977,-3.6126,-3.6126,-3.5977,-3.5977,-3.5868,-1.7012,-1.8989,-2.0851,-2.1878,-2.3858,-2.599,-2.7512,-2.7843,-2.8478,-3.0793,-3.126,-3.1523,-3.2404,-3.315,-3.4071,-3.5423,-3.6606,-3.7558,-3.8034,-3.8175,-3.8175,-3.8106,-3.8175,-3.8174,-3.814,-3.8681,-3.9024,-3.9024,-3.9444,-3.9716,-3.9716,-3.959,-3.9463,-3.9424,-3.9369,-3.9295,-3.9182,-3.9432,-3.9432,-3.9182,-3.9985,-4.0217,-3.9895,-3.9895,-4.0342,-4.1092,-4.0842,-4.1324,-4.229,-4.2019,-4.2076,-4.2272,-4.2022,-4.2073,-4.2308,-4.2308,-4.2308,-4.2308,-4.2308,-4.2308,-4.2308,-4.2308,-4.2308,-4.2308,-4.2308,-4.1912,-4.1538,-4.1841,-4.1127,-4.0414,-4.0967,-4.0128,-3.9343,-4.0091,-3.9521,-3.8808,-3.8808,-3.8165,-3.7595,-3.7595,-3.7595,-3.7595,-3.7595,-3.7595,-3.7595,-3.7595,-3.7595,-3.7595,-3.7595,-3.7595,-3.7595,-3.7595,-3.7595,-3.7467,-3.715,-3.7111,-3.6919,-3.646,-3.6563,-3.6253,-3.5362,-3.589,-3.6062,-3.5798,-3.6211,-3.6419,-3.6419,-3.6563,-3.6563,-3.6419,-3.6419,-3.6357,-1.866,-2.0264,-2.1856,-2.3339,-2.4309,-2.5733,-2.8801,-2.9447,-3.0065,-3.2436,-3.29,-3.3182,-3.4051,-3.4309,-3.4659,-3.54,-3.7008,-3.8123,-3.7916,-3.8055,-3.8106,-3.7916,-3.809,-3.8157,-3.8001,-3.8122,-3.8209,-3.8209,-3.8209,-3.8209,-3.8209,-3.807,-3.7967,-3.7899,-3.7775,-3.7667,-3.7595,-3.8397,-3.8397,-3.7613,-3.8415,-3.9163,-3.9877,-3.9877,-4.0324,-4.1038,-4.0253,-4.0806,-4.2218,-4.1413,-4.1556,-4.2218,-4.1413,-4.1591,-4.2308,-4.2308,-4.2308,-4.2308,-4.2308,-4.2308,-4.2308,-4.2308,-4.2308,-4.2308,-4.2308,-4.2308,-4.2109,-4.1324,-4.1092,-4.1092,-4.1092,-4.0503,-4.0091,-4.0913,-3.9932,-3.8826,-3.8808,-3.8165,-3.7595,-3.7595,-3.7595,-3.7595,-3.7595,-3.7595,-3.7595,-3.7595,-3.7595,-3.7595,-3.7595,-3.7595,-3.7595,-3.7595,-3.7595,-3.7595,-3.7595,-3.7595,-3.7393,-3.6939,-3.7338,-3.7186,-3.6253,-3.6194,-3.6194,-3.6211,-3.6664,-3.69,-3.69,-3.7374,-3.7374,-3.69,-3.69,-3.6664,-1.8135,-1.9803,-2.1808,-2.3328,-2.5512,-2.7676,-2.9164,-2.9476,-3.0269,-3.3152,-3.3789,-3.4071,-3.4893,-3.515,-3.5499,-3.6292,-3.6949,-3.7489,-3.7912,-3.8019,-3.8036,-3.7984,-3.8019,-3.8088,-3.814,-3.8192,-3.8209,-3.8209,-3.8209,-3.8209,-3.8209,-3.8157,-3.8088,-3.7967,-3.7881,-3.7793,-3.7667,-3.7863,-3.7845,-3.7595,-3.7845,-3.8058,-3.8272,-3.8272,-3.8719,-3.9468,-3.9236,-3.97,-4.0592,-4.036,-4.0735,-4.1431,-4.1199,-4.1591,-4.2308,-4.2308,-4.2308,-4.2216,-4.1645,-4.1448,-4.1448,-4.1448,-4.1448,-4.1556,-4.2126,-4.1895,-4.1413,-4.1163,-4.0699,-4.0271,-4.0271,-4.0092,-4.0091,-4.0913,-4.0324,-3.9431,-3.8896,-3.8165,-3.7595,-3.7595,-3.7595,-3.7595,-3.7595,-3.7595,-3.7595,-3.7595,-3.7595,-3.7595,-3.7595,-3.7595,-3.7595,-3.7595,-3.7595,-3.7595,-3.7595,-3.7595,-3.754,-3.7393,-3.7522,-3.7186,-3.6253,-3.6841,-3.7034,-3.6704,-3.715,-3.7393,-3.7393,-3.754,-3.754,-3.7393,-3.7393,-3.7319,-1.9168,-2.1033,-2.3208,-2.4746,-2.6752,-2.8703,-3.0066,-3.0874,-3.1934,-3.4097,-3.4577,-3.4859,-3.568,-3.5925,-3.6154,-3.669,-3.7116,-3.7528,-3.7913,-3.7984,-3.7966,-3.7897,-3.7933,-3.7985,-3.8072,-3.8106,-3.814,-3.8192,-3.8209,-3.8209,-3.8209,-3.8209,-3.814,-3.8001,-3.7933,-3.7828,-3.7703,-3.7631,-3.7595,-3.7595,-3.7595,-3.7595,-3.7595,-3.7595,-3.8041,-3.8807,-3.9092,-3.9306,-3.9449,-3.9449,-3.9912,-4.0592,-4.0307,-4.0663,-4.1341,-4.1341,-4.1341,-4.127,-4.0788,-4.0628,-4.0628,-4.0628,-4.0628,-4.077,-4.1573,-4.1252,-4.0628,-4.0628,-4.0269,-3.9823,-3.9538,-3.9681,-4.0019,-4.0521,-4.0019,-3.9342,-3.8915,-3.8165,-3.7595,-3.7595,-3.7595,-3.7595,-3.7595,-3.7595,-3.7595,-3.7595,-3.7595,-3.7595,-3.7595,-3.7595,-3.7595,-3.7595,-3.7595,-3.7595,-3.7595,-3.7595,-3.7595,-3.7595,-3.7595,-3.7355,-3.6781,-3.73,-3.7485,-3.7169,-3.7466,-3.7595,-3.7595,-3.7595,-3.7595,-3.7595,-3.7595,-3.7595,-2.0988,-2.3107,-2.5287,-2.6911,-2.8013,-2.9237,-3.1344,-3.2938,-3.4204,-3.4954,-3.5114,-3.5381,-3.6325,-3.6557,-3.6645,-3.6785,-3.7464,-3.7967,-3.7899,-3.7933,-3.7915,-3.7721,-3.7828,-3.7916,-3.7916,-3.7985,-3.8053,-3.8192,-3.8209,-3.8209,-3.8209,-3.8209,-3.8139,-3.8018,-3.7933,-3.7846,-3.7739,-3.7649,-3.7595,-3.7613,-3.7595,-3.7595,-3.7613,-3.7595,-3.7987,-3.8736,-3.9395,-3.9306,-3.8701,-3.8701,-3.9128,-3.9716,-3.9056,-3.9254,-3.9895,-3.9895,-3.9895,-3.9877,-3.9823,-3.9788,-3.9788,-3.9788,-3.9788,-3.9948,-4.0753,-4.0485,-3.9877,-3.9805,-3.9788,-3.9627,-3.8879,-3.92,-3.9681,-3.9681,-3.9217,-3.879,-3.8719,-3.8112,-3.7595,-3.7595,-3.7595,-3.7595,-3.7595,-3.7595,-3.7595,-3.7595,-3.7666,-3.7684,-3.7613,-3.7666,-3.7684,-3.7613,-3.7595,-3.7595,-3.7595,-3.7595,-3.7595,-3.7595,-3.7595,-3.7595,-3.7595,-3.7595,-3.7595,-3.7595,-3.7595,-3.7595,-3.7595,-3.7595,-3.7595,-3.7595,-3.7595,-3.7595,-2.0463,-2.2274,-2.4581,-2.6766,-2.9197,-3.1345,-3.2398,-3.2918,-3.3366,-3.4169,-3.4347,-3.4757,-3.6149,-3.6523,-3.6825,-3.7522,-3.7808,-3.7916,-3.7899,-3.7916,-3.7863,-3.7721,-3.7862,-3.7984,-3.7984,-3.8088,-3.8157,-3.8209,-3.8209,-3.8209,-3.8209,-3.8209,-3.8192,-3.8157,-3.7986,-3.7898,-3.7932,-3.7721,-3.7631,-3.7667,-3.7631,-3.7631,-3.7667,-3.7613,-3.7702,-3.788,-3.8023,-3.7987,-3.7863,-3.7863,-3.8326,-3.9003,-3.886,-3.9254,-3.9895,-3.9895,-3.9895,-3.9805,-3.9235,-3.9039,-3.9039,-3.9039,-3.9039,-3.9163,-3.993,-4.0037,-3.977,-3.9199,-3.9039,-3.8861,-3.8058,-3.7988,-3.8076,-3.8076,-3.8451,-3.8629,-3.7987,-3.772,-3.7595,-3.7595,-3.7595,-3.7595,-3.7595,-3.7595,-3.7595,-3.7595,-3.813,-3.8308,-3.7684,-3.8148,-3.829,-3.7666,-3.7595,-3.7595,-3.7595,-3.7595,-3.7595,-3.7595,-3.7595,-3.7595,-3.7595,-3.7595,-3.7595,-3.7595,-3.7595,-3.7595,-3.7595,-3.7595,-3.7595,-3.7595,-3.7595,-3.7595,-2.0554,-2.2582,-2.5124,-2.8234,-3.0484,-3.2089,-3.2784,-3.2916,-3.3025,-3.3437,-3.383,-3.4454,-3.5614,-3.6202,-3.6665,-3.7183,-3.7577,-3.7828,-3.7881,-3.7846,-3.7775,-3.7703,-3.7792,-3.788,-3.7951,-3.8054,-3.8122,-3.8192,-3.814,-3.8105,-3.8105,-3.8105,-3.8105,-3.8105,-3.8003,-3.7967,-3.8001,-3.7828,-3.7757,-3.781,-3.7757,-3.7757,-3.7792,-3.7703,-3.7631,-3.7595,-3.7595,-3.7595,-3.7595,-3.7595,-3.7863,-3.8219,-3.8219,-3.8451,-3.879,-3.879,-3.879,-3.8736,-3.8362,-3.8219,-3.8219,-3.8219,-3.8219,-3.8362,-3.9147,-3.9111,-3.8808,-3.8808,-3.8522,-3.813,-3.772,-3.7595,-3.7595,-3.7595,-3.7916,-3.8112,-3.7702,-3.7595,-3.7595,-3.7595,-3.7595,-3.772,-3.8112,-3.8469,-3.8701,-3.8701,-3.9075,-3.9182,-3.8754,-3.9075,-3.9182,-3.8754,-3.8701,-3.8701,-3.8701,-3.838,-3.8165,-3.8165,-3.7809,-3.7595,-3.7595,-3.7595,-3.7595,-3.7595,-3.7595,-3.7595,-3.7595,-3.7595,-3.7595,-3.7595,-3.7595,-3.7595,-2.0336,-2.2908,-2.5921,-2.9733,-3.1373,-3.2185,-3.2849,-3.2948,-3.2916,-3.29,-3.3435,-3.4115,-3.4865,-3.556,-3.6095,-3.6343,-3.6987,-3.7542,-3.7666,-3.7721,-3.7721,-3.7721,-3.7775,-3.781,-3.7881,-3.7985,-3.8071,-3.814,-3.8071,-3.8001,-3.8001,-3.8001,-3.8001,-3.8036,-3.8001,-3.8001,-3.8036,-3.7951,-3.7899,-3.7916,-3.7916,-3.7916,-3.7917,-3.7793,-3.7703,-3.7613,-3.7613,-3.7613,-3.7595,-3.7595,-3.7595,-3.7595,-3.7595,-3.7595,-3.7595,-3.7595,-3.7595,-3.7595,-3.7595,-3.7595,-3.7595,-3.7595,-3.7595,-3.772,-3.8397,-3.813,-3.7738,-3.8415,-3.8112,-3.7595,-3.7595,-3.7595,-3.7595,-3.7595,-3.7595,-3.7595,-3.7595,-3.7595,-3.7595,-3.7595,-3.7595,-3.7898,-3.8843,-3.9377,-3.9734,-3.9877,-4.0019,-4.0055,-3.9912,-4.0019,-4.0037,-3.9912,-3.9895,-3.9895,-3.9895,-3.9342,-3.895,-3.8826,-3.8183,-3.7738,-3.7613,-3.7595,-3.7595,-3.7595,-3.7595,-3.7595,-3.7595,-3.7595,-3.7595,-3.7595,-3.7595,-3.7595,-1.8298,-2.1622,-2.5776,-2.9047,-3.0968,-3.2259,-3.2865,-3.2979,-3.2963,-3.2916,-3.2989,-3.3311,-3.4097,-3.4329,-3.4666,-3.543,-3.613,-3.663,-3.6822,-3.745,-3.7881,-3.7881,-3.8021,-3.8072,-3.7916,-3.8055,-3.8106,-3.7951,-3.7985,-3.8001,-3.8001,-3.8001,-3.8053,-3.8157,-3.8053,-3.8053,-3.8174,-3.7986,-3.7916,-3.8002,-3.8002,-3.7968,-3.7899,-3.7881,-3.781,-3.7685,-3.7685,-3.7649,-3.7595,-3.7595,-3.7595,-3.7595,-3.7595,-3.7595,-3.7595,-3.7595,-3.7595,-3.7595,-3.7595,-3.7595,-3.7595,-3.7595,-3.7595,-3.7631,-3.7738,-3.7702,-3.7631,-3.7738,-3.7684,-3.7595,-3.7595,-3.7595,-3.7595,-3.7595,-3.7595,-3.7595,-3.7595,-3.7595,-3.7595,-3.7595,-3.7595,-3.8077,-3.9504,-3.9288,-3.9146,-3.9788,-4.0503,-4.0699,-3.9984,-4.0521,-4.0681,-3.9966,-3.9895,-3.9895,-3.9895,-3.9805,-3.9467,-3.8825,-3.8701,-3.8326,-3.7631,-3.7595,-3.7595,-3.7595,-3.7595,-3.7595,-3.7595,-3.7595,-3.7595,-3.7595,-3.7595,-3.7595,-1.944,-2.2075,-2.5088,-2.829,-2.9588,-3.0508,-3.2125,-3.2475,-3.254,-3.2874,-3.2995,-3.3102,-3.3382,-3.3794,-3.4222,-3.4611,-3.5256,-3.5756,-3.5842,-3.6164,-3.6414,-3.6483,-3.6602,-3.6831,-3.7248,-3.7437,-3.7652,-3.7932,-3.7951,-3.7898,-3.7827,-3.7898,-3.7968,-3.8021,-3.8071,-3.814,-3.8209,-3.8106,-3.8089,-3.8105,-3.8105,-3.8106,-3.8073,-3.8073,-3.7933,-3.7703,-3.7667,-3.7631,-3.7595,-3.7595,-3.7595,-3.7595,-3.7595,-3.7595,-3.7595,-3.7595,-3.7595,-3.7595,-3.7595,-3.7595,-3.7595,-3.7595,-3.7631,-3.7649,-3.7613,-3.7631,-3.7649,-3.7613,-3.7595,-3.7595,-3.7595,-3.7595,-3.7595,-3.7595,-3.7595,-3.7595,-3.7595,-3.7595,-3.7595,-3.7595,-3.8647,-3.9629,-3.9859,-4.0378,-4.086,-4.1199,-4.1538,-4.1645,-4.1288,-4.1538,-4.1627,-4.1288,-4.1234,-4.1234,-4.1234,-4.0842,-4.0253,-3.9467,-3.904,-3.8433,-3.7631,-3.7595,-3.7595,-3.7595,-3.7595,-3.7595,-3.7595,-3.7595,-3.7595,-3.7595,-3.7595,-3.7595,-2.0345,-2.2039,-2.3687,-2.688,-2.8097,-2.9052,-3.1037,-3.1769,-3.2164,-3.2647,-3.2929,-3.307,-3.2979,-3.3432,-3.381,-3.3794,-3.4436,-3.4936,-3.4952,-3.513,-3.5289,-3.5408,-3.5475,-3.5758,-3.6418,-3.6589,-3.6857,-3.7335,-3.7322,-3.7253,-3.7147,-3.7236,-3.7377,-3.761,-3.7799,-3.7991,-3.8209,-3.8209,-3.8209,-3.8209,-3.8209,-3.8209,-3.8209,-3.8158,-3.8003,-3.7757,-3.7703,-3.7649,-3.7595,-3.7595,-3.7595,-3.7595,-3.7595,-3.7595,-3.7595,-3.7595,-3.7613,-3.7631,-3.7631,-3.7631,-3.7631,-3.7667,-3.7685,-3.7685,-3.7667,-3.7703,-3.7739,-3.7649,-3.7667,-3.7667,-3.7631,-3.7631,-3.7631,-3.7631,-3.7613,-3.7595,-3.7595,-3.7773,-3.7951,-3.8166,-3.9593,-4.0735,-4.0556,-4.1341,-4.2055,-4.2272,-4.2308,-4.2308,-4.2308,-4.2308,-4.2308,-4.2308,-4.2308,-4.2308,-4.2308,-4.1752,-4.0967,-3.9948,-3.9377,-3.8629,-3.7648,-3.7595,-3.7595,-3.7595,-3.7595,-3.7595,-3.7595,-3.7595,-3.7595,-3.7595,-3.7595,-3.7595,-1.9521,-2.0427,-2.1242,-2.4393,-2.6898,-2.8809,-2.9642,-3.1,-3.209,-3.2056,-3.2616,-3.3101,-3.3086,-3.3078,-3.3035,-3.2969,-3.3633,-3.4184,-3.4228,-3.4909,-3.5426,-3.549,-3.5488,-3.5524,-3.5562,-3.5696,-3.573,-3.5634,-3.5634,-3.5617,-3.5617,-3.5617,-3.599,-3.6829,-3.6982,-3.743,-3.8191,-3.8209,-3.8209,-3.8209,-3.8209,-3.8209,-3.8192,-3.8003,-3.7899,-3.7881,-3.7881,-3.7793,-3.7595,-3.7595,-3.7595,-3.7595,-3.7595,-3.7595,-3.7595,-3.7595,-3.7649,-3.7685,-3.7685,-3.7685,-3.7703,-3.7828,-3.781,-3.7721,-3.7846,-3.7881,-3.7864,-3.7739,-3.7793,-3.7864,-3.7739,-3.7685,-3.7685,-3.7685,-3.7649,-3.7595,-3.7595,-3.8201,-3.895,-3.9627,-3.9877,-4.0431,-4.1912,-4.1609,-4.1413,-4.22,-4.2308,-4.2308,-4.2308,-4.2308,-4.2308,-4.2308,-4.2308,-4.2308,-4.2308,-4.2272,-4.1573,-3.9984,-3.9859,-3.9182,-3.7666,-3.7595,-3.7595,-3.7595,-3.7595,-3.7595,-3.7595,-3.7595,-3.7595,-3.7595,-3.7595,-3.7595,-1.921,-1.991,-2.0934,-2.356,-2.4882,-2.5993,-2.7815,-2.9068,-2.9976,-3.0431,-3.1181,-3.1885,-3.2322,-3.2734,-3.2979,-3.2963,-3.3166,-3.3328,-3.3359,-3.3609,-3.3822,-3.3884,-3.39,-3.4114,-3.4683,-3.4785,-3.5001,-3.5455,-3.5491,-3.5491,-3.5491,-3.554,-3.5715,-3.6035,-3.6152,-3.6616,-3.743,-3.743,-3.7701,-3.8209,-3.8209,-3.8209,-3.8192,-3.8037,-3.7933,-3.7917,-3.781,-3.7703,-3.7595,-3.7595,-3.7595,-3.7595,-3.7595,-3.7595,-3.7595,-3.7595,-3.7613,-3.7649,-3.7685,-3.7703,-3.7721,-3.7864,-3.7898,-3.788,-3.7899,-3.7916,-3.7933,-3.7846,-3.7864,-3.7881,-3.7828,-3.7757,-3.7685,-3.7649,-3.7613,-3.7595,-3.7595,-3.8237,-3.8736,-3.8469,-3.9646,-4.0699,-4.0753,-4.1377,-4.1966,-4.2272,-4.2308,-4.2308,-4.2308,-4.2366,-4.2425,-4.2425,-4.2425,-4.2425,-4.2425,-4.1882,-4.1056,-3.9966,-3.9449,-3.8719,-3.7648,-3.7595,-3.7595,-3.7595,-3.7595,-3.7595,-3.7595,-3.7595,-3.7595,-3.7595,-3.7595,-3.7595,-1.8733,-1.9111,-2.0028,-2.2121,-2.2835,-2.365,-2.6059,-2.7224,-2.8098,-2.9127,-3.0016,-3.0812,-3.1546,-3.2218,-3.2768,-3.3006,-3.2979,-3.2932,-3.2932,-3.2916,-3.2916,-3.2963,-3.2963,-3.3192,-3.3809,-3.3862,-3.411,-3.4731,-3.4717,-3.4717,-3.4767,-3.4796,-3.4952,-3.5273,-3.5609,-3.6073,-3.6596,-3.6598,-3.7013,-3.781,-3.781,-3.7937,-3.8192,-3.8053,-3.7984,-3.7916,-3.7828,-3.7703,-3.7595,-3.7595,-3.7595,-3.7595,-3.7595,-3.7613,-3.7631,-3.7631,-3.7685,-3.7739,-3.7792,-3.7792,-3.781,-3.7969,-3.8003,-3.8002,-3.8003,-3.802,-3.8054,-3.7951,-3.7969,-3.7986,-3.7951,-3.7863,-3.7774,-3.7667,-3.7631,-3.7631,-3.7595,-3.8237,-3.8647,-3.8112,-3.9468,-4.061,-4.036,-4.1199,-4.1984,-4.2272,-4.2308,-4.2308,-4.2308,-4.2425,-4.2483,-4.2445,-4.2483,-4.2396,-4.2127,-4.1473,-4.0665,-3.9631,-3.9094,-3.8433,-3.7631,-3.7595,-3.7595,-3.7595,-3.7595,-3.7595,-3.7595,-3.7595,-3.7595,-3.7595,-3.7595,-3.7595,0.0,0.0,0.0,-1.9911,-2.0898,-2.2075,-2.4393,-2.5552,-2.6554,-2.8165,-2.9137,-2.9947,-3.0781,-3.1526,-3.2252,-3.2919,-3.3021,-3.2995,-3.2995,-3.2948,-3.29,-3.29,-3.29,-3.2932,-3.2979,-3.2995,-3.3075,-3.328,-3.3165,-3.3165,-3.3292,-3.3292,-3.3683,-3.4537,-3.5315,-3.5731,-3.5768,-3.5768,-3.6164,-3.6959,-3.6959,-3.7393,-3.8172,-3.7999,-3.7965,-3.8001,-3.7898,-3.7757,-3.7613,-3.7595,-3.7595,-3.7595,-3.7595,-3.7649,-3.7703,-3.7703,-3.7827,-3.8001,-3.8001,-3.8001,-3.8018,-3.8157,-3.8105,-3.8036,-3.8157,-3.8209,-3.8174,-3.8036,-3.8105,-3.8157,-3.8036,-3.8001,-3.7949,-3.7757,-3.7703,-3.7667,-3.7613,-3.8201,-3.8772,-3.8772,-3.9342,-4.0109,-4.0931,-4.1074,-4.1359,-4.2183,-4.2308,-4.2308,-4.2308,-4.2407,-4.2409,-4.2292,-4.2371,-4.2107,-4.132,-4.1133,-4.0417,-3.8993,-3.881,-3.8415,-3.7631,-3.7595,-3.7595,-3.7595,-3.7595,-3.7595,-3.7595,-3.7595,-3.7595,-3.7595,-3.7595,-3.7595,-1.8246,0.0,0.0,0.0,0.0,0.0,-2.2916,-2.3513,-2.4111,-2.5667,-2.6638,-2.7616,-2.8998,-2.9921,-3.0686,-3.1472,-3.2424,-3.307,-3.307,-3.3055,-3.3039,-3.3039,-3.3011,-3.2979,-3.2995,-3.2948,-3.2963,-3.3075,-3.3104,-3.3165,-3.3292,-3.3352,-3.3472,-3.3719,-3.3954,-3.4353,-3.4917,-3.4917,-3.5349,-3.6127,-3.6127,-3.6544,-3.7321,-3.6591,-3.6901,-3.7948,-3.7304,-3.7325,-3.7811,-3.7721,-3.7667,-3.7667,-3.7667,-3.7739,-3.7846,-3.7846,-3.7881,-3.7933,-3.7984,-3.8001,-3.8018,-3.8157,-3.8174,-3.8157,-3.8192,-3.8209,-3.8192,-3.8157,-3.8174,-3.8157,-3.8036,-3.8001,-3.7949,-3.7757,-3.7703,-3.7667,-3.7613,-3.7773,-3.7916,-3.7916,-3.8576,-3.9343,-4.0091,-4.0717,-4.1359,-4.2183,-4.2308,-4.2346,-4.2425,-4.1964,-4.1628,-4.1649,-4.1108,-4.0659,-4.0444,-3.9811,-3.9254,-3.8863,-3.8255,-3.7826,-3.7613,-3.7595,-3.7595,-3.7595,-3.7595,-3.7595,-3.7595,-3.7595,-3.7595,-3.7595,-3.7595,-3.7595,-1.8916,-1.9123,-1.9784,-2.0232,0.0,0.0,-2.2257,-2.2447,-2.2735,-2.461,-2.5371,-2.6095,-2.7351,-2.854,-2.9445,-2.9916,-3.1245,-3.2328,-3.264,-3.2664,-3.276,-3.3065,-3.3073,-3.3042,-3.3042,-3.2979,-3.2963,-3.3042,-3.3057,-3.3119,-3.3277,-3.3337,-3.3367,-3.3393,-3.3393,-3.3628,-3.4099,-3.4099,-3.4516,-3.5297,-3.5297,-3.5729,-3.6472,-3.5919,-3.6373,-3.7546,-3.7062,-3.7247,-3.7933,-3.7863,-3.781,-3.7775,-3.7775,-3.7863,-3.7951,-3.7951,-3.7986,-3.8021,-3.8071,-3.807,-3.8105,-3.8174,-3.8209,-3.8209,-3.8209,-3.8209,-3.8209,-3.8209,-3.8209,-3.8174,-3.8105,-3.807,-3.8036,-3.7862,-3.7792,-3.7757,-3.7667,-3.7613,-3.7595,-3.7595,-3.7969,-3.854,-3.9306,-4.0092,-4.0877,-4.168,-4.1787,-4.1826,-4.1904,-4.1266,-4.0823,-4.0861,-4.043,-4.0018,-3.975,-3.919,-3.8722,-3.8437,-3.7917,-3.7595,-3.7595,-3.7595,-3.7595,-3.7595,-3.7595,-3.7595,-3.7595,-3.7595,-3.7595,-3.7595,-3.7595,-3.7595,-1.9855,-2.003,0.0,-2.0557,-2.0067,0.0,-2.2106,-2.2013,-2.2103,-2.4176,-2.461,-2.4882,-2.5787,-2.717,-2.8238,-2.8328,-2.9608,-3.0935,-3.1859,-3.1917,-3.2125,-3.279,-3.2865,-3.2865,-3.2865,-3.2878,-3.2901,-3.296,-3.2972,-3.3091,-3.3277,-3.331,-3.3322,-3.3411,-3.3393,-3.3393,-3.3393,-3.3393,-3.3755,-3.448,-3.448,-3.4881,-3.5659,-3.5569,-3.6019,-3.6868,-3.6868,-3.7254,-3.791,-3.8,-3.7985,-3.7916,-3.7916,-3.7951,-3.8018,-3.8018,-3.8105,-3.8209,-3.8209,-3.8209,-3.8209,-3.8209,-3.8209,-3.8209,-3.8209,-3.8209,-3.8209,-3.8209,-3.8209,-3.8209,-3.8209,-3.8209,-3.8157,-3.8036,-3.795,-3.7881,-3.7757,-3.7667,-3.7631,-3.7631,-3.7631,-3.7863,-3.8665,-3.9342,-4.0037,-4.086,-4.0967,-4.0967,-4.1006,-4.0386,-3.9978,-4.0015,-3.9946,-3.9697,-3.9121,-3.8869,-3.851,-3.7917,-3.7703,-3.7595,-3.7595,-3.7595,-3.7595,-3.7595,-3.7595,-3.7595,-3.7595,-3.7595,-3.7595,-3.7595,-3.7595,-3.7595,-2.0539,-2.0844,-2.1468,-2.145,-2.1771,0.0,-2.1788,-2.1643,-2.1698,-2.2103,-2.2184,-2.2636,-2.4077,-2.5092,-2.5914,-2.6554,-2.7489,-2.8817,-3.0917,-3.121,-3.1251,-3.1396,-3.1357,-3.1333,-3.1333,-3.1855,-3.2158,-3.2061,-3.2637,-3.3091,-3.3277,-3.331,-3.3322,-3.3411,-3.3393,-3.3393,-3.3393,-3.3393,-3.3484,-3.3628,-3.3628,-3.4063,-3.4808,-3.4172,-3.4661,-3.6021,-3.6021,-3.649,-3.7252,-3.7885,-3.8088,-3.7984,-3.7984,-3.8054,-3.8157,-3.8157,-3.8174,-3.8209,-3.8209,-3.8209,-3.8209,-3.8209,-3.8209,-3.8209,-3.8209,-3.8209,-3.8209,-3.8209,-3.8209,-3.8209,-3.8209,-3.8209,-3.8157,-3.8036,-3.7984,-3.795,-3.7881,-3.7846,-3.7846,-3.7846,-3.7703,-3.7863,-3.8665,-3.8933,-3.9253,-4.0019,-4.0126,-4.0204,-4.034,-3.96,-3.9135,-3.9356,-3.8654,-3.8169,-3.8168,-3.8008,-3.7864,-3.7739,-3.7649,-3.7595,-3.7595,-3.7595,-3.7595,-3.7595,-3.7595,-3.7595,-3.7595,-3.7595,-3.7595,-3.7595,-3.7595,-3.7595,-2.207,-2.2337,-2.2951,-2.2951,-2.2896,0.0,0.0,-2.2501,-2.23,-2.267,-2.2405,-2.2468,-2.3684,-2.4161,-2.4664,-2.5479,-2.6276,-2.7218,-2.8431,-2.9626,-3.0545,-3.0962,-3.0975,-3.0948,-3.0948,-3.1257,-3.1409,-3.1258,-3.1634,-3.2089,-3.2619,-3.2652,-3.2877,-3.3393,-3.3393,-3.3393,-3.3393,-3.3393,-3.3393,-3.3393,-3.3393,-3.361,-3.3991,-3.3592,-3.4063,-3.5188,-3.5188,-3.5657,-3.6453,-3.7285,-3.756,-3.7544,-3.7942,-3.814,-3.8209,-3.8209,-3.8209,-3.8209,-3.8209,-3.8209,-3.8209,-3.8209,-3.8209,-3.8209,-3.8209,-3.8209,-3.8209,-3.8209,-3.8209,-3.8209,-3.8209,-3.8209,-3.8174,-3.8105,-3.8053,-3.7984,-3.7968,-3.7916,-3.7899,-3.7899,-3.7828,-3.7864,-3.8186,-3.8579,-3.899,-3.9348,-3.9362,-3.9399,-3.9532,-3.8795,-3.8294,-3.8456,-3.8079,-3.788,-3.7933,-3.7863,-3.781,-3.781,-3.7667,-3.7595,-3.7595,-3.7595,-3.7595,-3.7595,-3.7595,-3.7595,-3.7595,-3.7595,-3.7595,-3.7595,-3.7595,-3.7595,-2.3859,-2.4043,-2.4612,-2.4465,-2.4024,-2.3665,0.0,0.0,0.0,-2.3477,-2.2982,-2.2735,-2.3525,-2.3611,-2.3852,-2.4628,-2.5443,-2.5968,-2.5968,-2.7779,-2.9404,-3.0206,-3.0183,-3.0201,-3.0496,-3.0482,-3.053,-3.0726,-3.0589,-3.0884,-3.174,-3.1923,-3.236,-3.314,-3.3306,-3.3396,-3.3393,-3.3393,-3.3393,-3.3393,-3.3393,-3.3393,-3.3393,-3.3393,-3.3755,-3.4389,-3.4534,-3.4969,-3.5623,-3.6435,-3.6868,-3.7085,-3.7901,-3.8209,-3.8209,-3.8209,-3.8209,-3.8209,-3.8209,-3.8209,-3.8209,-3.8209,-3.8209,-3.8209,-3.8209,-3.8209,-3.8209,-3.8209,-3.8209,-3.8209,-3.8209,-3.8209,-3.8209,-3.8209,-3.8122,-3.8036,-3.8036,-3.8003,-3.7969,-3.7969,-3.7969,-3.7916,-3.7757,-3.8295,-3.8725,-3.8725,-3.8669,-3.865,-3.8689,-3.8133,-3.7739,-3.7739,-3.7915,-3.8001,-3.8001,-3.7933,-3.7899,-3.7899,-3.7703,-3.7595,-3.7595,-3.7595,-3.7595,-3.7595,-3.7595,-3.7595,-3.7595,-3.7595,-3.7595,-3.7595,-3.7595,-3.7595,-2.5374,-2.5713,-2.6153,-2.5448,-2.5731,-2.5619,-2.3519,0.0,-2.3562,-2.2164,0.0,-2.1953,-2.2698,0.0,0.0,-2.3824,-2.461,-2.5135,-2.5135,-2.5986,-2.691,-2.7713,-2.717,-2.7308,-2.8726,-2.8812,-2.9368,-3.0774,-3.0164,-3.011,-3.0986,-3.1636,-3.2112,-3.2325,-3.2958,-3.3337,-3.3393,-3.3393,-3.3393,-3.3393,-3.3393,-3.3393,-3.3393,-3.3393,-3.3447,-3.3574,-3.4298,-3.4661,-3.4806,-3.5587,-3.6363,-3.7085,-3.7901,-3.8209,-3.8209,-3.8209,-3.8209,-3.8209,-3.8209,-3.8209,-3.8209,-3.8209,-3.8209,-3.8209,-3.8209,-3.8209,-3.8209,-3.8209,-3.8209,-3.8209,-3.8209,-3.8209,-3.8209,-3.8209,-3.8192,-3.8174,-3.8174,-3.8175,-3.8175,-3.8175,-3.8175,-3.8089,-3.7916,-3.7953,-3.8007,-3.8007,-3.8007,-3.8007,-3.8007,-3.7935,-3.7881,-3.7881,-3.795,-3.8001,-3.8001,-3.7933,-3.7899,-3.7899,-3.7703,-3.7595,-3.7595,-3.7595,-3.7595,-3.7595,-3.7595,-3.7595,-3.7595,-3.7595,-3.7595,-3.7595,-3.7595,-3.7595,-2.5485,-2.565,-2.5933,-2.6062,-2.5988,-2.5621,-2.4584,-2.4244,-2.3949,-2.3253,0.0,0.0,0.0,0.0,0.0,0.0,-2.3438,-2.349,-2.3035,-2.3658,-2.4798,-2.65,-2.6409,-2.6475,-2.7133,-2.6766,-2.6929,-2.8023,-2.7781,-2.8129,-2.9449,-3.0702,-3.1614,-3.218,-3.2947,-3.3367,-3.3393,-3.3393,-3.3393,-3.3393,-3.3393,-3.3393,-3.3393,-3.3393,-3.3393,-3.3429,-3.3755,-3.39,-3.3973,-3.4769,-3.5313,-3.5729,-3.7013,-3.7792,-3.8209,-3.8209,-3.8209,-3.8209,-3.8209,-3.8209,-3.8209,-3.8209,-3.8209,-3.8209,-3.8209,-3.8209,-3.8209,-3.8209,-3.8209,-3.8209,-3.8209,-3.8209,-3.8209,-3.8209,-3.8209,-3.8209,-3.8209,-3.8209,-3.8209,-3.8209,-3.8209,-3.8175,-3.809,-3.8003,-3.7951,-3.7899,-3.7828,-3.781,-3.7881,-3.7899,-3.7899,-3.7899,-3.8038,-3.807,-3.8001,-3.7984,-3.7951,-3.7899,-3.7703,-3.7595,-3.7595,-3.7595,-3.7595,-3.7595,-3.7595,-3.7595,-3.7595,-3.7595,-3.7595,-3.7595,-3.7595,-3.7595,-2.6127,-2.6219,-2.641,-2.6557,-2.6153,-2.5613,-2.5172,-2.4787,-2.4475,-2.4245,-2.3877,0.0,0.0,0.0,-2.2382,-2.2681,0.0,-2.2524,-2.1913,-2.2139,-2.3172,-2.5298,-2.5932,-2.6113,-2.5896,-2.5153,-2.5106,-2.6073,-2.573,-2.626,-2.8103,-2.9503,-3.0739,-3.1836,-3.2636,-3.3161,-3.3393,-3.3393,-3.3393,-3.3393,-3.3393,-3.3393,-3.3393,-3.3393,-3.3393,-3.3393,-3.3393,-3.3393,-3.3447,-3.4027,-3.4407,-3.4751,-3.6127,-3.7158,-3.7901,-3.8118,-3.8209,-3.8209,-3.8209,-3.8209,-3.8209,-3.8209,-3.8209,-3.8209,-3.8209,-3.8209,-3.8209,-3.8209,-3.8209,-3.8209,-3.8209,-3.8209,-3.8209,-3.8209,-3.8209,-3.8209,-3.8209,-3.8209,-3.8209,-3.8209,-3.8209,-3.8209,-3.8209,-3.8122,-3.8054,-3.7986,-3.7898,-3.7863,-3.7916,-3.7969,-3.7951,-3.7917,-3.809,-3.8157,-3.8001,-3.8001,-3.7967,-3.7846,-3.7703,-3.7595,-3.7595,-3.7595,-3.7595,-3.7595,-3.7595,-3.7595,-3.7595,-3.7595,-3.7595,-3.7595,-3.7595,-3.7595,-2.7934,-2.8301,-2.8528,-2.6969,-2.6583,-2.6153,-2.4593,-2.4824,-2.5136,-2.4355,-2.4805,-2.5061,-2.425,-2.4057,-2.3745,-2.2929,-2.2792,0.0,0.0,-2.2006,-2.2123,-2.3697,-2.5244,-2.5896,-2.5117,-2.4367,-2.4567,-2.6084,-2.4755,-2.4918,-2.7314,-2.8162,-2.9336,-3.0998,-3.1765,-3.256,-3.3393,-3.3393,-3.3393,-3.3393,-3.3393,-3.3393,-3.3393,-3.3393,-3.3393,-3.3393,-3.3393,-3.3393,-3.3393,-3.3429,-3.39,-3.4679,-3.5514,-3.6327,-3.714,-3.7919,-3.8209,-3.8209,-3.8209,-3.8209,-3.8209,-3.8209,-3.8209,-3.8209,-3.8209,-3.8209,-3.8209,-3.8209,-3.8209,-3.8209,-3.8209,-3.8209,-3.8209,-3.8209,-3.8209,-3.8209,-3.8209,-3.8209,-3.8209,-3.8209,-3.8209,-3.8209,-3.8209,-3.8192,-3.8192,-3.8192,-3.8192,-3.814,-3.8001,-3.8105,-3.8124,-3.7916,-3.809,-3.8157,-3.8001,-3.8001,-3.7915,-3.7721,-3.7631,-3.7595,-3.7595,-3.7595,-3.7595,-3.7595,-3.7595,-3.7595,-3.7595,-3.7595,-3.7595,-3.7595,-3.7595,-3.7595,-2.7732,-2.8393,-2.8748,-2.7658,-2.7383,-2.6961,-2.5356,-2.5191,-2.5172,-2.4373,-2.4842,-2.5154,-2.4317,-2.3721,-2.3262,-2.2913,-2.2876,-2.2465,0.0,-2.0916,-2.1098,-2.2147,-2.3234,-2.3785,-2.3495,-2.3252,-2.3524,-2.4538,-2.4103,-2.4393,-2.5751,-2.7562,-2.8827,-2.9378,-3.1192,-3.2296,-3.2596,-3.314,-3.3393,-3.3393,-3.3393,-3.3393,-3.3393,-3.3393,-3.3393,-3.3393,-3.3393,-3.3393,-3.3393,-3.3393,-3.3556,-3.3936,-3.5279,-3.5967,-3.6363,-3.772,-3.8209,-3.8209,-3.8209,-3.8209,-3.8209,-3.8209,-3.8209,-3.8209,-3.8209,-3.8209,-3.8209,-3.8209,-3.8209,-3.8209,-3.8209,-3.8209,-3.8209,-3.8209,-3.8209,-3.8209,-3.8209,-3.8209,-3.8209,-3.8209,-3.8209,-3.8209,-3.8209,-3.8209,-3.8157,-3.8088,-3.8053,-3.8053,-3.8001,-3.8003,-3.8039,-3.8089,-3.8071,-3.8088,-3.814,-3.8053,-3.7915,-3.7721,-3.7667,-3.7649,-3.7595,-3.7595,-3.7595,-3.7595,-3.7595,-3.7595,-3.7595,-3.7595,-3.7595,-3.7595,-3.7595,-3.7595,-2.8503,-2.9237,-2.9659,-2.8851,-2.865,-2.8154,-2.6256,-2.6054,-2.5944,-2.486,-2.5044,-2.5338,-2.5089,-2.4171,-2.341,0.0,0.0,-2.2346,0.0,-2.0614,-2.0725,-2.0653,-2.1614,-2.2481,-2.3053,-2.2075,-2.2075,-2.3668,-2.3017,-2.327,-2.49,-2.6753,-2.8002,-2.8582,-3.0659,-3.1908,-3.2198,-3.2995,-3.3393,-3.3393,-3.3393,-3.3393,-3.3393,-3.3393,-3.3393,-3.3393,-3.3393,-3.3393,-3.3393,-3.3393,-3.3393,-3.3538,-3.4844,-3.555,-3.5985,-3.7612,-3.8209,-3.8209,-3.8209,-3.8209,-3.8209,-3.8209,-3.8209,-3.8209,-3.8209,-3.8209,-3.8209,-3.8209,-3.8209,-3.8209,-3.8209,-3.8209,-3.8209,-3.8209,-3.8209,-3.8209,-3.8209,-3.8209,-3.8209,-3.8209,-3.8209,-3.8209,-3.8209,-3.8209,-3.8174,-3.807,-3.807,-3.807,-3.807,-3.802,-3.8073,-3.8192,-3.8122,-3.8105,-3.8192,-3.8054,-3.7898,-3.7775,-3.7703,-3.7649,-3.7595,-3.7595,-3.7595,-3.7595,-3.7595,-3.7595,-3.7595,-3.7595,-3.7595,-3.7595,-3.7595,-3.7595]},{"header":{"parameterUnit":"m.s-1","parameterCategory":1,"la1":30.6,"la2":29.2853,"lo1":-89.7004,"lo2":-87.6739,"dy":0.0162,"dx":0.0183,"nx":112,"ny":82,"refTime":"2024-06-30T18:00:00:Z","depth":0,"parameterNumber":3,"parameterNumberName":"V-component_of_WINDS"},"data":[0.0,0.0,0.0,0.0,0.0,0.0,0.0,0.0,0.0,0.0,0.0,0.0,0.0,0.0,0.0,0.0,0.0,0.0,0.0,0.0,0.0,0.0,0.0,0.0,0.0,0.0,0.0,0.0,0.0,0.0,0.0,0.0,0.0,0.0,0.0,0.0,0.0,0.0,0.0,0.0,0.0,0.0,0.0,0.0,0.0,0.0,0.0,0.0,0.0,0.0,0.0,0.0,0.0,0.0,0.0,0.0,0.0,0.0,0.0,0.0,0.0,0.0,0.0,0.0,0.0,0.0,0.0,0.0,0.0,0.0,0.0,0.0,0.0,0.0,0.0,0.0,0.0,0.0,0.0,0.0,0.0,0.0,0.0,0.0,0.0,0.0,0.0,0.0,0.0,0.0,1.9094,2.1057,2.3397,2.5191,2.6115,2.5098,2.3726,2.2113,0.0,0.0,0.0,0.0,0.0,0.0,0.0,0.0,0.0,0.0,0.0,0.0,0.0,0.0,0.0,0.0,0.0,0.0,0.0,0.0,0.0,0.0,0.0,0.0,0.0,0.0,0.0,0.0,0.0,0.0,0.0,0.0,0.0,0.0,0.0,0.0,0.0,0.0,0.0,0.0,0.0,0.0,0.0,0.0,0.0,0.0,0.0,0.0,0.0,0.0,0.0,0.0,0.0,0.0,0.0,0.0,0.0,0.0,0.0,0.0,0.0,0.0,0.0,0.0,0.0,0.0,0.0,0.0,0.0,0.0,0.0,0.0,0.0,0.0,0.0,0.0,0.0,0.0,0.0,0.0,0.0,0.0,0.0,0.0,0.0,0.0,0.0,0.0,0.0,0.0,0.0,0.0,0.0,0.0,0.0,0.0,0.0,0.0,0.0,0.0,0.0,0.0,0.0,0.0,1.9251,2.3397,2.477,2.5601,2.6152,2.5398,2.4068,2.2119,0.0,0.0,0.0,0.0,0.0,0.0,0.0,0.0,0.0,0.0,0.0,0.0,0.0,0.0,0.0,0.0,0.0,0.0,0.0,0.0,0.0,0.0,0.0,0.0,0.0,0.0,0.0,0.0,0.0,0.0,0.0,0.0,0.0,0.0,0.0,0.0,0.0,0.0,0.0,0.0,0.0,0.0,0.0,0.0,0.0,0.0,0.0,0.0,0.0,0.0,0.0,0.0,0.0,0.0,0.0,0.0,0.0,0.0,0.0,0.0,0.0,0.0,0.0,0.0,0.0,0.0,0.0,0.0,0.0,0.0,0.0,0.0,0.0,0.0,0.0,0.0,0.0,0.0,0.0,0.0,0.0,0.0,0.0,0.0,0.0,0.0,0.0,0.0,0.0,0.0,0.0,0.0,0.0,0.0,0.0,0.0,0.0,0.0,0.0,0.0,0.0,0.0,0.0,1.9479,2.1392,2.3912,2.5329,2.6168,2.6397,2.5551,2.4237,2.2489,2.1394,0.0,0.0,0.0,0.0,0.0,0.0,0.0,0.0,0.0,0.0,0.0,0.0,0.0,0.0,0.0,0.0,0.0,0.0,0.0,0.0,0.0,0.0,0.0,0.0,0.0,0.0,0.0,0.0,0.0,0.0,0.0,0.0,0.0,0.0,0.0,0.0,0.0,0.0,0.0,0.0,0.0,0.0,0.0,0.0,0.0,0.0,0.0,0.0,0.0,0.0,0.0,0.0,0.0,0.0,0.0,0.0,0.0,0.0,0.0,0.0,0.0,0.0,0.0,0.0,0.0,0.0,0.0,0.0,0.0,0.0,0.0,0.0,0.0,0.0,0.0,0.0,0.0,0.0,0.0,0.0,0.0,0.0,0.0,0.0,0.0,0.0,0.0,0.0,0.0,0.0,0.0,0.0,0.0,0.0,0.0,0.0,0.0,0.0,0.0,0.0,0.0,0.0,2.1538,2.3371,2.3934,2.5497,2.6386,2.6068,2.5135,2.3894,2.2285,2.0941,0.0,0.0,0.0,0.0,0.0,0.0,0.0,0.0,0.0,0.0,0.0,0.0,0.0,0.0,0.0,0.0,0.0,0.0,0.0,0.0,0.0,0.0,0.0,0.0,0.0,0.0,0.0,0.0,0.0,0.0,0.0,0.0,0.0,0.0,0.0,0.0,0.0,0.0,0.0,0.0,0.0,0.0,0.0,0.0,0.0,0.0,0.0,0.0,0.0,0.0,0.0,0.0,0.0,0.0,0.0,0.0,0.0,0.0,0.0,0.0,0.0,0.0,0.0,0.0,0.0,0.0,0.0,0.0,0.0,0.0,0.0,0.0,0.0,0.0,0.0,0.0,0.0,0.0,0.0,0.0,0.0,0.0,0.0,0.0,0.0,0.0,0.0,0.0,0.0,0.0,0.0,0.0,0.0,0.0,0.0,0.0,0.0,0.0,0.0,0.0,0.0,0.0,2.1549,2.3934,2.4,2.5343,2.5744,2.4557,2.3745,2.2564,2.0771,1.9225,0.0,0.0,0.0,0.0,0.0,0.0,0.0,0.0,0.0,0.0,0.0,0.0,0.0,0.0,0.0,0.0,0.0,0.0,0.0,0.0,0.0,0.0,0.0,0.0,0.0,0.0,0.0,0.0,0.0,0.0,0.0,0.0,0.0,0.0,0.0,0.0,0.0,0.0,0.0,0.0,0.0,0.0,0.0,0.0,0.0,0.0,0.0,0.0,0.0,0.0,0.0,0.0,0.0,0.0,0.0,0.0,0.0,0.0,0.0,0.0,0.0,0.0,0.0,0.0,0.0,0.0,0.0,0.0,0.0,0.0,0.0,0.0,0.0,0.0,0.0,0.0,0.0,0.0,0.0,0.0,0.0,0.0,0.0,0.0,0.0,0.0,0.0,0.0,0.0,0.0,0.0,0.0,0.0,0.0,0.0,0.0,0.0,0.0,0.0,0.0,0.0,0.0,2.0838,2.3178,2.3636,2.5204,2.5807,2.488,2.4242,2.3001,2.0951,0.0,0.0,0.0,0.0,0.0,0.0,0.0,0.0,0.0,0.0,0.0,0.0,0.0,0.0,0.0,0.0,0.0,0.0,0.0,0.0,0.0,0.0,0.0,0.0,0.0,0.0,0.0,0.0,0.0,0.0,0.0,0.0,0.0,0.0,0.0,0.0,0.0,0.0,0.0,0.0,0.0,0.0,0.0,0.0,0.0,0.0,0.0,0.0,0.0,0.0,0.0,0.0,0.0,0.0,0.0,0.0,0.0,0.0,0.0,0.0,0.0,0.0,0.0,0.0,0.0,0.0,0.0,0.0,0.0,0.0,0.0,0.0,0.0,0.0,0.0,0.0,0.0,0.0,0.0,0.0,0.0,0.0,0.0,0.0,0.0,0.0,0.0,0.0,0.0,0.0,0.0,0.0,0.0,0.0,0.0,0.0,0.0,0.0,0.0,0.0,0.0,0.0,1.7668,2.0576,2.2728,2.3211,2.4711,2.5365,2.4624,2.3916,2.27,2.0763,0.0,0.0,0.0,0.0,0.0,0.0,0.0,0.0,0.0,0.0,0.0,0.0,0.0,0.0,0.0,0.0,0.0,0.0,0.0,0.0,0.0,0.0,0.0,0.0,0.0,0.0,0.0,0.0,0.0,0.0,0.0,0.0,0.0,0.0,0.0,0.0,0.0,0.0,0.0,0.0,0.0,0.0,0.0,0.0,0.0,0.0,0.0,0.0,0.0,0.0,0.0,0.0,0.0,0.0,0.0,0.0,0.0,0.0,0.0,0.0,0.0,0.0,0.0,0.0,0.0,0.0,0.0,0.0,0.0,0.0,0.0,0.0,0.0,0.0,0.0,0.0,0.0,0.0,0.0,0.0,0.0,0.0,0.0,0.0,0.0,0.0,0.0,0.0,0.0,0.0,0.0,0.0,0.0,0.0,0.0,0.0,0.0,0.0,0.0,0.0,0.0,0.0,1.8207,2.094,2.2799,2.2799,2.3813,2.4189,2.3459,2.2423,2.1271,0.0,0.0,0.0,0.0,0.0,0.0,0.0,0.0,0.0,0.0,0.0,0.0,0.0,0.0,0.0,0.0,0.0,0.0,0.0,0.0,0.0,0.0,0.0,0.0,0.0,0.0,0.0,0.0,0.0,0.0,0.0,0.0,0.0,0.0,0.0,0.0,0.0,0.0,0.0,0.0,0.0,0.0,0.0,0.0,0.0,0.0,0.0,0.0,0.0,0.0,0.0,0.0,0.0,0.0,0.0,0.0,0.0,0.0,0.0,0.0,0.0,0.0,0.0,0.0,0.0,0.0,0.0,0.0,0.0,0.0,0.0,0.0,0.0,0.0,0.0,0.0,0.0,0.0,0.0,0.0,0.0,0.0,0.0,0.0,0.0,0.0,0.0,0.0,0.0,0.0,0.0,0.0,0.0,0.0,0.0,0.0,0.0,0.0,0.0,0.0,0.0,0.0,0.0,1.774,2.056,2.2465,2.2465,2.3446,2.3777,2.304,2.2506,2.1185,1.8718,0.0,0.0,0.0,0.0,0.0,0.0,0.0,0.0,0.0,0.0,0.0,0.0,0.0,0.0,0.0,0.0,0.0,0.0,0.0,0.0,0.0,0.0,0.0,0.0,0.0,0.0,0.0,0.0,0.0,0.0,0.0,0.0,0.0,0.0,0.0,0.0,0.0,0.0,0.0,0.0,0.0,0.0,0.0,0.0,0.0,0.0,0.0,0.0,0.0,0.0,0.0,0.0,0.0,0.0,0.0,0.0,0.0,0.0,0.0,0.0,0.0,0.0,0.0,0.0,0.0,0.0,0.0,0.0,0.0,0.0,0.0,0.0,0.0,0.0,0.0,0.0,0.0,0.0,0.0,0.0,0.0,0.0,0.0,0.0,0.0,0.0,0.0,0.0,0.0,0.0,0.0,0.0,0.0,0.0,0.0,0.0,0.0,0.0,0.0,0.0,0.0,0.0,1.7534,2.0255,2.206,2.206,2.2759,2.303,2.2589,2.2069,2.0813,1.8584,0.0,0.0,0.0,0.0,0.0,0.0,0.0,0.0,0.0,0.0,0.0,0.0,0.0,0.0,0.0,0.0,0.0,0.0,0.0,0.0,0.0,0.0,0.0,0.0,0.0,0.0,0.0,0.0,0.0,0.0,0.0,0.0,0.0,0.0,0.0,0.0,0.0,0.0,0.0,0.0,0.0,0.0,0.0,0.0,0.0,0.0,0.0,0.0,0.0,0.0,0.0,0.0,0.0,0.0,0.0,0.0,0.0,0.0,0.0,0.0,0.0,0.0,0.0,0.0,0.0,0.0,0.0,0.0,0.0,0.0,0.0,0.0,0.0,0.0,0.0,0.0,0.0,0.0,0.0,0.0,0.0,0.0,0.0,0.0,0.0,0.0,0.0,0.0,0.0,0.0,0.0,0.0,0.0,0.0,0.0,0.0,0.0,0.0,0.0,0.0,0.0,0.0,1.7624,2.0079,2.1724,2.1784,2.205,2.2213,2.2152,2.1335,2.0305,1.9079,0.0,0.0,0.0,0.0,0.0,0.0,0.0,0.0,0.0,0.0,0.0,0.0,0.0,0.0,0.0,0.0,0.0,0.0,0.0,0.0,0.0,0.0,0.0,0.0,0.0,0.0,0.0,0.0,0.0,0.0,0.0,0.0,0.0,0.0,0.0,0.0,0.0,0.0,0.0,0.0,0.0,0.0,0.0,0.0,0.0,0.0,0.0,0.0,0.0,0.0,0.0,0.0,0.0,0.0,0.0,0.0,0.0,0.0,0.0,0.0,1.2447,1.1854,0.0,0.0,0.0,0.0,0.0,0.0,0.0,0.0,0.0,0.0,0.0,0.0,0.0,0.0,0.0,0.0,0.0,0.0,0.0,0.0,0.0,0.0,0.0,0.0,0.0,0.0,0.0,0.0,0.0,0.0,0.0,0.0,0.0,0.0,0.0,0.0,0.0,0.0,0.0,0.0,1.8295,2.0363,2.1889,2.2433,2.254,2.239,2.1843,2.1372,2.0311,1.8424,1.7368,0.0,0.0,0.0,0.0,0.0,0.0,0.0,0.0,0.0,0.0,0.0,0.0,0.0,0.0,0.0,0.0,0.0,0.0,0.0,0.0,0.0,0.0,0.0,0.0,0.0,0.0,0.0,0.0,0.0,0.0,0.0,0.0,0.0,0.0,0.0,0.0,0.0,0.0,0.0,0.0,0.0,0.0,0.0,0.0,0.0,0.0,0.0,0.0,0.0,0.0,0.0,0.0,0.0,0.0,0.0,0.0,0.0,0.0,0.0,1.3396,1.2793,0.0,0.0,0.0,0.0,0.0,0.0,0.0,0.0,0.0,0.0,0.0,0.0,0.0,0.0,0.0,0.0,0.0,0.0,0.0,0.0,0.0,0.0,0.0,0.0,0.0,0.0,0.0,0.0,0.0,0.0,0.0,0.0,0.0,0.0,0.0,0.0,0.0,0.0,0.0,0.0,1.826,2.0211,2.1636,2.2264,2.2563,2.2433,2.1754,2.1258,2.0269,1.868,1.8069,0.0,0.0,0.0,0.0,0.0,0.0,0.0,0.0,0.0,0.0,0.0,0.0,0.0,0.0,0.0,0.0,0.0,0.0,0.0,0.0,0.0,0.0,0.0,0.0,0.0,0.0,0.0,0.0,0.0,0.0,0.0,0.0,0.0,0.0,0.0,0.0,0.0,0.0,0.0,0.0,0.0,0.0,0.0,0.0,0.0,0.0,0.0,0.0,0.0,0.0,0.0,0.0,0.0,1.4218,1.4465,1.4458,1.5393,1.5876,1.5898,1.4523,1.4094,1.4311,1.3358,0.0,0.0,0.0,0.0,0.0,0.0,0.0,0.0,0.0,0.0,0.0,0.0,0.0,0.0,0.0,0.0,0.0,0.0,0.0,0.0,0.0,0.0,1.6563,1.5688,1.6616,1.7314,1.5906,0.0,0.0,0.0,0.0,0.0,0.0,0.0,0.0,0.0,0.0,0.0,1.8185,2.0002,2.1341,2.1997,2.2543,2.2538,2.1754,2.1201,2.0414,1.9285,1.9089,1.8345,0.0,0.0,0.0,0.0,0.0,0.0,0.0,0.0,0.0,0.0,0.0,0.0,0.0,0.0,0.0,0.0,0.0,0.0,0.0,0.0,0.0,0.0,0.0,0.0,0.0,0.0,0.0,0.0,0.0,0.0,0.0,0.0,0.9166,1.011,0.0,0.0,0.0,0.0,0.0,0.0,0.0,0.0,0.0,0.0,0.0,0.0,0.0,1.3331,1.3797,1.4778,1.5268,1.5301,1.5842,1.6095,1.6091,1.6233,1.6583,1.7075,1.687,0.0,1.5487,1.5329,0.0,0.0,0.0,0.0,0.0,0.0,0.0,0.0,0.0,0.0,0.0,0.0,0.0,0.0,0.0,0.0,0.0,0.0,0.0,0.0,0.0,0.0,1.794,1.7802,1.7964,1.8075,1.7987,1.688,1.5434,1.3844,1.3869,1.3839,0.0,0.0,0.0,0.0,0.0,0.0,1.8889,2.0294,2.1516,2.2665,2.3215,2.2996,2.1799,2.162,2.1011,1.9702,1.9069,1.8495,1.7915,1.6808,0.0,0.0,0.0,0.0,0.0,0.0,0.0,0.0,0.0,0.0,0.0,0.0,0.0,0.0,0.0,0.0,0.0,0.0,0.0,0.0,0.0,0.0,0.0,0.0,0.0,0.0,0.0,0.0,0.0,0.9188,0.9905,1.0339,1.0452,1.0373,0.0,0.0,0.0,0.0,0.0,0.0,0.0,0.0,0.0,1.348,1.4001,1.4621,1.5332,1.6065,1.6583,1.685,1.7362,1.7636,1.7668,1.8001,1.8288,1.8546,1.8546,1.8093,1.7297,1.6845,1.638,1.5877,0.0,0.0,0.0,0.0,1.5347,1.5184,1.6082,1.6204,1.5948,1.5819,0.0,0.0,0.0,0.0,0.0,0.0,0.0,1.6283,1.6861,1.8053,1.9032,1.8707,1.9245,1.9673,1.9097,1.8544,1.7657,1.5853,1.5453,1.5064,1.3955,1.3709,0.0,0.0,0.0,1.7057,1.9293,2.0257,2.1092,2.1965,2.2489,2.2497,2.188,2.1469,2.0966,2.0299,1.963,1.9009,1.8465,1.7669,1.6613,0.0,0.0,0.0,0.0,0.0,0.0,0.0,0.0,0.0,0.0,0.0,0.0,0.0,0.0,0.0,0.0,0.0,0.0,0.0,0.0,0.0,0.0,0.0,0.0,0.0,0.0,0.0,0.0,0.9576,1.0443,1.0669,1.1023,1.1038,0.0,0.0,0.0,0.0,0.0,0.0,1.2785,1.3226,1.3889,1.48,1.5272,1.5913,1.6721,1.7087,1.7437,1.7787,1.8178,1.8375,1.8362,1.8816,1.9115,1.9264,1.9264,1.9109,1.8794,1.8234,1.7892,1.7742,1.7458,1.734,1.739,1.784,1.7727,1.7476,1.8329,1.8342,1.7976,1.7677,1.7388,1.7014,1.6346,0.0,0.0,0.0,0.0,1.7677,1.814,1.9221,2.0137,1.9722,2.0446,2.0985,2.0131,2.0141,1.977,1.7856,1.7151,1.6582,1.5581,1.5081,0.0,1.651,1.6779,1.7552,1.9538,2.0211,2.0731,2.1331,2.1813,2.2004,2.1728,2.1119,2.0671,2.0512,1.9901,1.9376,1.8972,1.8496,1.7699,1.6529,0.0,0.0,0.0,0.0,0.0,0.0,0.0,0.0,0.0,0.0,0.0,0.0,0.0,0.0,0.0,0.0,0.0,0.0,0.0,0.0,0.0,0.0,0.0,0.0,0.0,0.0,0.0,0.0,0.0,1.1424,1.1569,0.0,0.0,0.0,0.0,1.2162,1.2609,1.325,1.4148,1.5065,1.577,1.6288,1.6684,1.714,1.7626,1.7657,1.7677,1.7698,1.7719,1.774,1.776,1.7791,1.8109,1.8654,1.8654,1.8944,1.9451,1.9542,1.9243,1.879,1.9391,1.9635,1.9648,1.9673,1.966,1.9648,1.9698,1.9698,1.9761,2.0314,1.9761,1.8958,1.9422,1.8844,0.0,0.0,2.0038,2.049,2.0528,2.0981,2.1393,2.1368,2.1433,2.1458,2.1408,2.1604,2.1196,1.9193,1.8793,1.8575,1.8022,0.0,1.7917,1.7996,1.8009,1.8453,1.9656,2.0211,2.0731,2.1331,2.1813,2.1866,2.1291,2.0667,2.0224,1.9966,1.9435,1.9291,1.9645,1.9019,1.8345,1.7624,1.6605,0.0,0.0,0.0,0.0,0.0,0.0,0.0,0.0,0.0,0.0,0.0,0.0,0.0,0.0,0.0,0.0,0.0,0.0,0.0,0.0,0.0,0.0,0.0,0.0,0.0,0.0,0.0,0.0,1.2368,1.2699,0.0,1.2646,1.2905,1.3238,1.3558,1.4283,1.4976,1.5608,1.6218,1.6738,1.7233,1.7378,1.7668,1.8143,1.8143,1.8299,1.8589,1.8589,1.8589,1.8589,1.8589,1.8718,1.8923,1.8923,1.9052,1.9297,1.9741,1.9677,1.928,1.9495,1.9608,1.9677,2.0108,2.0247,2.0303,2.0754,2.0891,2.0865,2.0742,2.0427,2.0138,2.0327,2.0113,1.9962,2.0677,2.1041,2.1219,2.1219,2.1606,2.1933,2.1568,2.1842,2.205,2.1696,2.1759,2.1721,2.1095,2.0457,1.9758,1.878,1.861,1.861,1.861,1.895,1.9473,2.0281,2.0532,2.0709,2.0921,2.1106,2.1232,2.1325,2.0429,1.9938,2.0132,1.9242,1.8784,1.8921,1.8705,1.8251,1.7584,1.7193,1.6107,0.0,0.0,0.0,0.0,0.0,0.0,0.0,0.0,0.0,0.0,0.0,0.0,0.0,0.0,0.0,0.0,0.0,0.0,0.0,0.0,0.0,0.0,0.0,0.0,0.0,1.1714,1.2768,1.3103,1.3501,1.3758,1.3845,1.4195,1.4588,1.4997,1.5711,1.6343,1.6808,1.7253,1.7606,1.7936,1.8102,1.8319,1.8642,1.8797,1.9036,1.9336,1.9482,1.953,1.953,1.953,1.953,1.953,1.953,1.953,1.9564,2.0029,2.0041,1.9826,1.9988,2.0034,2.0106,2.0539,2.0718,2.0778,2.1209,2.1355,2.1294,2.0941,2.071,2.0588,2.0771,2.0698,2.0673,2.1197,2.1355,2.1355,2.1355,2.18,2.2149,2.1791,2.2222,2.2602,2.2252,2.2302,2.2378,2.2354,2.1704,2.0938,2.0205,1.9904,1.9786,1.9786,1.9956,2.0255,2.066,2.0699,2.0699,2.0699,2.0699,2.0744,2.0863,1.994,1.9471,1.9752,1.8822,1.8324,1.8481,1.85,1.8298,1.7852,1.7166,1.6312,1.5235,0.0,0.0,0.0,0.0,0.0,0.0,0.0,0.0,0.0,0.0,0.0,0.0,0.0,0.0,0.0,0.0,0.0,0.0,0.0,0.0,0.0,0.0,0.0,1.2369,1.2689,1.3142,1.3573,1.3874,1.4126,1.4327,1.4569,1.5198,1.6327,1.677,1.7224,1.7668,1.8164,1.8434,1.8455,1.8891,1.9139,1.915,1.9596,1.9813,1.9824,2.0213,2.0385,2.0385,2.0385,2.0385,2.0385,2.0385,2.0385,2.0385,2.0385,2.0385,2.0444,2.0896,2.1074,2.1074,2.1117,2.1149,2.1138,2.1138,2.1138,2.1138,2.1138,2.0785,2.0476,2.1,2.0762,2.0465,2.0989,2.1103,2.1092,2.1092,2.1585,2.207,2.207,2.2555,2.3047,2.3047,2.3198,2.3208,2.2824,2.2388,2.214,2.2374,2.1904,2.1538,2.1538,2.108,0.0,2.0725,2.0712,2.0699,2.0687,2.0687,2.0465,1.9878,1.9264,1.8843,1.8714,1.8126,1.7988,1.8442,1.8461,1.8461,1.8461,1.6539,1.5524,1.5483,0.0,0.0,0.0,0.0,0.0,0.0,0.0,0.0,0.0,0.0,0.0,0.0,0.0,0.0,0.0,0.0,0.0,0.0,0.0,0.0,0.0,1.1154,1.183,1.219,1.357,1.4517,1.442,1.4689,1.507,1.5563,1.5409,1.5638,1.6472,1.6949,1.7288,1.7407,1.8369,1.9067,1.9409,1.9533,1.9761,2.0048,2.0182,2.0245,2.0245,2.0369,2.0385,2.0385,2.0385,2.0385,2.0385,2.0385,2.0385,2.0385,2.0385,2.0385,2.04,2.0561,2.0594,2.0663,2.119,2.1688,2.2136,2.2136,2.2136,2.2136,2.2136,2.2011,2.192,2.2057,2.176,2.1405,2.1587,2.1346,2.1092,2.1092,2.125,2.1365,2.1365,2.1534,2.1659,2.1659,2.169,2.1779,2.1902,2.1819,2.1886,2.2328,2.2257,2.2166,2.2165,2.1655,2.1276,2.1276,2.0936,2.0662,2.0562,2.0537,2.0497,2.0316,1.9357,1.8777,1.8856,1.7906,1.7413,1.7557,1.7557,1.7557,1.7557,1.6815,1.596,0.0,0.0,0.0,0.0,0.0,0.0,0.0,0.0,0.0,0.0,0.0,0.0,0.0,0.0,0.0,0.0,0.0,0.0,0.0,0.0,0.0,0.0,1.1821,1.2569,1.2726,1.3947,1.4756,1.4573,1.4796,1.5179,1.5794,1.5574,1.5671,1.6387,1.7011,1.7343,1.7343,1.8133,1.8869,1.9535,1.9535,1.9809,2.0385,2.0581,2.0674,2.071,2.0907,2.1,2.1,2.1,2.1,2.1,2.1,2.1,2.1,2.1,2.1,2.0969,0.0,0.0,0.0,0.0,2.1293,2.162,2.162,2.162,2.162,2.162,2.162,2.162,2.162,2.1433,2.1225,2.1225,2.0907,2.0566,2.0566,2.0608,2.0677,2.0677,2.0901,2.1092,2.1092,2.1092,2.1187,2.1471,2.1565,0.0,2.2131,2.227,2.2382,2.2615,2.2216,2.1786,2.1538,2.1224,2.0923,2.0613,2.0587,2.0483,2.0224,1.9562,0.0,0.0,0.0,1.746,1.7212,1.7199,0.0,0.0,0.0,0.0,0.0,1.5872,0.0,0.0,1.5457,1.5213,0.0,0.0,0.0,0.0,0.0,0.0,0.0,0.0,0.0,0.0,0.0,0.0,0.0,0.0,0.0,0.0,1.2591,1.3967,1.3561,1.3948,1.4291,1.4336,1.451,1.488,1.5425,1.5244,1.5428,1.6159,1.6889,1.7279,1.7325,1.7706,0.0,0.0,0.0,1.9502,2.0277,2.0675,2.0927,2.1049,2.1449,2.1683,2.1807,2.1807,2.1807,2.1807,2.1807,2.1807,2.1807,2.1807,2.1807,2.1725,2.086,2.055,2.055,2.055,2.055,2.055,2.055,0.0,0.0,2.055,2.055,2.055,2.055,2.0509,2.0467,2.0467,2.0182,1.9865,1.9865,1.9995,2.0129,2.0129,2.0542,2.096,2.096,2.0914,2.0933,2.1135,2.125,2.1428,2.169,2.2031,2.2401,2.2831,2.2568,2.2094,2.1482,2.1314,2.1095,2.0666,2.0588,0.0,1.9919,1.9815,1.9345,1.8349,1.8166,1.7852,1.7316,1.7238,1.7199,1.7178,1.7199,1.7199,1.7178,1.7199,1.7199,1.7146,1.5245,1.4814,0.0,0.0,0.0,0.0,0.0,0.0,0.0,0.0,0.0,0.0,0.0,0.0,0.0,0.0,0.0,1.208,1.2621,1.3093,1.3534,1.3891,1.423,1.4509,1.4812,1.5078,1.5229,1.4935,1.5141,1.6196,1.6423,1.6648,1.6885,1.7553,1.8154,1.872,1.872,1.8983,1.9493,1.9607,1.9975,2.0612,2.0701,0.0,2.1807,2.1807,2.1807,2.1807,2.1807,2.1807,2.1807,2.1807,2.1807,2.1787,2.1611,2.1538,2.1538,2.1538,2.1538,2.1538,2.1538,2.1538,2.1538,2.1538,2.1538,2.1538,2.1538,2.128,0.0,2.0943,2.0648,2.0296,2.0296,2.0294,2.0327,2.0327,2.0194,2.0056,2.0056,1.976,1.9528,1.9671,1.9726,1.9955,2.0581,2.1832,2.2607,2.2183,2.196,2.1596,2.0948,2.0249,1.9916,2.0182,1.997,1.9965,2.0331,1.9928,1.9601,1.9486,1.861,1.8048,1.7931,1.746,1.7157,1.7044,1.7136,1.7157,1.7044,1.7157,1.7199,1.7186,1.6769,1.667,0.0,0.0,0.0,0.0,0.0,0.0,0.0,0.0,0.0,0.0,0.0,1.0493,1.1209,0.0,1.1817,1.275,1.3155,1.3457,1.3799,1.4148,1.4348,1.4361,1.4632,1.4928,1.5188,1.5017,1.5201,1.5951,1.6149,1.633,1.6481,1.7005,1.7613,1.8267,1.8315,1.864,1.9295,1.9295,1.9502,1.9904,2.0304,2.0741,2.1175,2.1606,2.1807,2.1807,2.1807,2.1807,2.1807,2.1807,2.1807,2.1807,2.1807,2.1807,2.1807,2.1807,2.1807,2.1807,2.1807,2.1807,2.1807,2.1807,2.1807,2.1807,2.1807,2.1642,2.1455,2.1455,2.1124,2.0736,2.0736,2.056,2.0385,2.0385,2.0255,2.0038,1.9844,1.9616,1.9412,1.9216,1.9241,1.9407,1.9791,2.0858,2.1647,2.1639,2.1651,2.1427,2.078,2.0311,1.9968,1.9765,1.9613,1.9546,1.9578,1.9321,1.9192,1.9252,1.8791,1.8393,1.8121,1.776,1.7393,1.7008,1.7303,1.7437,1.7437,1.7784,1.7996,1.8048,1.8048,1.7904,0.0,0.0,0.0,0.0,0.0,0.0,0.0,1.0157,1.0337,1.0356,1.063,1.1028,1.1611,1.2256,1.2829,1.3219,1.3751,1.4132,1.4204,1.4423,1.4502,1.4217,1.4431,1.4748,1.5149,1.5189,1.5386,1.5753,1.6039,1.6238,1.6301,1.6539,1.7009,1.7723,1.7764,1.8078,1.8789,1.8789,1.8868,1.9067,1.9708,2.0099,2.0304,2.1175,2.153,2.1568,2.1731,2.1807,2.1807,2.1807,2.1807,2.1807,2.1807,2.1807,2.1807,2.1807,2.1807,2.1807,2.1807,2.1807,2.1807,2.1807,2.1807,2.1807,2.1807,2.1807,2.1807,2.1807,2.1538,2.1248,2.1248,2.0969,2.0653,2.0653,2.0591,2.0462,2.01,1.9917,1.9679,1.9316,1.9237,1.9241,1.9241,1.9758,2.0334,2.0912,2.1187,2.1088,2.0465,2.0327,2.0081,1.9534,1.9404,1.9258,1.889,1.8732,1.8657,1.8707,1.8666,1.847,1.8078,1.781,1.746,1.6924,1.7315,1.7581,1.7689,1.8141,1.8435,1.8575,1.8575,1.8458,0.9206,0.992,1.0601,1.1044,1.0854,1.0833,0.0,1.1901,1.1687,1.1966,1.2284,1.2518,1.2482,1.2797,1.3243,1.3894,1.4061,1.4185,1.4502,1.4581,1.4589,1.455,1.4581,1.4748,1.5149,1.5189,1.5451,1.6103,1.6182,1.6341,1.6618,1.6673,1.673,1.6853,1.6853,1.6894,1.7009,1.7009,1.7367,1.8158,1.8238,1.8669,1.9462,2.0265,2.0663,2.0702,2.1454,2.1807,2.1807,2.1807,2.1807,2.1807,2.1807,2.1807,2.1807,2.1807,2.1807,2.1807,2.1807,2.1807,2.1807,2.1807,2.1807,2.1807,2.1807,2.1807,2.1807,2.1807,2.1766,2.1725,2.1725,2.1694,2.1652,2.1652,2.1331,2.1021,2.0969,2.0363,1.9782,1.973,1.9388,1.9108,1.9108,1.9198,1.9297,1.9506,1.9944,2.0042,1.9345,1.9019,1.906,1.9624,1.9452,1.935,1.9404,1.8844,1.8564,1.8684,1.8106,1.7808,1.792,1.7283,1.6838,1.6652,1.6814,1.69,1.6925,1.7108,1.7254,1.7376,1.7376,1.7903,0.954,1.0152,1.0671,1.1074,1.1136,1.128,1.182,1.1925,1.2028,1.2388,1.2756,1.3088,1.3395,1.3584,1.3846,1.4304,1.4601,1.4712,1.4613,1.4787,1.4879,1.4629,1.4605,1.4819,1.5419,1.5505,1.5761,1.642,1.6475,1.6539,1.6681,1.6689,1.6689,1.6689,1.6689,1.6689,1.6689,1.6689,1.6894,1.7245,1.7764,1.8198,1.859,1.9423,1.9816,1.9816,2.0177,2.0333,2.0333,2.0333,2.0333,2.0333,2.0333,2.0333,2.045,2.1443,2.1807,2.1807,2.1807,2.1807,2.1807,2.1807,2.1807,2.1807,2.1807,2.1807,2.1807,2.1807,2.1807,2.1807,2.1807,2.1807,2.1807,2.1807,2.1652,2.1445,2.1176,2.0607,2.0069,1.9844,1.9419,1.9108,1.9108,1.9108,1.9108,1.9175,1.9363,1.9429,1.9131,1.8975,1.8942,1.904,1.8714,1.8409,1.822,1.8244,1.8181,1.7957,1.8074,1.8011,1.7783,1.738,1.6986,1.6596,1.6868,1.707,1.716,1.7633,1.7956,1.8084,1.8173,1.8492,0.9914,1.0343,1.0727,1.105,1.1384,1.1638,1.1638,1.1988,1.2393,1.2686,1.3092,1.3529,1.4021,1.4188,1.4304,1.4565,1.4951,1.5062,1.4653,1.4951,1.5046,1.4653,1.4605,1.4874,1.5648,1.5712,1.5975,1.6642,1.6689,1.6689,1.6689,1.6689,1.6689,1.6689,1.6689,1.6745,1.684,1.6881,1.6929,1.7016,1.7623,1.7944,1.7986,1.8836,1.9353,1.9595,1.9595,1.9531,1.943,1.943,1.9396,1.9295,1.9295,1.9295,1.9453,2.0653,2.1126,2.1126,2.1126,2.1252,2.1443,2.1443,2.1606,2.1807,2.1807,2.1807,2.1807,2.1807,2.1807,2.1807,2.1807,2.1807,2.1807,2.1807,2.1807,2.1714,2.1383,2.0901,2.0483,2.0038,1.9606,1.9253,1.9129,1.9108,1.9108,1.9108,1.9108,1.9108,1.9108,1.9131,1.905,1.8814,1.8396,1.7966,1.7534,1.7691,1.7633,1.72,1.7639,1.7749,1.7418,1.7234,1.6937,1.6552,1.6842,1.7056,1.7234,1.7738,1.8054,1.8232,1.8348,1.8387,1.0376,1.0735,1.1058,1.1392,1.1741,1.1966,1.1966,1.2552,1.306,1.3076,1.3608,1.4085,1.4109,1.4359,1.4589,1.4605,1.4951,1.5062,1.4653,1.4951,1.5046,1.4653,1.4605,1.4874,1.5648,1.5712,1.5975,1.6642,1.6689,1.6689,1.6689,1.6689,1.6689,1.6689,1.6689,1.6905,1.7262,1.7262,1.7421,1.7783,1.7783,1.7826,1.7826,1.8733,1.9528,2.0271,2.0271,2.0085,1.9761,1.9761,1.9573,1.9295,1.9295,1.9295,1.9304,1.9374,1.9383,1.9383,1.9383,1.9904,2.0537,2.0537,2.1098,2.1807,2.1807,2.1807,2.1807,2.1807,2.1807,2.1807,2.1807,2.1807,2.1807,2.1807,2.1807,2.1797,2.1787,2.1424,2.0959,2.0457,2.0048,1.9627,1.9181,1.9108,1.9108,1.9108,1.9108,1.9108,1.9108,1.9208,1.9274,1.9297,1.8921,1.8501,1.8028,1.7385,1.6938,1.663,1.6506,1.6506,1.6627,1.6506,1.6431,1.6402,1.6431,1.6534,1.6807,1.6712,1.6797,1.7056,1.6909,1.6864,1.0788,1.1241,1.1757,1.2144,1.2472,1.279,1.3004,1.3425,1.3703,1.3465,1.3791,1.4037,1.3807,1.4053,1.4256,1.4256,1.4975,1.5425,1.5046,1.5499,1.565,1.507,1.5197,1.5419,1.5696,1.5712,1.5975,1.6642,1.6689,1.6689,1.6689,1.6689,1.68,1.7088,1.7096,1.7262,1.7647,1.7647,1.7703,1.7814,1.7814,1.7814,1.7814,1.8118,1.837,1.8655,1.8655,1.8589,1.8472,1.8472,1.8397,1.828,1.828,1.828,1.828,1.828,1.828,1.8381,1.9088,1.9502,1.9698,1.9698,2.0255,2.0934,2.0934,2.1328,2.1807,2.1807,2.1807,2.1807,2.1807,2.1807,2.1807,2.1807,2.1807,2.1807,2.1807,2.1445,2.1036,2.0917,2.0276,1.9741,1.9585,1.9305,1.9108,1.9108,1.9108,1.9108,1.9108,1.9142,1.9175,1.9175,1.904,1.8791,1.8301,1.8051,1.7605,1.6919,1.6808,1.6713,1.6498,1.6431,1.6413,1.6413,1.6413,1.6431,1.6545,1.6581,1.6655,1.674,1.6779,1.6864,1.1515,1.1972,1.2488,1.2869,1.3132,1.329,1.3386,1.3672,1.3791,1.3347,1.3505,1.364,1.3282,1.3402,1.364,1.3878,1.4704,1.5276,1.5197,1.5777,1.5999,1.5427,1.5585,1.5768,1.5856,1.5864,1.6111,1.665,1.6689,1.6753,1.6921,1.6929,1.7096,1.7488,1.7496,1.7663,1.7998,1.7962,1.8025,1.8152,1.8152,1.8152,1.8152,1.8152,1.8152,1.8152,1.8152,1.8073,1.7962,1.7962,1.7926,1.7814,1.7814,1.7814,1.7814,1.7814,1.7814,1.79,1.8417,1.8762,1.8977,1.8873,1.9383,2.006,2.006,2.045,2.0924,2.0924,2.0924,2.0924,2.0924,2.1126,2.1328,2.1328,2.1568,2.1807,2.1807,2.1569,2.1311,2.1145,2.0638,2.0176,1.9855,1.9409,1.9108,1.9108,1.9108,1.9108,1.9108,1.9108,1.9108,1.9108,1.9108,1.8911,1.8445,1.8414,1.8071,1.7306,1.708,1.6882,1.6632,1.6496,1.6413,1.6413,1.6413,1.6431,1.6477,1.6506,1.6552,1.6599,1.6637,1.6789,1.2431,1.2877,1.3195,1.3529,1.3642,1.3529,1.3219,1.337,1.3419,1.2734,1.2845,1.2925,1.2606,1.2582,1.2829,1.3457,1.4196,1.4779,1.5165,1.5801,1.6103,1.5784,1.5776,1.5888,1.6198,1.6261,1.6428,1.6721,1.6729,1.6921,1.7286,1.7352,1.7504,1.783,1.7838,1.7969,1.8319,1.8327,1.8494,1.8781,1.8781,1.8781,1.8781,1.8781,1.8781,1.8781,1.8781,1.8637,1.8327,1.8327,1.8128,1.787,1.787,1.787,1.787,1.787,1.787,1.7822,1.7488,1.7843,1.8412,1.807,1.8545,1.9253,1.9225,1.9256,1.9295,1.9295,1.9295,1.9295,1.9295,1.9864,2.0459,2.0498,2.1136,2.1769,2.1807,2.1807,2.1673,2.1238,2.1135,2.0824,1.9948,1.943,1.9129,1.9108,1.9108,1.9108,1.9108,1.9108,1.9108,1.9108,1.9108,1.8922,1.8486,1.8445,1.8226,1.7761,1.7327,1.7068,1.7048,1.6674,1.6475,1.6475,1.6475,1.6511,1.6612,1.6511,1.6511,1.6612,1.6511,1.6674,1.2838,1.3235,1.3545,1.3894,1.3974,1.395,1.387,1.3711,1.3419,1.2734,1.2417,1.2186,1.1829,1.2417,1.3044,1.3187,1.445,1.5451,1.5577,1.6158,1.6468,1.6111,1.654,1.6802,1.6578,1.7064,1.7448,1.7501,1.7278,1.7286,1.7671,1.7687,1.7846,1.8152,1.816,1.8335,1.8692,1.8692,1.874,1.8781,1.8781,1.8781,1.8781,1.8781,1.8781,1.8781,1.8781,1.8726,1.8692,1.8692,1.8637,1.8557,1.8557,1.8557,1.8557,1.8557,1.8557,1.851,1.816,1.8033,1.7916,1.7576,1.802,1.8652,1.8397,1.8789,1.9295,1.9295,1.9295,1.9295,1.9295,1.9453,1.9777,2.0343,2.0663,2.1021,2.1655,2.1807,2.1766,2.1652,2.1352,2.0824,1.9948,1.9699,1.9502,1.915,1.9108,1.9108,1.9108,1.9108,1.9108,1.9108,1.9108,1.9056,1.8942,1.8922,1.8735,1.8247,1.8102,1.7895,1.7544,1.742,1.7358,1.7358,1.7358,1.7212,1.69,1.7212,1.7212,1.69,1.7222,1.747,1.3441,1.3791,1.4093,1.4256,1.4228,1.4029,1.3727,1.3394,1.2885,1.1882,1.1635,1.1368,1.0693,1.1447,1.2274,1.2575,1.3958,1.5149,1.561,1.6285,1.6722,1.6675,1.7032,1.7254,1.7191,1.754,1.7878,1.7993,1.7691,1.7687,1.7985,1.8001,1.8168,1.8518,1.8533,1.8629,1.8781,1.8781,1.8781,1.8781,1.8781,1.8781,1.8781,1.8781,1.8781,1.8781,1.8781,1.8781,1.8781,1.8781,1.8781,1.8781,1.8781,1.8781,1.8781,1.8781,1.8781,1.8758,1.8597,1.8398,1.8152,1.7703,1.7819,1.8119,1.7805,1.8017,1.8383,1.8201,1.8158,1.8158,1.8158,1.843,1.8829,1.9304,1.9943,2.0624,2.1126,2.153,2.1807,2.1807,2.1424,2.0948,2.0441,2.0062,1.971,1.945,1.9233,1.9108,1.9108,1.9108,1.9108,1.9108,1.9108,1.9108,1.9108,1.9108,1.8994,1.8735,1.8528,1.8268,1.803,1.7802,1.7699,1.7699,1.7699,1.7575,1.7316,1.7575,1.7564,1.7316,1.7585,1.7864,1.4069,1.4375,1.4605,1.4605,1.4304,1.387,1.3235,1.2742,1.2025,1.0759,1.0637,1.0518,0.9628,1.0303,1.1241,1.1972,1.3227,1.4474,1.5569,1.6246,1.6818,1.7231,1.7318,1.752,1.7811,1.7926,1.8041,1.8343,1.8081,1.8041,1.8351,1.8367,1.851,1.8773,1.8781,1.8781,1.8781,1.8781,1.8781,1.8781,1.8781,1.8781,1.8781,1.8781,1.8781,1.8781,1.8781,1.8781,1.8781,1.8781,1.8781,1.8781,1.8781,1.8781,1.8781,1.8781,1.8781,1.8781,1.8781,1.8781,1.8716,1.8057,1.7886,1.7822,1.7488,1.736,1.7215,1.6897,1.6729,1.6689,1.6689,1.7245,1.7844,1.7957,1.9107,2.0226,2.0459,2.1175,2.1807,2.1807,2.1476,2.1186,2.1124,2.0462,1.9938,1.9813,1.945,1.917,1.9108,1.9108,1.9108,1.9108,1.9108,1.9108,1.9108,1.9108,1.9108,1.9108,1.8725,1.8507,1.8507,1.8112,1.7884,1.7884,1.7884,1.7854,1.7781,1.7854,1.7843,1.7792,1.7854,1.8112,1.4336,1.4557,1.4605,1.4605,1.4156,1.3568,1.3179,1.2146,1.1141,1.0607,1.0066,0.9708,0.9787,1.047,1.132,1.2335,1.3394,1.4474,1.5569,1.6031,1.654,1.7199,1.7517,1.7819,1.8168,1.847,1.8669,1.8732,1.8676,1.8669,1.8732,1.8686,1.8718,1.8781,1.8781,1.8781,1.8781,1.8781,1.8781,1.8781,1.8781,1.8781,1.8781,1.8781,1.8781,1.8781,1.8781,1.8781,1.8781,1.8781,1.8781,1.8781,1.8781,1.8781,1.8781,1.8781,1.8781,1.8781,1.8781,1.8781,1.8756,1.8343,1.8208,1.8144,1.7787,1.7536,1.7305,1.7199,1.6969,1.6689,1.6689,1.6812,1.7131,1.7836,1.8238,1.8789,2.0187,2.1175,2.1807,2.1807,2.1745,2.1569,2.1186,2.0979,2.0627,1.9907,1.973,1.9533,1.915,1.9108,1.9108,1.9108,1.9108,1.9108,1.9108,1.9108,1.9108,1.9108,1.9025,1.8984,1.8984,1.8911,1.887,1.887,1.887,1.8683,1.8268,1.8683,1.8673,1.8278,1.8694,1.8911,1.4462,1.4605,1.4557,1.4375,1.3839,1.3187,1.2655,1.1598,1.0591,1.0042,0.9636,0.9334,0.9152,1.0002,1.091,1.142,1.2535,1.3735,1.4967,1.5451,1.6134,1.7432,1.7719,1.7985,1.8526,1.8724,1.8781,1.8781,1.8781,1.8781,1.8781,1.8781,1.8781,1.8781,1.8781,1.8781,1.8781,1.8781,1.8781,1.8781,1.8781,1.8781,1.8781,1.8781,1.8781,1.8781,1.8781,1.8781,1.8781,1.8781,1.8781,1.8781,1.8781,1.8781,1.8781,1.8781,1.8781,1.8781,1.8781,1.8781,1.8758,1.8629,1.8573,1.851,1.8152,1.7811,1.7544,1.7368,1.7016,1.6689,1.6689,1.6689,1.6812,1.7204,1.7683,1.8359,1.958,2.0216,2.0605,2.1049,2.1126,2.1181,2.1432,2.1269,2.0969,2.0534,2.0093,1.971,1.9492,1.9253,1.9108,1.9108,1.9108,1.9108,1.9108,1.9108,1.9108,1.9108,1.9108,1.9108,1.9108,1.9108,1.9108,1.9108,1.9108,1.8994,1.8766,1.8994,1.8984,1.8776,1.9005,1.9108,1.4293,1.4478,1.4518,1.4161,1.3537,1.2814,1.2133,1.1098,1.0106,0.9494,0.9279,0.9032,0.8551,0.939,1.0257,1.056,1.1595,1.2846,1.4288,1.4903,1.5839,1.7512,1.7767,1.8049,1.871,1.8781,1.8781,1.8781,1.8781,1.8781,1.8781,1.8781,1.8781,1.8781,1.8781,1.8781,1.8781,1.8781,1.8781,1.8781,1.8781,1.8781,1.8781,1.8781,1.8781,1.8781,1.8781,1.8781,1.8781,1.8781,1.8781,1.8781,1.8781,1.8781,1.8781,1.8781,1.8781,1.8781,1.8781,1.8781,1.8781,1.8781,1.8781,1.8726,1.8494,1.8112,1.7759,1.7504,1.7072,1.6689,1.6689,1.6689,1.6689,1.6689,1.7367,1.8198,1.8868,1.9177,1.9502,2.0099,2.0226,2.0537,2.1367,2.1234,2.0995,2.1098,2.0503,2.0052,1.9948,1.9616,1.9357,1.9264,1.916,1.9108,1.9108,1.9108,1.9108,1.9108,1.9108,1.9108,1.9108,1.9108,1.9108,1.9108,1.9108,1.9108,1.9108,1.9108,1.9108,1.9108,1.9108,1.9108,1.3542,1.4041,1.4518,1.4161,1.3354,1.2535,1.2107,0.0,0.9454,0.9329,0.887,0.8519,0.8649,0.8879,0.9469,1.074,1.1304,1.2194,1.3918,1.4752,1.5713,1.7151,1.7631,1.8049,1.871,1.8781,1.8781,1.8781,1.8781,1.8781,1.8781,1.8781,1.8781,1.8781,1.8781,1.8781,1.8781,1.8781,1.8781,1.8781,1.8781,1.8781,1.8781,1.8781,1.8781,1.8781,1.8781,1.8781,1.8781,1.8781,1.8781,1.8781,1.8781,1.8781,1.8781,1.8781,1.8781,1.8781,1.8781,1.8781,1.8781,1.8781,1.8781,1.8773,1.8742,1.8311,1.7806,1.7775,1.7247,1.6689,1.6689,1.6689,1.6689,1.6689,1.7367,1.8037,1.8118,1.8749,1.9335,1.9423,1.9413,1.9659,2.0459,2.0585,2.0697,2.1065,2.1041,2.0845,2.0385,2.0327,2.0141,1.9772,1.9357,1.9108,1.9108,1.9108,1.9108,1.9108,1.9108,1.9108,1.9108,1.9108,1.9108,1.9108,1.9108,1.9108,1.9108,1.9108,1.9108,1.9108,1.9108,1.9108,1.3718,1.4195,1.447,1.3934,1.3204,1.2439,1.1829,1.0502,0.9375,0.9321,0.8749,0.8297,0.838,0.8618,0.9117,1.0167,1.0645,1.1444,1.2988,1.3608,1.4593,1.6412,1.6937,1.7588,1.867,1.8781,1.8781,1.8781,1.8781,1.8781,1.8781,1.8781,1.8781,1.8781,1.8781,1.8781,1.8781,1.8781,1.8781,1.8781,1.8781,1.8781,1.8781,1.8781,1.8781,1.8781,1.8781,1.8781,1.8781,1.8781,1.8781,1.8781,1.8781,1.8781,1.8781,1.8781,1.8781,1.8781,1.8781,1.8781,1.8781,1.8781,1.8684,1.851,1.851,1.816,1.7775,1.7575,1.7119,1.6689,1.6689,1.6689,1.6689,1.6689,1.6976,1.7204,1.7204,1.748,1.7876,1.8439,1.851,1.8789,1.962,2.0177,2.0566,2.0695,2.0944,2.1041,2.0866,2.056,2.0358,2.0182,1.9793,1.9409,1.9129,1.9108,1.9108,1.9108,1.9108,1.9108,1.9108,1.9108,1.9108,1.9108,1.9108,1.9108,1.9108,1.9108,1.9108,1.9108,1.9108,1.9108,1.3181,1.3741,1.4126,1.3584,1.2885,1.2212,1.163,1.0399,0.9375,0.9252,0.8713,0.8237,0.8147,0.8481,0.8991,0.0,1.016,1.095,1.2248,1.2798,1.3751,1.5531,1.6071,1.6862,1.824,1.8645,1.8781,1.8781,1.8781,1.8781,1.8781,1.8781,1.8781,1.8781,1.8781,1.8781,1.8781,1.8781,1.8781,1.8781,1.8781,1.8781,1.8781,1.8781,1.8781,1.8781,1.8781,1.8781,1.8781,1.8781,1.8781,1.8781,1.8781,1.8781,1.8781,1.8781,1.8781,1.8781,1.8781,1.8781,1.8781,1.8781,1.8661,1.8438,1.8327,1.7985,1.7639,1.7504,1.7096,1.6689,1.6689,1.6689,1.6689,1.6689,1.6689,1.6689,1.6689,1.6689,1.6894,1.748,1.7602,1.7876,1.8789,1.9383,1.9943,2.0421,2.0751,2.1012,2.1273,2.1031,2.0746,2.0602,2.0348,1.9958,1.9357,1.9181,1.9108,1.9108,1.9108,1.9108,1.9108,1.9108,1.9108,1.9108,1.9108,1.9108,1.9108,1.9108,1.9108,1.9108,1.9108,1.9108,1.1466,1.2303,1.3345,1.3155,1.2467,1.1756,1.1546,1.0399,0.9329,0.9136,0.8735,0.8304,0.8041,0.8502,0.9009,0.9342,1.0026,1.0854,1.1847,1.2639,1.3481,1.4494,1.5097,1.5889,1.7191,1.8224,1.8781,1.8781,1.8781,1.8781,1.8781,1.8781,1.8781,1.8781,1.8781,1.8781,1.8781,1.8781,1.8781,1.8781,1.8781,1.8781,1.8781,1.8781,1.8781,1.8781,1.8781,1.8781,1.8781,1.8781,1.8781,1.8781,1.8781,1.8781,1.8781,1.8781,1.8781,1.8781,1.8781,1.8781,1.8781,1.8781,1.8781,1.871,1.8406,1.7826,1.735,1.7719,1.727,1.6689,1.6689,1.6689,1.6689,1.6689,1.6689,1.6689,1.6689,1.6689,1.6689,1.6689,1.6689,1.7009,1.7876,1.8037,1.859,2.0265,2.0498,2.0808,2.1683,2.1797,2.1621,2.1155,2.1104,2.0731,1.9865,1.9367,1.9108,1.9108,1.9108,1.9108,1.9108,1.9108,1.9108,1.9108,1.9108,1.9108,1.9108,1.9108,1.9108,1.9108,1.9108,1.9108,1.1353,1.1882,1.2327,1.2057,1.18,1.1447,1.095,1.0065,0.9289,0.8835,0.8427,0.8103,0.8021,0.8375,0.9088,1.0294,1.0867,0.0,1.2304,1.3195,1.4016,1.4676,1.6224,1.7492,1.8049,1.8424,1.8658,1.8781,1.8781,1.8781,1.8781,1.8781,1.8781,1.8781,1.8781,1.8781,1.8781,1.8781,1.8781,1.8781,1.8781,1.8781,1.8781,1.8781,1.8781,1.8781,1.8781,1.8781,1.8781,1.8781,1.8781,1.8781,1.8781,1.8781,1.8781,1.8781,1.8781,1.8781,1.8781,1.8781,1.8781,1.8781,1.8615,1.8486,1.8621,1.8343,1.7898,1.7583,1.7096,1.6689,1.6689,1.6689,1.6689,1.6689,1.6689,1.6689,1.6689,1.6689,1.6689,1.6689,1.6689,1.6771,1.7049,1.7602,1.8399,1.9502,2.0138,2.0818,2.1683,2.1807,2.1745,2.16,2.13,2.0752,1.9876,1.9658,1.944,1.9119,1.9108,1.9108,1.9108,1.9108,1.9108,1.9108,1.9108,1.9108,1.9108,1.9108,1.9108,1.9108,1.9108,1.9108,1.0208,1.0761,1.1136,1.1131,1.1079,1.0874,1.0348,0.9668,0.9024,0.8607,0.8244,0.8038,0.8133,0.8545,0.9237,1.0328,1.0803,1.1372,1.2242,1.2964,1.3768,1.4757,1.6427,1.7613,1.7932,1.8279,1.8566,1.8781,1.8781,1.8781,1.8781,1.8781,1.8781,1.8781,1.8781,1.8781,1.8781,1.8781,1.8781,1.8781,1.8781,1.8781,1.8781,1.8781,1.8781,1.8781,1.8781,1.8781,0.0,1.8781,1.8781,1.8781,1.8781,1.8781,1.8781,1.8781,1.8781,1.8781,1.8781,1.8781,1.8781,1.8781,1.8676,1.8518,1.8605,1.8383,1.7985,1.7437,1.7016,1.6689,1.6689,1.6689,1.6689,1.6689,1.6689,1.6689,1.6689,1.6689,1.6689,1.6689,1.6689,1.6689,1.6689,1.7172,1.7917,1.9107,1.9737,2.0459,2.1645,2.1807,2.1807,2.1807,2.1549,2.1073,2.0338,1.999,1.9741,1.9592,1.9295,1.9181,1.9357,1.9191,1.9108,1.9108,1.9108,1.9108,1.9108,1.9108,1.9108,1.9108,1.9108,1.9191,0.0,0.9059,0.9902,1.0285,1.024,1.0068,0.9775,0.919,0.0,0.8407,0.8165,0.8072,0.8385,0.8905,0.9393,0.9757,1.0148,1.0805,1.1927,1.2328,1.3161,1.4888,1.5955,1.6726,1.711,1.791,1.852,1.8781,1.8781,1.8781,1.8781,1.8781,1.8781,1.8781,1.8781,1.8781,1.8781,1.8781,1.8781,1.8781,1.8781,1.8781,1.8781,1.8781,1.8781,1.8781,1.8781,1.8781,1.8781,1.8781,1.8781,1.8781,1.8781,1.8781,1.8781,1.8781,1.8781,1.8781,1.8781,1.8781,1.8781,1.8781,1.8781,1.8764,1.8406,1.8057,1.7743,1.7374,1.7016,1.6689,1.6689,1.6689,1.6689,1.6689,1.6689,1.6689,1.6689,1.6689,1.6689,1.6689,1.6689,1.6689,1.6689,1.6689,1.7286,1.8948,1.9256,1.9894,2.1492,2.1769,2.1807,2.1807,2.1807,2.1631,2.1207,2.0394,2.0052,2.0364,1.9634,1.9388,1.9824,1.9399,1.915,1.915,1.9119,1.9119,1.915,1.9119,1.9139,1.9202,1.917,1.9399,0.6787,0.0,0.8933,0.9082,0.9314,0.9424,0.0,0.878,0.8514,0.8106,0.7972,0.8092,0.861,0.8944,0.9538,1.0721,1.1215,1.1756,1.2695,1.3933,1.5124,1.6164,1.6781,1.7255,1.7528,1.7771,1.8102,1.8527,1.8566,1.8658,1.8781,1.8781,1.8781,1.8781,1.8781,1.8781,1.8781,1.8781,1.8781,1.8781,1.8781,1.8781,1.8781,1.8781,1.8781,1.8781,1.8781,1.8781,1.8781,1.8781,1.8781,1.8781,1.8781,1.8781,1.8781,1.8781,1.8781,1.8781,1.8781,1.8781,1.8781,1.8781,1.8781,1.8764,1.8406,1.8057,1.7743,1.7374,1.7016,1.6689,1.6689,1.6689,1.6689,1.6689,1.6689,1.6689,1.6689,1.6689,1.6689,1.6689,1.6689,1.6689,1.6689,1.6689,1.709,1.8158,1.8868,1.9659,2.0702,2.1367,2.1807,2.1807,2.1807,2.1766,2.1652,2.1124,2.069,2.0405,2.0224,2.0151,2.0265,1.9876,1.9637,1.9637,1.9285,1.9285,1.9627,1.9285,1.9427,2.01,1.9793,1.9876,0.6664,0.7516,0.8443,0.8564,0.8897,0.9067,0.8652,0.8417,0.8194,0.7874,0.7934,0.8194,0.8744,0.9159,0.9756,1.0774,1.1291,1.2043,1.3406,1.4897,1.6084,1.6784,1.712,1.7426,1.7675,1.7815,1.8048,1.8481,1.8566,1.8697,1.8781,1.8781,1.8781,1.8781,1.8781,1.8781,1.8781,1.8781,1.8781,1.8781,1.8781,1.8781,1.8781,1.8781,1.8781,1.8781,1.8781,1.8781,1.8781,1.8781,1.8781,1.8781,1.8781,1.8781,1.8781,1.8781,1.8781,1.8781,1.8781,1.8781,1.8781,1.8781,1.8781,1.8764,1.8406,1.8057,1.7743,1.7374,1.7016,1.6689,1.6689,1.6689,1.6689,1.6689,1.6689,1.6689,1.6689,1.6689,1.6689,1.6689,1.6689,1.6689,1.6689,1.6689,1.7009,1.7876,1.839,1.9146,2.0343,2.0895,2.1367,2.1769,2.1807,2.1807,2.1807,2.158,2.1321,2.1073,2.0659,2.0488,2.0695,2.0307,2.001,1.9803,1.9717,1.9717,1.9793,1.9717,1.9944,2.0385,2.0182,2.0307,0.703,0.7652,0.8263,0.8446,0.8739,0.8867,0.8528,0.0,0.0,0.0,0.0,0.8437,0.8947,0.9515,1.0072,1.0564,1.121,1.2249,1.4004,1.5383,1.6397,1.6873,1.712,1.738,1.7628,1.7854,1.8094,1.8342,1.8558,1.8689,1.8735,1.8781,1.8781,1.8781,1.8781,1.8781,1.8781,1.8781,1.8781,1.8781,1.8781,1.8781,1.8781,1.8781,1.8781,1.8781,1.8781,1.8781,1.8781,1.8781,1.8781,1.8781,1.8781,1.8781,1.8781,1.8781,1.8781,1.8781,1.8781,1.8781,1.8781,1.8781,1.8781,1.8764,1.8406,1.8089,1.783,1.7488,1.7056,1.6689,1.6689,1.6689,1.6689,1.6689,1.6689,1.6689,1.6689,1.6689,1.6689,1.6689,1.6689,1.6689,1.6689,1.6689,1.6935,1.7683,1.7917,1.851,1.9943,2.0226,2.0663,2.1492,2.1606,2.1655,2.1807,2.1807,2.1807,2.1807,2.1036,2.0746,2.1104,2.0705,2.0317,1.9907,2.0234,2.0276,2.0,2.0276,2.0457,2.0591,2.0529,2.0772,0.6704,0.7545,0.8387,0.8401,0.8633,0.8819,0.8743,0.866,0.0,0.0,0.0,0.8842,0.9539,1.0106,1.0676,1.1252,1.2358,1.3477,1.4318,1.5472,1.6268,1.6463,1.6983,1.7333,1.738,1.738,1.752,1.7815,1.804,1.8326,1.852,1.8697,1.8781,1.8781,1.8781,1.8781,1.8781,1.8781,1.8781,1.8781,1.8781,1.8781,1.8781,1.8781,1.8781,1.8781,1.8781,1.8781,1.8781,1.8781,1.8781,1.8781,1.8781,1.8781,1.8781,1.8781,1.8781,1.8781,1.8781,1.8781,1.8781,1.8781,1.8781,1.8764,1.8406,1.8255,1.8144,1.7838,1.7231,1.6689,1.6689,1.6689,1.6689,1.6689,1.6689,1.6689,1.6689,1.6689,1.6689,1.6689,1.6689,1.6689,1.6689,1.6689,1.6738,1.6894,1.7521,1.8078,1.8359,1.9027,1.9816,2.0615,2.0702,2.1011,2.1731,2.1807,2.1807,2.1807,2.1673,2.1445,2.1124,2.1041,2.0793,2.0338,2.0354,2.0586,2.0907,2.055,2.0824,2.159,2.1186,2.1259,0.6569,0.734,0.8127,0.8551,0.8957,0.9275,0.9456,0.9334,0.9234,0.0,0.9605,0.9849,1.0257,1.0946,1.1707,1.2596,1.3469,1.4238,1.487,1.5567,1.6086,1.627,1.6617,1.6806,1.6806,1.7066,1.7307,1.7406,1.7995,1.8381,1.8481,1.8697,1.8781,1.8781,1.8781,1.8781,1.8781,1.8781,1.8781,1.8781,1.8781,1.8781,1.8781,1.8781,1.8781,1.8781,1.8781,1.8781,1.8781,1.8781,1.8781,1.8781,1.8781,1.8781,1.8781,1.8781,1.8781,1.8781,1.8781,1.8781,1.8781,1.8781,1.8781,1.875,1.8637,1.8446,1.8263,1.8097,1.7564,1.7032,1.7032,1.684,1.6689,1.6689,1.6689,1.6689,1.6689,1.6689,1.6689,1.6689,1.6689,1.6689,1.6689,1.6689,1.6689,1.6689,1.7049,1.7489,1.7957,1.835,1.8908,1.9777,1.9855,2.0021,2.0411,2.0847,2.129,2.1769,2.1807,2.1714,2.1497,2.1487,2.1269,2.0803,2.1041,2.1155,2.1114,2.1155,2.1393,2.1797,2.159,2.16,0.6735,0.7331,0.7951,0.8797,0.9328,0.9736,1.0122,1.0087,1.0049,1.0371,1.0708,1.0986,1.1005,1.1727,1.2704,1.3878,1.4355,1.4771,1.5242,1.5673,1.5956,1.6113,1.6308,1.6411,1.6411,1.6773,1.7018,1.7018,1.7675,1.8102,1.8102,1.8369,1.849,1.849,1.8536,1.8581,1.8581,1.8661,1.8694,1.8781,1.8781,1.8781,1.8781,1.8781,1.8781,1.8781,1.8781,1.8781,1.8781,1.8781,1.8781,1.8781,1.8781,1.8781,1.8781,1.8781,1.8781,1.8781,1.8781,1.8781,1.8781,1.8781,1.8781,1.8781,1.8781,1.8637,1.8422,1.8422,1.7922,1.744,1.744,1.7064,1.6713,1.68,1.6753,1.6689,1.6689,1.6689,1.6689,1.6689,1.6689,1.6689,1.6689,1.6689,1.6689,1.6689,1.6689,1.6927,1.7602,1.7683,1.8037,1.8899,1.8979,1.9067,1.9295,1.9855,2.0576,2.1443,2.1683,2.1807,2.1807,2.1807,2.1631,2.128,2.1432,2.1318,2.0971,2.1118,2.1328,2.1492,2.1492,2.1606,0.7302,0.7758,0.8131,0.9113,0.9575,0.9922,1.0459,1.0785,1.1092,1.1437,1.1744,1.1943,1.1776,1.2397,1.3362,1.4699,1.4875,1.498,1.535,1.5694,1.5921,1.5913,1.6184,1.6411,1.6411,1.6433,1.6448,1.6448,1.675,1.6906,1.6906,1.7339,1.7603,1.7603,1.7771,1.7886,1.7886,1.8168,1.8502,1.8781,1.8781,1.8781,1.8781,1.8781,1.8781,1.8781,1.8781,1.8781,1.8781,1.8781,1.8781,1.8781,1.8781,1.8781,1.8781,1.8781,1.8781,1.8781,1.8781,1.8781,1.8781,1.8781,1.8781,1.8781,1.8781,1.8765,1.8742,1.8742,1.8279,1.7775,1.7775,1.7239,1.6776,1.7159,1.6976,1.6689,1.6689,1.6689,1.6689,1.6689,1.6689,1.6689,1.6689,1.6689,1.6689,1.6689,1.6689,1.673,1.6771,1.6771,1.7131,1.7997,1.8078,1.843,1.9225,1.9335,1.9737,2.0537,2.1367,2.1807,2.1807,2.1807,2.1787,2.1756,2.1001,2.0566,2.0537,1.9846,1.9855,2.0576,2.0576,2.1021,0.6852,0.7632,0.8348,0.8933,0.9908,1.0836,1.1259,1.1437,1.1777,1.2672,1.2939,1.3024,1.3037,1.3245,1.3744,1.4658,1.4847,1.5017,1.5345,1.5491,1.5571,1.5571,1.5716,1.5782,1.5782,1.5965,1.6089,1.6089,1.6543,1.6786,1.6786,1.7087,1.735,1.7489,1.7569,1.7692,1.7814,1.795,1.8041,1.8168,1.839,1.8383,1.8168,1.8168,1.8287,1.8494,1.8494,1.8629,1.8781,1.8781,1.8781,1.8781,1.8781,1.8781,1.8781,1.8781,1.8781,1.8781,1.8781,1.8781,1.8781,1.8781,1.8781,1.8781,1.8781,1.8676,1.8541,1.8718,1.8319,1.787,1.8041,1.7588,1.7159,1.7544,1.7326,1.7072,1.7072,1.6897,1.6689,1.6689,1.6689,1.6689,1.6689,1.6689,1.6689,1.6689,1.6689,1.6689,1.6689,1.6689,1.6812,1.7164,1.7212,1.7521,1.8439,1.847,1.8868,1.9698,2.006,2.0692,2.1769,2.0808,2.0489,2.0972,2.0177,1.9737,1.9737,1.9462,1.9462,1.9737,1.9737,1.9933,0.6852,0.7745,0.861,0.909,1.0127,1.12,1.1962,1.2179,1.2531,1.367,1.3918,1.3953,1.4132,1.4029,1.4156,1.4718,1.4976,1.5174,1.556,1.5472,1.5472,1.559,1.5472,1.5423,1.5506,1.5628,1.5717,1.5717,1.6137,1.6349,1.6349,1.6551,1.6802,1.704,1.7118,1.7239,1.7445,1.7556,1.7556,1.7445,1.7803,1.7906,1.7814,1.7814,1.7962,1.8295,1.8184,1.8398,1.8773,1.8708,1.8678,1.8765,1.8654,1.8732,1.8781,1.8781,1.8781,1.8781,1.8781,1.8781,1.8781,1.8781,1.8781,1.8781,1.8781,1.8661,1.8494,1.8629,1.8311,1.7993,1.824,1.7866,1.7517,1.7902,1.7596,1.7278,1.7278,1.6992,1.6689,1.6689,1.6689,1.6689,1.6689,1.6689,1.6689,1.6689,1.6689,1.6689,1.6689,1.6689,1.6689,1.6689,1.6689,1.6927,1.7521,1.7602,1.7957,1.8829,1.863,1.9225,2.0934,1.9894,1.958,2.0099,1.9304,1.8908,1.8908,1.863,1.863,1.8908,1.8908,1.9027,0.7516,0.8187,0.8886,0.9697,1.0162,1.0857,1.2523,1.2996,1.3386,1.4399,1.4605,1.4644,1.485,1.4696,1.4623,1.5026,1.5282,1.5548,1.6046,1.5714,1.559,1.6046,1.568,1.5465,1.5692,1.5499,1.5389,1.5389,1.5389,1.5389,1.5389,1.5575,1.5824,1.6087,1.6278,1.6476,1.6689,1.7096,1.7096,1.6697,1.7104,1.7488,1.7806,1.7806,1.7954,1.8271,1.7922,1.8168,1.8742,1.8438,1.8502,1.8742,1.8438,1.8518,1.8781,1.8781,1.8781,1.8781,1.8781,1.8781,1.8781,1.8781,1.8781,1.8781,1.8781,1.8781,1.8748,1.8398,1.8295,1.8295,1.8295,1.8033,1.7902,1.8216,1.7779,1.7286,1.7278,1.6992,1.6689,1.6689,1.6689,1.6689,1.6689,1.6689,1.6689,1.6689,1.6689,1.6689,1.6689,1.6689,1.6689,1.6689,1.6689,1.6689,1.6689,1.6689,1.709,1.7917,1.7164,1.7489,1.9225,1.9295,1.9295,1.9304,1.843,1.7997,1.7997,1.7131,1.7131,1.7997,1.7997,1.843,0.7304,0.8076,0.9005,0.9723,1.0829,1.1926,1.2719,1.2931,1.3358,1.476,1.4912,1.4903,1.5217,1.4965,1.4841,1.5172,1.5116,1.5242,1.5752,1.5699,1.5658,1.5782,1.5699,1.5582,1.5506,1.5431,1.5389,1.5389,1.5389,1.5389,1.5389,1.5465,1.5582,1.5824,1.6079,1.6286,1.6476,1.6759,1.68,1.6689,1.68,1.6945,1.704,1.704,1.7239,1.7572,1.7469,1.7676,1.8073,1.7969,1.8136,1.8446,1.8343,1.8518,1.8781,1.8781,1.8781,1.8796,1.8541,1.8454,1.8454,1.8454,1.8454,1.8502,1.8756,1.8653,1.8438,1.8327,1.812,1.793,1.793,1.785,1.7902,1.8216,1.7954,1.7607,1.7368,1.6992,1.6689,1.6689,1.6689,1.6689,1.6689,1.6689,1.6689,1.6689,1.6689,1.6689,1.6689,1.6689,1.6689,1.6689,1.6689,1.6689,1.6689,1.6689,1.6812,1.709,1.6853,1.7489,1.9225,1.8118,1.7764,1.835,1.7521,1.709,1.709,1.6812,1.6812,1.709,1.709,1.7204,0.772,0.8578,0.9554,1.0282,1.1356,1.2406,1.319,1.3585,1.4134,1.5181,1.5304,1.5293,1.5561,1.5388,1.53,1.5385,1.5327,1.5353,1.5801,1.5782,1.5775,1.594,1.5906,1.5831,1.5673,1.559,1.5506,1.5431,1.5389,1.5389,1.5389,1.5389,1.5506,1.5692,1.5955,1.6203,1.6394,1.6607,1.6689,1.6689,1.6689,1.6689,1.6689,1.6689,1.6937,1.7329,1.7456,1.7552,1.7615,1.7615,1.7822,1.8073,1.7946,1.8105,1.8406,1.8406,1.8406,1.8375,1.816,1.8089,1.8089,1.8089,1.8089,1.8152,1.851,1.8367,1.8089,1.8089,1.7982,1.7783,1.7655,1.7719,1.787,1.8041,1.787,1.7568,1.7326,1.6992,1.6689,1.6689,1.6689,1.6689,1.6689,1.6689,1.6689,1.6689,1.6689,1.6689,1.6689,1.6689,1.6689,1.6689,1.6689,1.6689,1.6689,1.6689,1.6689,1.6689,1.6689,1.7172,1.8238,1.7245,1.6935,1.748,1.6976,1.6689,1.6689,1.6689,1.6689,1.6689,1.6689,1.6689,0.848,0.9336,1.0249,1.1078,1.1783,1.2599,1.3873,1.4665,1.5229,1.5562,1.5634,1.5707,1.5889,1.5895,1.5839,1.5662,1.571,1.5824,1.6087,1.5906,1.5899,1.6353,1.6203,1.6046,1.6046,1.5831,1.5616,1.5431,1.5389,1.5389,1.5389,1.5389,1.5458,1.565,1.5955,1.6162,1.6312,1.6566,1.6689,1.6648,1.6689,1.6689,1.6648,1.6689,1.6913,1.7247,1.7591,1.7552,1.7231,1.7231,1.7472,1.7735,1.744,1.7477,1.7814,1.7814,1.7814,1.7806,1.7783,1.7767,1.7767,1.7767,1.7767,1.7838,1.8144,1.8025,1.7806,1.7775,1.7767,1.7695,1.731,1.7453,1.7719,1.7719,1.7512,1.727,1.7239,1.6969,1.6689,1.6689,1.6689,1.6689,1.6689,1.6689,1.6689,1.6689,1.6721,1.6729,1.6697,1.6721,1.6729,1.6697,1.6689,1.6689,1.6689,1.6689,1.6689,1.6689,1.6689,1.6689,1.6689,1.6689,1.6689,1.6689,1.6689,1.6689,1.6689,1.6689,1.6689,1.6689,1.6689,1.6689,0.8268,0.8999,0.9963,1.1018,1.2393,1.3629,1.434,1.4613,1.4855,1.5213,1.5292,1.5475,1.6047,1.6023,1.5916,1.5975,1.6,1.6046,1.6087,1.6046,1.6121,1.6353,1.6023,1.5782,1.5782,1.5582,1.5465,1.5389,1.5389,1.5389,1.5389,1.5389,1.5431,1.5465,1.588,1.6038,1.5858,1.6402,1.6607,1.6476,1.6607,1.6607,1.6476,1.6648,1.6737,1.6816,1.6929,1.6913,1.6808,1.6808,1.7064,1.7416,1.7352,1.7477,1.7814,1.7814,1.7814,1.7775,1.752,1.7432,1.7432,1.7432,1.7432,1.7488,1.783,1.7878,1.7759,1.7504,1.7432,1.7302,1.6945,1.6864,1.6953,1.6953,1.7119,1.7199,1.6913,1.6745,1.6689,1.6689,1.6689,1.6689,1.6689,1.6689,1.6689,1.6689,1.6976,1.7056,1.6729,1.6984,1.7048,1.6721,1.6689,1.6689,1.6689,1.6689,1.6689,1.6689,1.6689,1.6689,1.6689,1.6689,1.6689,1.6689,1.6689,1.6689,1.6689,1.6689,1.6689,1.6689,1.6689,1.6689,0.8304,0.9124,1.0183,1.1659,1.2861,1.3828,1.4383,1.4569,1.466,1.4887,1.5062,1.534,1.5856,1.6024,1.6038,1.6023,1.6144,1.6203,1.6128,1.6162,1.6278,1.6394,1.6188,1.5982,1.5914,1.5665,1.5499,1.5431,1.5506,1.5541,1.5541,1.5541,1.5541,1.5541,1.579,1.5824,1.5692,1.6154,1.6368,1.6245,1.6368,1.6368,1.6237,1.6443,1.6607,1.6689,1.6689,1.6689,1.6689,1.6689,1.6808,1.7016,1.7016,1.7119,1.727,1.727,1.727,1.7247,1.708,1.7016,1.7016,1.7016,1.7016,1.708,1.7429,1.7413,1.7278,1.7278,1.7151,1.6976,1.6745,1.6689,1.6689,1.6689,1.6881,1.6969,1.6737,1.6689,1.6689,1.6689,1.6689,1.6745,1.6969,1.7127,1.7231,1.7231,1.7397,1.7445,1.7254,1.7397,1.7445,1.7254,1.7231,1.7231,1.7231,1.7088,1.6992,1.6992,1.6833,1.6689,1.6689,1.6689,1.6689,1.6689,1.6689,1.6689,1.6689,1.6689,1.6689,1.6689,1.6689,1.6689,0.8216,0.9255,1.0506,1.2278,1.3115,1.3703,1.4283,1.4497,1.4569,1.4605,1.4843,1.5189,1.5569,1.5833,1.5976,1.5849,1.613,1.6275,1.6037,1.6206,1.6353,1.6353,1.6278,1.6196,1.6128,1.5831,1.5624,1.5506,1.5624,1.5692,1.5692,1.5692,1.5692,1.5658,1.5692,1.5692,1.5658,1.5963,1.6087,1.6046,1.6046,1.6046,1.6095,1.6286,1.6443,1.6648,1.6648,1.6648,1.6689,1.6689,1.6689,1.6689,1.6689,1.6689,1.6689,1.6689,1.6689,1.6689,1.6689,1.6689,1.6689,1.6689,1.6689,1.6745,1.7096,1.6976,1.6753,1.7104,1.6969,1.6689,1.6689,1.6689,1.6689,1.6689,1.6689,1.6689,1.6689,1.6689,1.6689,1.6689,1.6689,1.6873,1.7294,1.7583,1.7743,1.7806,1.787,1.7886,1.7822,1.787,1.7878,1.7822,1.7814,1.7814,1.7814,1.7568,1.7342,1.7286,1.7,1.6753,1.6697,1.6689,1.6689,1.6689,1.6689,1.6689,1.6689,1.6689,1.6689,1.6689,1.6689,1.6689,0.737,0.8736,1.0447,1.1994,1.2867,1.3527,1.4247,1.4425,1.4461,1.4569,1.4645,1.4787,1.5181,1.5284,1.5344,1.5451,1.5897,1.6118,1.5725,1.5945,1.6128,1.6128,1.5797,1.5673,1.6046,1.5714,1.559,1.5963,1.5831,1.5692,1.5692,1.5692,1.5616,1.5465,1.5616,1.5616,1.5423,1.588,1.5997,1.5741,1.5741,1.5873,1.6087,1.6128,1.6245,1.6435,1.6435,1.6517,1.6689,1.6689,1.6689,1.6689,1.6689,1.6689,1.6689,1.6689,1.6689,1.6689,1.6689,1.6689,1.6689,1.6689,1.6689,1.6705,1.6753,1.6737,1.6705,1.6753,1.6729,1.6689,1.6689,1.6689,1.6689,1.6689,1.6689,1.6689,1.6689,1.6689,1.6689,1.6689,1.6689,1.6903,1.7588,1.7544,1.748,1.7767,1.8033,1.812,1.7854,1.8041,1.8112,1.7846,1.7814,1.7814,1.7814,1.7775,1.7623,1.7337,1.7231,1.7064,1.6705,1.6689,1.6689,1.6689,1.6689,1.6689,1.6689,1.6689,1.6689,1.6689,1.6689,1.6689,0.7829,0.8919,1.0168,1.1574,1.2218,1.2754,1.3595,1.3869,1.4064,1.4422,1.4389,1.4436,1.4819,1.5046,1.5237,1.5274,1.5651,1.5873,1.5678,1.5771,1.5833,1.5722,1.5443,1.535,1.5619,1.5316,1.5308,1.5858,1.5914,1.5989,1.6105,1.5989,1.5873,1.5797,1.5624,1.5506,1.5389,1.559,1.5631,1.5541,1.5541,1.559,1.5722,1.5722,1.5955,1.6394,1.6525,1.6607,1.6689,1.6689,1.6689,1.6689,1.6689,1.6689,1.6689,1.6689,1.6689,1.6689,1.6689,1.6689,1.6689,1.6689,1.6607,1.6566,1.6648,1.6607,1.6566,1.6648,1.6689,1.6689,1.6689,1.6689,1.6689,1.6689,1.6689,1.6689,1.6689,1.6689,1.6689,1.6689,1.7207,1.7644,1.7798,1.7977,1.8192,1.8343,1.8494,1.8541,1.8383,1.8494,1.8533,1.8383,1.8359,1.8359,1.8359,1.8184,1.7922,1.7623,1.7382,1.7111,1.6705,1.6689,1.6689,1.6689,1.6689,1.6689,1.6689,1.6689,1.6689,1.6689,1.6689,1.6689,0.8194,0.8904,0.957,1.0894,1.1531,1.2034,1.2856,1.3281,1.3653,1.4111,1.4148,1.4165,1.4425,1.4754,1.5009,1.5046,1.5332,1.5554,1.547,1.5549,1.5528,1.5304,1.515,1.5132,1.5225,1.5016,1.5032,1.5512,1.5746,1.5909,1.6056,1.595,1.5866,1.5868,1.5464,1.5301,1.5389,1.5389,1.5389,1.5389,1.5389,1.5389,1.5389,1.5514,1.5839,1.6319,1.6492,1.6615,1.6689,1.6689,1.6689,1.6689,1.6689,1.6689,1.6689,1.6689,1.6648,1.6607,1.6607,1.6607,1.6607,1.6574,1.6484,1.6435,1.6525,1.6443,1.636,1.6566,1.6574,1.6574,1.6607,1.6607,1.6607,1.6607,1.6648,1.6689,1.6689,1.6768,1.6897,1.6943,1.7628,1.8136,1.8057,1.8406,1.8724,1.8765,1.8781,1.8781,1.8781,1.8781,1.8781,1.8781,1.8781,1.8781,1.8781,1.8589,1.824,1.7838,1.7583,1.7199,1.6713,1.6689,1.6689,1.6689,1.6689,1.6689,1.6689,1.6689,1.6689,1.6689,1.6689,1.6689,0.7837,0.8253,0.8582,0.9855,1.0902,1.175,1.224,1.2841,1.3374,1.3607,1.3887,1.4093,1.4129,1.4297,1.4493,1.4593,1.4975,1.513,1.4883,1.5179,1.5312,1.5064,1.5018,1.5033,1.5095,1.4877,1.4846,1.5126,1.5126,1.5164,1.5164,1.5164,1.5184,1.5255,1.5036,1.5075,1.5382,1.5389,1.5389,1.5389,1.5389,1.5389,1.5431,1.5839,1.6087,1.6128,1.6128,1.6335,1.6689,1.6689,1.6689,1.6689,1.6689,1.6689,1.6689,1.6689,1.6566,1.6435,1.6435,1.6435,1.6394,1.6203,1.6245,1.6353,1.6211,1.6128,1.617,1.636,1.6286,1.617,1.636,1.6435,1.6435,1.6435,1.6566,1.6689,1.6689,1.7008,1.7342,1.7695,1.7806,1.8001,1.8661,1.8526,1.8438,1.8734,1.8781,1.8781,1.8781,1.8781,1.8781,1.8781,1.8781,1.8781,1.8781,1.8765,1.851,1.7854,1.7798,1.7445,1.6721,1.6689,1.6689,1.6689,1.6689,1.6689,1.6689,1.6689,1.6689,1.6689,1.6689,1.6689,0.7615,0.7968,0.8458,0.9519,1.0053,1.0535,1.1344,1.1892,1.2302,1.2683,1.2916,1.3207,1.3678,1.4106,1.4425,1.4461,1.468,1.4795,1.4678,1.4788,1.4838,1.4646,1.4609,1.4656,1.4767,1.4676,1.4767,1.5096,1.5111,1.5111,1.5111,1.4995,1.4931,1.4926,1.4744,1.4794,1.5075,1.5075,1.5185,1.5389,1.5389,1.5389,1.5431,1.5707,1.5955,1.6095,1.6245,1.6443,1.6689,1.6689,1.6689,1.6689,1.6689,1.6689,1.6689,1.6689,1.6648,1.6566,1.6435,1.6394,1.6353,1.617,1.6038,1.5982,1.6087,1.5997,1.5906,1.6162,1.617,1.6128,1.6203,1.6319,1.6435,1.6566,1.6648,1.6689,1.6689,1.7024,1.7247,1.7127,1.7652,1.812,1.8144,1.8422,1.8684,1.8765,1.8781,1.8781,1.8781,1.8697,1.8612,1.8612,1.8612,1.8612,1.8612,1.8537,1.8279,1.7846,1.7615,1.7239,1.6713,1.6689,1.6689,1.6689,1.6689,1.6689,1.6689,1.6689,1.6689,1.6689,1.6689,1.6689,0.7332,0.76,0.8041,0.8909,0.9226,0.9555,1.0528,1.1034,1.1424,1.1953,1.2204,1.2527,1.3107,1.3676,1.4078,1.4266,1.4425,1.4533,1.4533,1.4569,1.4569,1.4461,1.4461,1.4475,1.4525,1.4548,1.4567,1.4653,1.4736,1.4736,1.4668,1.4547,1.4478,1.452,1.4523,1.4575,1.4739,1.4787,1.4907,1.5228,1.5228,1.5279,1.5431,1.5616,1.5782,1.5997,1.6203,1.6443,1.6689,1.6689,1.6689,1.6689,1.6689,1.6648,1.6607,1.6607,1.6484,1.636,1.6188,1.6188,1.6147,1.5922,1.579,1.5741,1.5839,1.5748,1.5665,1.5914,1.5922,1.588,1.5963,1.6072,1.6229,1.6525,1.6607,1.6607,1.6689,1.7024,1.7207,1.6969,1.7572,1.8081,1.7969,1.8343,1.8692,1.8765,1.8781,1.8781,1.8781,1.8612,1.8527,1.8566,1.8527,1.8434,1.8317,1.8303,1.8052,1.7541,1.7355,1.7111,1.6705,1.6689,1.6689,1.6689,1.6689,1.6689,1.6689,1.6689,1.6689,1.6689,1.6689,1.6689,0.0,0.0,0.0,0.8019,0.8443,0.8919,0.9855,1.0324,1.0762,1.1415,1.1772,1.2062,1.2397,1.2898,1.3442,1.3973,1.423,1.4389,1.4389,1.4497,1.4605,1.4605,1.4605,1.4533,1.4425,1.4389,1.4253,1.387,1.3992,1.3992,1.379,1.379,1.3866,1.3998,1.4313,1.4482,1.4496,1.4496,1.4611,1.4885,1.4885,1.5061,1.5374,1.5594,1.5677,1.5692,1.5989,1.6319,1.6697,1.6689,1.6689,1.6689,1.6689,1.6566,1.6394,1.6394,1.6105,1.5692,1.5692,1.5692,1.565,1.5465,1.5541,1.5658,1.5465,1.5389,1.5423,1.5658,1.5541,1.5465,1.5658,1.5692,1.5816,1.627,1.6394,1.6476,1.6648,1.7008,1.7262,1.7262,1.7568,1.791,1.8224,1.8287,1.8414,1.8726,1.8781,1.8781,1.8781,1.8604,1.855,1.8719,1.8589,1.8363,1.802,1.8153,1.7889,1.6955,1.7128,1.7104,1.6705,1.6689,1.6689,1.6689,1.6689,1.6689,1.6689,1.6689,1.6689,1.6689,1.6689,1.6689,0.6913,0.0,0.0,0.0,0.0,0.0,0.9288,0.953,0.9772,1.0403,1.0763,1.1158,1.1753,1.2127,1.2476,1.2876,1.3638,1.4165,1.4165,1.4201,1.4238,1.4238,1.4353,1.4425,1.4389,1.4497,1.4461,1.4253,1.4137,1.3992,1.379,1.3645,1.3609,1.3623,1.3718,1.3879,1.4152,1.4152,1.4282,1.4596,1.4596,1.4765,1.5031,1.5063,1.5285,1.5718,1.5739,1.594,1.6294,1.6402,1.6476,1.6476,1.6476,1.636,1.6162,1.6162,1.6079,1.5955,1.5782,1.5692,1.565,1.5465,1.5423,1.5465,1.5431,1.5389,1.5431,1.5465,1.5423,1.5465,1.5658,1.5692,1.5816,1.627,1.6394,1.6476,1.6648,1.6768,1.6881,1.6881,1.7175,1.7517,1.7902,1.8128,1.8414,1.8726,1.8781,1.8743,1.8612,1.8301,1.8046,1.7948,1.7821,1.7679,1.7585,1.7569,1.7477,1.7202,1.6982,1.6841,1.6697,1.6689,1.6689,1.6689,1.6689,1.6689,1.6689,1.6689,1.6689,1.6689,1.6689,1.6689,0.7073,0.7245,0.7594,0.7843,0.0,0.0,0.8936,0.9041,0.9214,0.9943,1.025,1.0543,1.1085,1.1531,1.1897,1.2087,1.2862,1.3515,1.3729,1.3823,1.3948,1.4078,1.4209,1.4281,1.4281,1.4425,1.4461,1.4281,1.4245,1.4101,1.3826,1.3681,1.3608,1.3492,1.3492,1.3587,1.3777,1.3777,1.3945,1.4306,1.4306,1.4435,1.4735,1.4695,1.4927,1.536,1.5304,1.5571,1.5955,1.6072,1.6147,1.6278,1.6278,1.6121,1.5914,1.5914,1.588,1.5797,1.5624,1.5575,1.5541,1.5423,1.5389,1.5389,1.5389,1.5389,1.5389,1.5389,1.5389,1.5423,1.5541,1.5575,1.5658,1.6023,1.6188,1.6319,1.6525,1.6648,1.6689,1.6689,1.6905,1.7159,1.7552,1.785,1.82,1.8557,1.8605,1.8567,1.8438,1.7996,1.7644,1.7555,1.737,1.7193,1.6975,1.704,1.7038,1.6813,1.6733,1.6689,1.6689,1.6689,1.6689,1.6689,1.6689,1.6689,1.6689,1.6689,1.6689,1.6689,1.6689,1.6689,0.735,0.7439,0.0,0.7814,0.7728,0.0,0.8736,0.881,0.8902,0.9768,0.9943,1.0053,1.0419,1.1012,1.1445,1.1481,1.1963,1.2538,1.3115,1.3384,1.3595,1.3876,1.395,1.395,1.395,1.4168,1.4263,1.4076,1.4294,1.4217,1.3826,1.3797,1.3717,1.3499,1.3492,1.3492,1.3492,1.3492,1.3638,1.3931,1.3931,1.4137,1.4452,1.4416,1.4553,1.4849,1.4849,1.5146,1.5606,1.5643,1.5831,1.6046,1.6046,1.5914,1.565,1.565,1.5541,1.5389,1.5389,1.5389,1.5389,1.5389,1.5389,1.5389,1.5389,1.5389,1.5389,1.5389,1.5389,1.5389,1.5389,1.5389,1.5465,1.5658,1.5865,1.6128,1.6319,1.6525,1.6607,1.6607,1.6656,1.6808,1.7215,1.7568,1.7878,1.8192,1.824,1.824,1.815,1.7718,1.7383,1.7347,1.7162,1.6799,1.6305,1.6649,1.6645,1.6144,1.6492,1.6689,1.6689,1.6689,1.6689,1.6689,1.6689,1.6689,1.6689,1.6689,1.6689,1.6689,1.6689,1.6689,0.7527,0.7716,0.8,0.8047,0.8248,0.0,0.8583,0.8525,0.8547,0.8902,0.8963,0.9146,0.9697,1.0106,1.047,1.0762,1.1106,1.1679,1.253,1.2689,1.2745,1.2804,1.2949,1.3059,1.3059,1.3481,1.3816,1.3941,1.4233,1.4217,1.3826,1.3797,1.3717,1.3499,1.3492,1.3492,1.3492,1.3492,1.3528,1.3587,1.3587,1.3762,1.4108,1.3806,1.4004,1.4599,1.4599,1.4743,1.5098,1.5355,1.5582,1.5782,1.5782,1.5665,1.5465,1.5465,1.5423,1.5389,1.5389,1.5389,1.5389,1.5389,1.5389,1.5389,1.5389,1.5389,1.5389,1.5389,1.5389,1.5389,1.5389,1.5389,1.5465,1.5658,1.5733,1.5865,1.6079,1.6211,1.6211,1.6211,1.6492,1.6808,1.7215,1.7334,1.7528,1.787,1.7918,1.7743,1.7383,1.7321,1.7118,1.6503,1.6507,1.6448,1.6152,1.6379,1.6464,1.636,1.6566,1.6689,1.6689,1.6689,1.6689,1.6689,1.6689,1.6689,1.6689,1.6689,1.6689,1.6689,1.6689,1.6689,0.806,0.8185,0.8439,0.8439,0.8532,0.0,0.0,0.8637,0.8616,0.8902,0.8882,0.8935,0.9419,0.97,0.9965,1.0294,1.0616,1.0997,1.1487,1.197,1.2302,1.247,1.2593,1.2661,1.2661,1.2987,1.3332,1.3632,1.3796,1.3828,1.3678,1.365,1.3618,1.3492,1.3492,1.3492,1.3492,1.3492,1.3492,1.3492,1.3492,1.3579,1.3733,1.3572,1.3762,1.4262,1.4262,1.4406,1.4728,1.5017,1.5223,1.5312,1.5474,1.5506,1.5389,1.5389,1.5389,1.5389,1.5389,1.5389,1.5389,1.5389,1.5389,1.5389,1.5389,1.5389,1.5389,1.5389,1.5389,1.5389,1.5389,1.5389,1.5423,1.5541,1.5616,1.5733,1.5873,1.5997,1.6087,1.6087,1.6252,1.6513,1.6802,1.6975,1.7156,1.7313,1.7474,1.7439,1.7036,1.6919,1.67,1.6324,1.6163,1.6031,1.5906,1.6121,1.6245,1.6245,1.6525,1.6689,1.6689,1.6689,1.6689,1.6689,1.6689,1.6689,1.6689,1.6689,1.6689,1.6689,1.6689,1.6689,0.8684,0.8751,0.8958,0.8905,0.8803,0.876,0.0,0.0,0.0,0.8983,0.8908,0.8898,0.9237,0.939,0.9577,0.995,1.028,1.0492,1.0492,1.1224,1.1843,1.2204,1.2156,1.2164,1.2321,1.2509,1.2802,1.324,1.3261,1.3269,1.335,1.3469,1.3487,1.3389,1.3499,1.3535,1.3492,1.3492,1.3492,1.3492,1.3492,1.3492,1.3492,1.3492,1.3638,1.3894,1.3953,1.4128,1.4438,1.4721,1.4849,1.4936,1.5265,1.5389,1.5389,1.5389,1.5389,1.5389,1.5389,1.5389,1.5389,1.5389,1.5389,1.5389,1.5389,1.5389,1.5389,1.5389,1.5389,1.5389,1.5389,1.5389,1.5389,1.5389,1.5499,1.5658,1.5658,1.579,1.5971,1.5971,1.5971,1.6046,1.6319,1.6552,1.6738,1.6738,1.6914,1.7007,1.6772,1.6531,1.636,1.636,1.5948,1.5692,1.5692,1.5955,1.6087,1.6087,1.6492,1.6689,1.6689,1.6689,1.6689,1.6689,1.6689,1.6689,1.6689,1.6689,1.6689,1.6689,1.6689,1.6689,0.9204,0.9359,0.9519,0.9231,0.9365,0.9388,0.8706,0.0,0.8868,0.848,0.0,0.8482,0.8884,0.0,0.0,0.9595,0.9943,1.0155,1.0155,1.0499,1.0872,1.1232,1.1012,1.1033,1.1643,1.1898,1.224,1.2826,1.2765,1.2742,1.2875,1.3347,1.3424,1.306,1.3525,1.3681,1.3492,1.3492,1.3492,1.3492,1.3492,1.3492,1.3492,1.3492,1.3514,1.3565,1.3857,1.4004,1.4062,1.4423,1.4692,1.4936,1.5265,1.5389,1.5389,1.5389,1.5389,1.5389,1.5389,1.5389,1.5389,1.5389,1.5389,1.5389,1.5389,1.5389,1.5389,1.5389,1.5389,1.5389,1.5389,1.5389,1.5389,1.5389,1.5431,1.5423,1.5423,1.5472,1.5472,1.5472,1.5472,1.5631,1.6046,1.6159,1.6182,1.6182,1.6231,1.6231,1.6182,1.6151,1.6128,1.6128,1.5865,1.5692,1.5692,1.5955,1.6087,1.6087,1.6492,1.6689,1.6689,1.6689,1.6689,1.6689,1.6689,1.6689,1.6689,1.6689,1.6689,1.6689,1.6689,1.6689,0.9244,0.9304,0.9439,0.9486,0.9459,0.9325,0.8978,0.8884,0.8835,0.8636,0.0,0.0,0.0,0.0,0.0,0.0,0.9351,0.9431,0.9307,0.9589,1.0051,1.074,1.0704,1.0697,1.0997,1.0916,1.1085,1.1608,1.1578,1.1759,1.2198,1.2796,1.3095,1.3001,1.3395,1.3608,1.3492,1.3492,1.3492,1.3492,1.3492,1.3492,1.3492,1.3492,1.3492,1.3506,1.3638,1.3697,1.3726,1.4048,1.4267,1.4435,1.4907,1.5221,1.5389,1.5389,1.5389,1.5389,1.5389,1.5389,1.5389,1.5389,1.5389,1.5389,1.5389,1.5389,1.5389,1.5389,1.5389,1.5389,1.5389,1.5389,1.5389,1.5389,1.5389,1.5389,1.5389,1.5389,1.5389,1.5389,1.5389,1.5472,1.568,1.579,1.5914,1.6087,1.6203,1.6245,1.6128,1.6087,1.6087,1.6087,1.5756,1.5575,1.5692,1.5782,1.5914,1.6087,1.6492,1.6689,1.6689,1.6689,1.6689,1.6689,1.6689,1.6689,1.6689,1.6689,1.6689,1.6689,1.6689,1.6689,0.9477,0.9511,0.9613,0.9666,0.9519,0.9291,0.9131,0.8991,0.8878,0.8824,0.875,0.0,0.0,0.0,0.8564,0.882,0.0,0.8901,0.8798,0.8917,0.9333,1.0221,1.0477,1.055,1.0463,1.0163,1.0175,1.07,1.0559,1.081,1.1569,1.222,1.2654,1.2862,1.3227,1.344,1.3492,1.3492,1.3492,1.3492,1.3492,1.3492,1.3492,1.3492,1.3492,1.3492,1.3492,1.3492,1.3514,1.3748,1.3901,1.404,1.4596,1.4966,1.5265,1.5352,1.5389,1.5389,1.5389,1.5389,1.5389,1.5389,1.5389,1.5389,1.5389,1.5389,1.5389,1.5389,1.5389,1.5389,1.5389,1.5389,1.5389,1.5389,1.5389,1.5389,1.5389,1.5389,1.5389,1.5389,1.5389,1.5389,1.5389,1.5499,1.5665,1.588,1.6038,1.6072,1.5997,1.5922,1.5963,1.6095,1.568,1.5465,1.5692,1.5692,1.5824,1.6162,1.6492,1.6689,1.6689,1.6689,1.6689,1.6689,1.6689,1.6689,1.6689,1.6689,1.6689,1.6689,1.6689,1.6689,1.0167,1.0301,1.0419,0.9849,0.9708,0.9519,0.8951,0.9004,0.9118,0.8864,0.8998,0.9152,0.9037,0.8995,0.8937,0.883,0.8806,0.0,0.0,0.8724,0.8798,0.9544,1.0199,1.0463,1.0148,0.9814,0.9894,1.0572,1.0002,1.0068,1.107,1.1629,1.2114,1.2485,1.3036,1.3362,1.3492,1.3492,1.3492,1.3492,1.3492,1.3492,1.3492,1.3492,1.3492,1.3492,1.3492,1.3492,1.3492,1.3506,1.3697,1.4011,1.4394,1.4677,1.4958,1.5272,1.5389,1.5389,1.5389,1.5389,1.5389,1.5389,1.5389,1.5389,1.5389,1.5389,1.5389,1.5389,1.5389,1.5389,1.5389,1.5389,1.5389,1.5389,1.5389,1.5389,1.5389,1.5389,1.5389,1.5389,1.5389,1.5389,1.5389,1.5431,1.5431,1.5431,1.5431,1.5506,1.5692,1.5541,1.5597,1.6046,1.568,1.5465,1.5692,1.5692,1.5899,1.6353,1.6607,1.6689,1.6689,1.6689,1.6689,1.6689,1.6689,1.6689,1.6689,1.6689,1.6689,1.6689,1.6689,1.6689,1.0094,1.0334,1.0499,1.0067,0.9967,0.9813,0.9198,0.9138,0.9131,0.8871,0.9011,0.9124,0.8911,0.8722,0.8611,0.8595,0.8639,0.8567,0.0,0.8186,0.8364,0.8948,0.9387,0.964,0.9522,0.9394,0.9504,0.9914,0.9738,0.9855,1.0404,1.1241,1.1757,1.1907,1.2682,1.313,1.317,1.3389,1.3492,1.3492,1.3492,1.3492,1.3492,1.3492,1.3492,1.3492,1.3492,1.3492,1.3492,1.3492,1.3558,1.3711,1.4298,1.4577,1.4692,1.5192,1.5389,1.5389,1.5389,1.5389,1.5389,1.5389,1.5389,1.5389,1.5389,1.5389,1.5389,1.5389,1.5389,1.5389,1.5389,1.5389,1.5389,1.5389,1.5389,1.5389,1.5389,1.5389,1.5389,1.5389,1.5389,1.5389,1.5389,1.5389,1.5465,1.5582,1.5616,1.5616,1.5692,1.579,1.5805,1.5631,1.5624,1.5582,1.5506,1.5616,1.5899,1.6353,1.6476,1.6566,1.6689,1.6689,1.6689,1.6689,1.6689,1.6689,1.6689,1.6689,1.6689,1.6689,1.6689,1.6689,1.0374,1.0641,1.0795,1.0501,1.0428,1.0247,0.9524,0.9451,0.9411,0.9018,0.9084,0.9191,0.9132,0.8798,0.8549,0.0,0.0,0.8327,0.0,0.7939,0.8138,0.8266,0.8705,0.9112,0.9314,0.8919,0.8919,0.9563,0.9299,0.9402,1.006,1.0843,1.1349,1.1584,1.2387,1.2892,1.3009,1.3331,1.3492,1.3492,1.3492,1.3492,1.3492,1.3492,1.3492,1.3492,1.3492,1.3492,1.3492,1.3492,1.3492,1.355,1.4122,1.4408,1.4585,1.5196,1.5389,1.5389,1.5389,1.5389,1.5389,1.5389,1.5389,1.5389,1.5389,1.5389,1.5389,1.5389,1.5389,1.5389,1.5389,1.5389,1.5389,1.5389,1.5389,1.5389,1.5389,1.5389,1.5389,1.5389,1.5389,1.5389,1.5389,1.5389,1.5423,1.5575,1.5575,1.5575,1.5575,1.5748,1.5722,1.5431,1.5499,1.5541,1.5431,1.5665,1.5989,1.6278,1.6443,1.6566,1.6689,1.6689,1.6689,1.6689,1.6689,1.6689,1.6689,1.6689,1.6689,1.6689,1.6689,1.6689]}]]